GFSMA_con_mucape_000.txt.gz
CAPE
492 255 60 0 0 22 38 52 9 0 0 0 0 0 0 0 0 0 0 0 0 0 0 0 0 0 0 0 32 181 274 362 400 539 567 454 368 389 441 482 468 461 378
176 9 0 0 0 0 1 23 1 0 0 0 0 0 0 0 0 0 0 0 0 0 0 0 0 0 0 0 3 1 24 224 315 343 505 433 355 333 312 309 346 401 389
29 26 0 0 0 0 27 64 6 0 0 0 0 0 0 0 0 0 0 0 0 0 0 0 0 0 0 0 0 8 4 1 43 223 372 411 395 336 284 222 256 295 359
63 55 22 11 17 39 22 45 31 0 0 0 0 0 0 0 0 0 0 0 0 0 0 0 0 0 0 0 0 0 0 17 3 1 237 352 330 358 334 283 260 253 264
44 88 47 41 82 76 55 58 41 3 0 0 0 0 0 0 0 0 0 0 0 0 0 0 0 0 0 0 0 0 0 0 1 11 10 224 229 325 327 345 274 218 204
0 11 19 44 88 94 64 37 54 38 6 0 0 0 0 0 0 0 0 0 0 0 0 0 0 0 0 0 0 0 0 0 0 1 2 13 9 178 261 210 275 293 275
0 0 4 25 50 71 87 123 106 101 64 28 4 0 0 0 0 0 0 0 0 0 0 0 0 0 0 0 0 0 0 0 0 0 0 0 0 6 46 110 130 137 191
0 0 0 0 0 0 16 41 90 105 129 93 37 10 9 18 21 0 0 0 0 0 0 0 0 0 0 0 0 0 0 0 0 0 0 0 0 0 0 17 64 78 158
0 0 0 0 0 0 0 0 9 25 56 112 196 88 52 57 101 70 22 0 0 0 0 0 0 0 0 0 0 0 0 0 0 0 0 0 0 0 0 0 4 40 93
0 0 0 0 0 0 0 0 0 1 15 18 101 152 174 128 115 95 45 27 0 0 0 0 0 0 0 0 0 0 0 0 0 0 0 0 0 0 0 0 1 0 28
0 0 0 0 0 0 0 0 0 0 3 27 45 73 65 89 61 42 95 24 1 0 0 0 0 0 0 0 0 0 0 0 0 0 0 0 0 0 1 0 0 0 0
0 0 0 0 0 0 0 0 1 4 8 13 10 11 9 1 4 12 22 40 83 3 6 0 0 0 0 0 0 0 0 0 0 0 0 0 0 4 0 0 0 3 2
0 0 0 0 0 0 1 5 13 19 0 0 0 0 0 0 6 11 18 23 34 28 32 0 0 0 0 0 0 0 0 0 0 0 0 0 0 0 0 0 0 1 3
0 0 0 2 10 20 45 53 20 0 5 3 0 0 0 1 22 25 10 2 6 15 0 0 0 0 0 0 0 0 0 0 0 0 0 0 0 0 0 0 0 0 0
0 0 10 9 0 4 0 0 0 0 1 0 0 0 0 0 0 0 0 0 0 0 0 0 0 19 6 0 0 0 0 0 0 0 0 0 0 0 0 0 0 0 0
25 12 3 0 0 0 0 0 0 0 0 0 0 0 0 0 0 0 0 0 0 0 0 0 0 0 0 0 0 0 0 0 0 0 0 0 0 0 0 0 0 0 0
14 14 11 4 0 0 0 0 0 0 0 0 0 0 0 0 0 0 0 0 0 0 0 0 5 6 4 0 1 8 9 11 14 2 0 0 0 0 0 0 0 0 0
39 34 0 0 0 0 0 0 0 0 0 0 0 0 0 0 0 0 0 0 1 18 0 0 2 17 18 15 24 22 10 4 12 9 28 7 0 0 0 0 0 0 0
30 26 0 0 0 0 0 0 0 0 0 0 0 0 0 0 0 0 3 6 8 6 15 1 0 12 13 14 10 16 19 20 11 7 3 5 1 0 0 0 0 0 0
0 0 0 0 0 0 0 0 0 0 0 0 0 0 0 0 0 0 0 0 0 0 3 0 0 0 5 7 10 3 9 21 22 10 5 0 3 7 5 1 0 0 0
0 0 0 1 0 0 1 0 0 11 25 25 19 13 10 0 0 0 0 0 0 0 0 0 0 0 4 5 0 12 0 28 28 35 34 35 38 29 25 0 0 1 0
0 0 0 0 1 1 0 0 0 6 11 16 20 15 0 0 0 0 0 0 0 0 0 0 0 0 0 0 0 0 0 0 0 63 0 0 59 36 41 39 14 4 2
0 0 2 5 9 11 0 0 0 0 0 0 0 0 0 0 0 0 0 0 0 0 0 0 0 0 0 0 0 0 0 0 0 0 0 0 0 0 49 24 12 10 11
2 4 13 7 0 0 0 0 0 0 0 0 0 0 0 0 0 0 0 0 0 0 0 0 0 0 0 0 0 0 0 0 0 0 0 0 0 0 0 0 0 18 26
10 16 0 0 0 0 0 0 0 0 0 0 0 0 0 0 0 0 0 0 0 0 0 0 0 0 0 0 0 0 0 0 0 0 0 0 0 0 0 0 101 0 0
4 0 0 0 0 0 0 0 0 0 0 0 0 0 0 0 0 0 0 0 0 0 0 0 0 0 0 0 0 0 0 0 0 0 0 0 0 0 0 18 61 97 92

GFSMA_con_mucape_003.txt.gz
CAPE
272 80 16 0 0 1 10 8 1 0 0 0 0 0 0 0 0 0 0 0 0 0 0 0 0 0 0 0 0 22 181 239 290 364 517 580 523 447 335 367 291 310 472
132 57 9 0 0 0 0 0 13 0 0 0 0 0 0 0 0 0 0 0 0 0 0 0 0 0 0 0 0 0 3 44 187 269 236 475 498 432 349 336 329 376 373
66 67 47 33 15 41 34 45 13 12 1 0 0 0 0 0 0 0 0 0 0 0 0 0 0 0 0 0 0 0 0 0 1 67 232 290 311 371 328 270 297 350 351
68 110 72 79 118 144 80 103 33 32 29 17 18 0 0 0 0 0 0 0 0 0 0 0 0 0 0 0 0 0 0 0 0 0 6 157 122 266 326 299 286 261 343
12 71 82 179 402 226 301 300 227 269 188 123 47 42 8 0 1 0 0 0 0 0 0 0 0 0 0 0 0 0 0 0 0 0 0 26 279 214 303 283 287 309 266
30 61 100 267 276 262 338 381 576 330 384 313 94 105 159 84 9 8 3 0 0 0 0 0 0 0 0 0 0 0 0 0 0 0 0 0 2 9 311 331 320 355 346
0 0 1 67 129 149 320 368 377 385 373 387 412 324 233 142 144 51 50 5 10 12 17 1 11 0 0 0 0 0 0 0 0 0 0 0 0 0 1 29 318 244 273
0 0 0 0 19 13 181 272 373 331 308 377 391 345 184 152 205 170 112 94 59 19 16 36 54 14 0 0 0 0 0 0 0 0 0 0 0 0 0 0 30 88 222
0 0 0 0 0 36 36 210 185 231 167 195 399 313 150 122 235 226 375 170 189 185 55 35 33 0 0 0 0 0 0 0 0 0 0 0 0 0 0 0 0 20 43
0 0 0 0 0 2 46 54 17 132 118 77 151 93 246 193 176 179 249 256 193 90 241 171 77 0 0 0 0 0 0 0 0 0 0 0 0 0 0 0 0 0 0
0 0 0 0 0 0 7 28 52 15 18 46 24 52 49 42 105 20 15 84 255 70 54 50 16 0 0 0 0 0 0 0 0 0 0 0 0 0 0 0 0 1 0
0 0 0 0 11 23 15 30 41 48 20 26 25 13 14 0 3 3 2 13 95 67 40 39 1 12 12 10 0 0 0 0 0 0 0 0 0 0 6 31 2 0 2
0 1 4 12 7 19 44 77 82 27 18 8 0 4 0 0 0 9 13 23 40 44 0 1 0 14 30 53 28 0 0 0 0 0 0 0 0 0 0 5 6 0 4
5 6 13 26 39 44 80 77 49 67 10 17 2 0 0 0 0 0 0 3 27 28 8 11 11 18 17 47 15 0 0 0 0 0 0 0 0 0 0 0 0 0 0
1 11 27 34 68 79 62 61 63 43 71 54 27 0 0 30 6 0 0 0 3 13 18 38 0 64 52 62 34 11 2 1 0 0 0 0 0 0 0 0 0 0 0
29 41 79 61 54 28 12 13 24 51 16 47 0 0 0 0 0 9 0 24 0 0 1 0 0 0 0 1 49 52 27 23 0 0 0 0 0 0 0 0 0 0 0
41 46 35 33 34 12 5 35 14 0 0 50 40 44 14 38 42 22 52 47 41 37 0 0 6 28 39 44 27 59 52 57 48 0 0 0 0 0 0 0 0 0 0
39 44 33 35 37 41 34 41 50 0 0 0 0 1 0 32 34 26 33 27 38 31 13 0 4 33 49 57 78 88 26 11 31 13 3 0 0 0 0 0 0 0 0
49 48 56 42 32 29 18 22 33 41 44 38 32 30 2 0 0 38 29 36 24 19 40 5 0 45 47 40 41 56 62 86 25 32 17 3 6 3 0 0 0 0 0
2 0 9 9 13 13 14 21 17 5 4 20 39 34 33 30 31 30 22 24 22 27 18 36 30 28 36 27 44 51 60 70 59 12 5 1 15 11 1 0 0 0 0
2 6 13 20 29 30 14 3 1 0 2 10 46 32 67 54 5 0 0 0 0 1 2 26 34 42 58 68 55 72 76 92 80 83 77 78 92 68 21 0 1 0 0
7 12 24 34 40 29 0 0 0 0 0 0 1 27 29 48 41 34 0 0 0 0 0 0 0 0 18 17 21 22 27 32 0 44 25 50 68 51 48 59 5 0 0
26 29 34 35 31 30 0 0 0 0 0 0 0 11 0 12 19 0 0 0 0 0 0 0 0 0 0 0 0 0 0 0 0 0 3 0 71 81 73 13 6 1 0
33 35 29 25 26 11 0 0 0 0 0 0 0 0 0 0 0 0 0 0 0 0 0 0 0 0 0 0 0 0 0 0 0 0 0 0 73 55 74 64 10 0 1
37 25 19 18 1 0 0 0 0 0 0 0 0 0 0 0 0 0 0 0 0 0 0 0 0 0 0 0 0 0 0 0 0 0 0 0 0 0 0 27 69 0 0
28 18 4 0 0 0 0 0 0 0 0 0 0 0 0 0 0 0 0 0 0 0 0 0 0 0 0 0 0 0 0 0 0 0 0 0 0 0 0 14 66 38 51

GFSMA_con_mucape_006.txt.gz
CAPE
377 236 80 18 5 0 0 0 0 0 0 0 0 0 0 0 0 0 0 0 0 0 0 0 0 0 0 0 0 29 164 190 302 400 329 378 465 587 512 380 261 243 255
213 159 58 56 23 15 13 1 0 0 0 0 0 0 0 0 0 0 0 0 0 0 0 0 0 0 0 0 0 0 0 39 249 307 380 325 365 386 428 408 347 321 339
106 158 102 89 95 113 79 47 61 19 26 3 0 0 0 0 0 0 0 0 0 0 0 0 0 0 0 0 0 0 0 0 0 51 292 332 276 333 362 346 380 347 369
92 141 130 147 162 239 125 123 95 63 41 24 23 3 0 0 0 0 0 0 0 0 0 0 14 0 0 0 0 0 0 0 0 0 0 220 253 240 261 302 307 252 261
115 95 81 140 187 157 130 166 128 121 137 120 110 57 16 35 18 0 0 0 0 0 0 0 0 0 0 0 0 0 0 0 0 0 0 10 216 172 147 139 221 252 296
8 29 14 72 209 147 80 120 199 95 89 85 82 64 59 37 15 32 24 0 0 0 0 0 0 0 0 0 0 0 0 0 0 0 0 0 32 162 206 108 155 201 225
0 0 0 0 0 0 2 13 2 0 2 51 47 44 22 21 116 89 51 57 26 0 0 0 0 0 0 0 0 0 0 0 0 0 0 0 0 12 7 3 217 229 277
0 0 0 0 0 0 0 0 17 0 0 0 18 15 0 0 0 4 31 71 61 41 7 4 7 0 0 0 0 0 0 0 0 0 0 0 0 22 0 0 0 30 232
0 0 0 0 0 0 0 0 0 0 0 0 0 0 3 0 0 0 0 0 16 63 25 3 0 1 8 0 0 0 0 0 0 0 0 0 0 0 1 0 0 0 0
0 0 0 0 0 0 0 0 0 0 0 0 0 0 0 0 0 0 0 0 0 29 97 103 61 0 21 9 3 1 0 0 0 0 0 0 0 0 0 0 0 0 0
0 0 0 0 0 0 0 4 4 11 1 2 1 0 2 7 8 1 0 0 0 0 0 46 41 31 0 0 4 2 0 0 0 0 0 0 0 0 0 0 0 0 0
0 0 0 0 1 8 13 28 16 18 16 12 14 7 2 0 0 0 0 0 0 0 0 0 13 22 13 0 2 0 1 0 0 0 0 0 0 0 0 0 0 4 0
0 0 0 1 9 27 32 22 24 13 10 2 1 2 2 0 0 0 1 0 0 0 0 0 2 18 11 5 1 0 0 2 0 0 0 0 0 2 37 50 43 42 10
0 0 2 1 2 0 0 0 3 24 19 17 12 7 2 0 0 0 0 0 0 0 0 0 2 2 19 24 0 0 0 1 0 0 0 0 0 0 0 0 0 1 11
0 0 0 0 0 0 2 3 14 23 15 12 7 30 13 6 17 1 4 0 0 0 0 0 0 0 0 0 0 0 0 0 0 0 0 0 0 0 0 0 0 0 0
0 0 1 0 6 4 14 10 1 8 12 14 19 21 7 10 2 11 17 33 36 0 0 0 0 0 0 0 0 0 0 14 4 1 3 0 0 0 0 0 0 0 0
0 0 0 2 10 20 23 20 0 11 0 0 12 23 16 0 0 0 0 0 4 18 0 0 10 0 0 15 10 0 0 3 0 0 0 0 0 0 0 0 0 0 0
10 17 37 31 42 42 47 31 42 54 42 30 19 18 30 41 0 0 0 0 0 7 0 0 0 0 0 0 0 0 16 7 11 15 10 6 1 0 0 0 0 0 0
22 12 0 2 1 2 7 12 16 19 1 0 5 1 1 9 10 3 5 2 1 5 1 0 0 0 0 0 0 0 0 0 2 2 0 0 0 0 0 0 0 0 0
0 0 3 12 19 17 14 6 0 0 0 0 0 0 0 0 3 1 0 2 4 3 1 0 0 0 0 0 0 0 0 0 0 0 0 0 4 6 7 0 0 0 0
2 2 2 10 17 20 6 1 0 0 0 0 0 0 0 0 19 8 0 0 0 0 0 0 0 0 0 0 2 8 8 5 8 20 16 2 1 2 11 18 3 0 0
0 2 12 14 14 12 5 0 0 0 0 0 0 0 0 0 0 41 44 12 0 0 0 0 0 0 0 0 0 0 0 0 0 0 0 0 0 0 0 3 2 0 0
0 11 21 21 1 0 0 0 0 0 0 0 0 0 0 0 0 1 3 2 0 0 0 0 0 0 0 0 0 0 0 0 0 0 0 0 0 0 0 2 9 3 0
2 15 22 1 0 0 0 0 0 0 0 0 0 0 0 0 0 0 0 0 0 0 0 0 0 0 0 0 0 0 0 0 0 0 0 0 0 0 0 0 0 0 0
5 8 1 2 0 0 0 0 0 0 0 0 0 0 0 0 0 0 0 0 0 0 0 28 40 0 0 0 0 0 0 0 0 0 0 0 0 0 0 0 0 0 0
4 1 0 0 0 0 0 0 0 0 0 0 0 0 0 0 0 0 0 0 0 0 0 0 0 0 0 0 0 0 0 0 0 0 0 0 0 0 0 0 0 0 0

GFSMA_con_mucape_009.txt.gz
CAPE
1 0 0 0 0 0 0 0 0 0 0 0 0 0 0 0 0 0 0 0 0 0 0 0 0 0 10 80 117 113 225 348 436 748 523 572 735 680 639 609 382 265 250
13 4 0 1 0 8 17 0 0 0 1 0 0 0 0 0 0 0 0 0 0 0 0 0 0 0 7 23 120 83 85 170 413 465 597 461 475 479 456 487 397 317 296
0 0 9 4 3 14 44 34 27 22 10 0 0 3 3 0 0 0 0 0 0 0 0 0 0 0 13 30 66 68 60 108 100 202 530 432 512 399 386 403 405 380 388
0 0 0 0 0 4 10 8 25 51 48 33 10 21 4 0 0 0 0 0 0 0 0 0 7 36 63 29 10 0 0 0 0 17 142 535 386 429 362 349 399 442 424
0 0 0 0 0 0 0 0 0 0 0 0 0 0 0 0 0 0 8 16 0 0 0 0 0 11 64 62 0 0 0 0 0 0 0 96 300 451 382 311 338 355 401
1 0 0 0 0 0 0 0 0 0 0 0 0 0 0 0 0 0 0 0 57 61 33 3 0 0 15 68 52 7 0 0 0 0 0 0 142 265 316 330 236 237 271
0 0 0 0 0 0 0 0 0 0 0 0 0 0 0 0 0 0 0 0 0 4 42 52 9 11 0 17 74 28 5 0 0 0 0 0 0 197 201 301 322 241 205
0 0 0 0 0 0 0 0 0 0 0 0 0 0 0 0 0 0 0 0 0 0 0 0 7 6 7 0 0 69 36 22 0 0 11 19 0 0 105 43 37 75 170
0 0 0 0 0 0 0 0 0 0 0 0 0 0 0 0 0 0 0 0 0 0 0 0 8 36 35 16 5 2 13 22 53 8 0 6 0 1 33 39 0 0 0
0 0 0 0 0 0 0 0 0 0 0 0 0 2 12 16 0 0 0 0 0 0 0 0 0 2 60 43 15 8 1 4 7 23 0 0 0 0 0 52 15 0 0
0 0 0 0 0 0 0 0 0 0 0 6 17 18 20 3 4 3 0 0 0 0 0 0 0 0 0 49 31 11 1 0 0 0 0 0 0 0 0 33 16 1 0
2 2 0 0 0 0 0 0 1 5 14 18 21 3 2 2 0 0 0 0 0 0 0 0 0 1 0 2 29 3 7 30 0 0 0 1 0 0 0 0 5 9 1
8 0 0 0 0 0 0 1 9 13 12 22 18 6 5 1 1 0 0 0 0 0 0 0 0 0 18 17 8 0 0 0 0 0 0 0 0 0 0 14 45 18 17
0 0 0 0 0 0 0 0 3 4 21 14 7 4 0 0 2 19 0 0 0 0 0 0 0 14 0 24 3 9 1 6 11 0 0 0 0 0 0 0 0 20 36
0 0 0 0 0 0 3 11 9 4 1 0 0 18 32 4 0 7 4 6 2 0 0 0 0 0 6 50 24 9 0 0 0 0 0 0 0 0 0 0 0 0 0
0 0 0 0 0 1 7 21 7 0 1 2 0 0 0 20 43 3 0 0 0 0 0 0 0 0 0 4 42 0 0 0 0 0 0 0 0 0 0 0 0 0 0
0 0 0 1 11 25 34 43 45 33 38 27 11 3 0 0 0 11 0 0 0 0 0 0 0 0 0 0 0 11 0 0 0 0 0 0 0 0 0 0 0 0 0
0 0 0 0 0 0 0 0 4 4 3 5 6 4 4 4 0 0 0 0 0 0 0 0 0 0 0 0 0 0 0 0 0 0 3 0 0 0 0 0 0 0 0
0 0 0 0 0 0 0 1 1 0 0 0 0 0 0 0 0 0 0 0 0 0 0 0 0 0 0 0 0 0 0 0 0 0 0 6 0 0 0 0 0 0 0
0 0 0 0 0 0 0 0 0 0 4 3 0 0 0 0 0 0 0 0 0 0 0 0 0 0 0 0 0 0 0 0 0 0 0 0 0 0 0 0 0 0 0
0 0 0 0 0 0 0 0 0 2 2 0 0 0 0 0 0 0 13 0 0 1 0 0 0 0 0 0 0 0 0 0 0 0 0 0 0 0 0 0 0 0 0
0 4 0 0 0 0 0 0 0 0 0 0 0 0 0 0 0 0 0 0 0 0 0 0 0 0 0 0 0 0 0 0 0 0 3 0 0 0 0 0 0 0 0
0 0 0 0 0 1 1 1 0 0 0 0 0 0 0 0 0 0 0 0 0 0 0 0 0 0 0 0 0 0 0 0 0 0 0 0 0 0 0 0 0 0 0
0 0 0 0 0 0 0 0 0 0 0 0 0 0 0 0 0 0 0 0 0 0 0 0 0 0 0 0 0 0 0 0 0 0 0 0 0 0 0 0 0 0 0
0 0 0 0 0 0 0 0 0 0 0 0 0 0 0 0 0 0 0 0 0 0 0 0 38 0 0 0 0 0 0 0 0 0 0 0 0 0 0 0 0 0 0
0 0 0 0 0 0 0 0 0 0 0 0 0 0 0 0 0 0 0 0 0 0 0 0 0 0 0 0 0 0 0 0 0 0 0 0 0 0 0 0 0 0 0

GFSMA_con_mucape_012.txt.gz
CAPE
0 0 0 0 0 0 0 0 0 0 0 0 0 0 0 0 0 0 0 0 0 1 0 0 0 0 0 38 101 141 97 316 453 532 963 927 624 499 542 526 609 497 415
0 0 0 0 0 0 0 0 0 0 0 0 0 0 0 0 0 2 3 0 0 8 11 0 0 0 0 21 112 135 95 76 185 451 772 662 443 330 383 453 528 487 382
0 0 0 0 0 0 0 0 0 0 0 0 0 0 0 0 0 0 0 0 0 0 3 33 46 44 27 29 102 145 164 153 135 174 595 727 466 422 219 376 504 511 458
2 0 0 0 0 0 0 0 0 0 0 0 0 0 0 0 0 0 0 0 0 0 0 3 41 74 114 76 32 48 76 104 38 49 251 440 514 273 398 334 356 300 356
25 20 5 3 0 0 0 0 0 0 0 0 0 0 0 0 0 0 0 0 0 0 0 0 0 19 70 121 48 55 56 44 15 0 6 183 241 325 279 291 247 284 329
17 24 27 19 0 0 0 0 0 0 0 0 0 0 0 0 0 0 0 0 0 0 0 0 0 0 0 70 151 65 57 65 59 7 0 10 174 183 250 307 320 198 295
0 0 0 0 0 0 0 0 0 0 0 0 0 0 0 0 0 0 0 0 0 0 0 0 0 0 0 0 102 125 94 74 70 71 112 68 82 148 252 371 363 337 227
0 0 0 0 0 0 0 0 0 0 0 0 0 0 0 0 0 0 0 0 0 0 0 0 0 0 0 0 0 42 157 122 93 153 186 114 75 68 95 302 258 236 216
0 0 0 0 0 0 0 0 0 0 0 0 0 0 0 0 0 0 0 0 0 0 0 0 0 0 1 0 0 0 0 34 174 180 249 163 120 38 65 122 151 39 29
0 0 0 2 4 2 0 0 0 0 0 0 0 8 14 18 0 0 0 0 0 0 0 0 0 0 0 2 5 4 4 5 0 41 115 184 90 5 0 22 179 66 0
4 9 10 10 7 0 0 0 0 0 0 5 9 9 7 7 2 0 0 0 0 0 0 0 0 0 1 0 6 6 11 10 12 8 11 33 0 0 0 2 29 71 3
4 8 0 0 0 0 0 0 0 0 4 22 29 16 10 15 4 2 0 0 0 0 0 0 0 0 0 11 36 36 29 3 1 22 3 9 0 7 0 1 4 78 52
9 3 0 0 0 0 0 0 0 0 0 4 8 3 20 11 0 0 11 8 3 0 0 0 0 0 0 1 27 30 13 16 4 19 20 13 0 57 41 23 13 12 17
0 0 0 0 0 0 0 0 0 0 1 0 0 0 1 14 27 25 14 4 1 7 0 0 0 0 0 0 16 44 52 5 10 2 10 2 1 0 0 0 0 0 23
0 0 0 0 0 0 0 4 6 0 0 0 4 16 16 4 0 1 0 2 3 3 0 0 0 0 0 0 3 18 0 0 5 23 3 3 0 0 0 0 0 0 0
0 3 0 0 0 0 0 2 4 0 6 10 22 4 9 0 0 0 20 0 3 8 0 0 0 0 0 0 0 2 16 0 1 7 7 6 8 0 0 0 0 0 0
3 0 0 0 0 0 0 0 0 0 0 0 0 1 4 8 6 2 0 0 0 0 0 1 0 0 0 0 0 0 0 20 0 1 8 0 1 2 0 0 0 0 0
2 0 2 0 0 0 0 0 0 0 0 0 0 0 0 0 0 0 0 0 0 0 0 0 0 0 0 0 0 0 0 0 0 0 0 0 0 0 0 0 0 0 0
8 0 0 0 0 0 0 0 0 0 0 0 0 0 0 0 0 0 0 0 0 0 0 0 0 0 0 0 0 0 0 0 0 0 0 0 0 0 0 0 0 0 0
0 4 0 0 0 0 0 0 0 0 0 0 0 0 0 0 0 0 0 0 0 0 0 0 0 0 0 0 0 0 0 0 0 0 0 0 0 0 0 0 0 0 0
0 0 1 5 2 0 0 1 0 0 0 0 0 0 0 0 0 0 0 0 0 0 0 0 0 0 0 0 0 0 0 0 0 0 0 0 0 0 0 0 0 0 0
1 4 4 0 0 0 1 0 0 0 0 0 0 0 0 0 0 0 0 0 0 0 0 0 0 0 0 0 0 0 0 0 0 0 0 0 0 0 0 0 0 0 0
11 7 0 0 0 0 0 0 0 0 0 0 0 0 0 0 0 0 0 0 0 0 0 0 0 0 0 0 0 0 0 0 0 0 0 0 0 0 0 0 0 0 0
0 0 0 0 0 0 0 0 0 0 0 0 0 0 0 0 0 0 0 0 0 0 0 0 0 0 0 0 0 0 0 0 0 0 0 0 0 0 0 0 0 0 0
0 0 0 0 0 0 0 0 0 0 0 0 0 0 0 0 0 0 0 0 0 0 0 0 0 0 0 0 0 0 0 0 0 0 0 0 0 0 0 0 0 0 0
1 0 0 0 0 0 0 0 0 0 0 0 0 0 0 0 0 0 0 0 0 0 0 0 0 0 0 0 0 0 0 0 0 0 0 0 0 0 0 0 0 0 0

GFSMA_con_mucape_015.txt.gz
CAPE
0 0 0 0 0 0 0 0 0 0 0 0 0 0 0 0 0 0 0 0 0 0 0 0 0 0 0 14 74 144 83 55 66 155 525 604 585 538 423 430 298 552 477
0 0 0 0 0 0 0 0 0 0 0 0 0 0 0 0 0 0 0 0 0 0 0 0 0 5 47 109 98 142 159 138 68 53 164 510 616 481 401 324 401 226 619
0 0 0 0 0 0 0 0 0 0 0 0 0 0 0 0 0 0 0 0 0 0 0 0 0 2 55 107 129 144 157 183 98 65 73 270 490 528 404 336 215 301 284
12 0 0 0 0 0 0 2 0 0 0 0 0 0 0 0 0 0 0 0 0 0 0 0 0 0 0 0 7 125 148 148 194 46 106 147 241 388 415 262 133 253 234
20 25 6 3 5 1 0 0 0 0 0 0 0 0 0 0 0 0 0 0 0 0 0 0 0 0 0 0 0 0 6 134 188 120 76 96 130 163 137 187 185 190 251
4 5 24 1 0 0 0 0 0 0 0 0 0 0 0 0 0 0 0 0 0 0 0 0 0 0 0 0 0 0 0 0 105 216 150 69 76 116 129 127 140 141 140
18 0 0 0 0 0 0 0 0 0 0 0 0 0 0 0 0 0 0 0 0 0 0 0 0 0 0 0 0 0 0 10 70 198 238 175 89 72 117 97 115 221 173
0 0 0 0 0 0 0 0 0 0 0 0 0 0 0 0 0 0 0 0 0 0 0 0 0 0 0 0 0 0 0 0 3 26 109 194 175 131 90 95 62 178 193
0 0 0 0 0 0 0 0 0 0 0 0 0 0 0 0 0 0 0 0 0 0 0 0 0 0 0 0 0 2 1 0 0 0 6 82 169 164 112 60 39 51 117
0 1 4 4 0 1 8 7 0 0 0 0 0 0 3 10 0 0 0 0 0 0 0 0 0 0 0 0 0 0 3 0 0 0 2 2 20 178 108 2 0 0 64
6 14 0 5 21 0 0 0 0 0 0 0 0 0 0 1 2 0 0 0 0 0 0 0 0 0 0 0 0 0 9 13 0 0 0 1 15 175 43 0 0 0 15
3 0 0 0 0 0 0 0 0 0 0 0 0 0 0 0 1 3 6 1 10 0 0 0 0 0 0 0 0 4 8 0 1 1 0 1 19 17 0 0 0 2 63
0 0 0 0 0 0 0 0 0 0 0 0 0 0 1 6 14 28 26 1 19 0 0 0 0 0 0 0 0 0 44 1 0 1 2 1 9 8 33 36 36 18 17
0 0 0 0 1 1 0 0 0 0 0 0 0 1 4 10 28 6 0 3 0 0 0 0 0 0 0 0 0 0 16 0 0 0 1 4 18 23 6 18 3 18 32
5 5 6 5 1 0 0 0 0 0 0 1 11 18 9 2 3 0 0 25 1 0 0 0 0 0 0 0 0 0 0 0 0 0 0 0 1 0 0 2 4 6 0
28 6 11 5 3 1 0 0 0 0 0 0 0 0 0 0 0 0 0 0 0 33 0 0 0 0 0 0 0 0 0 0 0 0 0 0 2 6 3 2 5 8 0
38 11 14 0 0 1 0 0 0 0 0 0 0 0 0 0 0 0 0 0 0 0 0 0 0 0 0 0 0 0 0 0 0 0 0 0 1 9 9 2 0 0 0
2 17 6 9 0 0 0 0 0 0 0 0 0 1 2 0 0 0 0 0 0 0 0 0 0 0 0 1 0 0 0 0 0 0 0 0 0 1 2 0 0 1 0
0 12 2 0 0 0 2 0 0 0 2 0 2 1 0 0 0 0 0 0 0 0 0 0 0 0 0 1 0 0 0 0 0 0 0 0 1 0 0 0 0 0 1
14 1 2 1 1 3 1 0 0 3 0 0 0 0 0 0 0 0 0 0 0 0 0 0 0 0 0 0 0 0 0 0 0 0 0 0 0 0 0 0 0 0 1
11 8 0 0 1 0 0 0 3 0 0 0 0 0 0 0 0 0 0 0 0 0 0 0 0 0 0 0 0 0 0 0 0 0 0 0 0 0 0 0 0 0 0
13 4 3 3 0 0 0 0 0 0 0 0 0 0 0 0 0 0 0 0 0 0 0 0 0 0 0 0 0 0 0 0 0 0 0 0 0 0 0 0 0 0 0
0 0 0 0 0 0 0 0 0 0 0 0 0 0 0 0 0 0 0 0 0 0 0 0 0 0 0 0 0 0 0 0 0 0 0 0 0 0 3 2 1 0 0
0 0 0 0 0 0 0 0 0 0 0 0 0 0 0 0 0 0 0 0 0 0 0 0 0 0 0 0 0 0 0 0 0 0 0 0 0 0 0 1 3 2 0
0 0 0 0 0 0 0 0 0 0 0 0 0 0 0 0 0 0 0 0 0 0 0 0 0 0 5 0 0 0 0 0 0 0 0 0 0 0 0 0 0 0 0
0 0 0 0 0 0 0 0 0 0 0 0 0 0 0 0 0 0 0 0 0 0 0 0 0 0 0 0 0 0 0 0 0 0 0 0 0 0 0 0 0 0 0

GFSMA_con_mucape_018.txt.gz
CAPE
3 0 0 0 0 0 0 0 0 0 0 0 0 0 0 0 0 0 0 0 0 0 0 0 0 0 0 102 266 159 178 55 0 0 94 236 481 426 328 259 201 364 354
9 0 0 0 0 0 0 0 0 0 0 0 0 0 0 0 0 0 0 0 0 0 0 0 0 0 0 0 16 67 178 210 144 31 52 91 220 419 437 256 248 204 309
8 0 4 0 0 0 0 0 0 0 0 0 0 0 0 0 0 0 0 0 0 0 0 0 0 0 0 0 0 0 7 128 217 94 115 100 119 221 280 247 204 163 253
12 21 27 19 19 6 11 0 0 0 0 0 0 0 0 0 0 0 0 0 0 0 0 0 0 0 0 0 0 0 0 15 96 193 199 106 111 118 131 141 146 147 165
8 12 22 20 10 3 2 0 0 0 0 0 0 0 0 0 0 0 0 0 0 0 0 0 0 0 0 0 0 0 1 0 35 81 193 182 124 72 85 127 110 127 113
4 6 3 8 0 0 0 0 0 0 0 0 0 0 0 0 0 0 0 0 0 0 0 0 0 0 0 0 0 0 0 4 9 51 102 186 163 126 86 111 136 118 100
0 0 0 0 0 0 0 0 0 0 0 0 0 0 0 0 0 0 0 0 0 0 0 0 0 0 0 0 0 0 0 0 5 5 4 98 145 173 162 136 90 40 137
0 0 0 0 0 0 0 0 4 1 0 0 0 0 0 0 0 0 0 0 0 0 0 0 0 0 0 0 0 0 0 6 4 4 2 1 4 92 182 185 123 14 15
0 0 0 0 1 0 0 1 0 0 0 0 0 0 0 0 0 0 0 0 0 0 0 0 0 0 0 0 0 0 0 11 10 8 6 5 3 0 59 145 185 60 0
0 0 2 3 2 0 0 0 0 0 0 0 0 0 0 0 0 0 1 1 0 0 0 0 0 0 0 0 0 0 0 10 10 11 12 11 8 3 6 79 157 89 3
2 3 0 0 0 0 0 0 0 0 0 0 0 0 0 0 0 0 0 0 0 0 0 0 0 0 0 0 0 0 0 5 0 1 8 11 8 11 21 86 140 65 12
0 0 0 0 0 0 0 0 0 0 0 0 0 0 0 0 0 0 0 0 0 0 0 0 0 0 0 0 0 0 0 2 0 0 1 6 10 5 9 45 64 43 19
0 0 0 0 6 12 4 2 1 1 0 0 0 0 0 0 0 0 0 0 0 0 0 0 0 0 0 0 0 0 0 25 0 0 0 0 4 12 3 7 75 51 58
0 0 0 1 6 0 3 0 0 0 0 0 0 0 0 4 9 1 30 0 0 0 0 0 0 0 0 0 0 0 0 4 0 0 0 0 0 9 12 5 19 59 119
0 0 5 9 2 0 0 0 0 0 0 0 0 0 0 0 0 1 1 6 0 0 0 0 0 0 0 0 0 0 0 0 1 0 0 0 0 0 21 14 8 6 33
0 6 10 0 13 15 0 0 0 0 0 0 0 0 0 0 0 0 1 1 3 0 0 0 0 0 0 1 0 0 0 0 0 0 0 0 0 0 0 11 11 3 13
0 8 15 18 20 11 5 0 0 0 0 0 0 0 0 0 0 0 0 0 0 0 0 0 0 0 0 0 1 0 0 0 0 0 0 0 0 0 0 6 4 0 2
0 0 4 8 8 2 0 0 0 0 0 0 0 0 0 0 0 0 0 0 0 0 0 0 0 0 0 0 13 10 0 0 0 0 0 0 0 0 0 0 21 14 7
0 0 3 3 0 0 0 2 0 0 0 0 0 0 0 0 0 0 0 0 0 0 0 0 0 0 0 0 0 3 0 0 0 0 0 0 0 0 0 0 0 16 0
0 3 7 10 2 2 0 0 0 0 0 0 0 0 0 0 0 0 0 0 0 0 0 0 0 0 0 0 0 0 0 0 0 0 0 0 0 0 0 0 0 0 1
0 8 15 2 3 2 1 0 0 0 0 0 0 0 0 0 0 0 0 0 0 0 0 0 0 0 0 0 0 0 1 0 0 0 0 0 0 0 0 0 0 0 0
0 0 1 4 6 0 0 0 0 0 0 0 0 0 0 0 0 0 0 0 0 0 0 0 0 0 0 0 0 0 0 0 0 0 0 0 0 0 0 0 0 0 0
0 0 0 0 0 0 0 0 0 0 0 0 0 0 0 0 0 0 0 0 0 0 0 0 0 0 0 0 0 0 1 0 0 0 0 0 0 0 2 1 0 0 0
7 0 0 0 0 0 0 0 0 0 0 0 0 0 0 0 0 0 0 0 0 0 0 0 0 0 0 0 0 0 0 0 0 0 0 0 0 0 0 0 2 0 0
0 0 0 0 0 0 0 0 0 0 0 0 0 0 0 0 0 0 0 0 0 0 0 0 0 0 0 0 0 0 0 0 0 0 0 0 0 0 0 0 0 1 3
0 0 0 0 0 0 0 0 0 0 0 0 0 0 0 0 0 0 0 0 0 0 0 0 0 0 0 0 0 0 0 0 0 0 0 0 0 0 0 0 0 0 0

GFSMA_con_mucape_021.txt.gz
CAPE
4 0 0 0 0 0 0 0 0 0 0 0 0 0 0 0 0 0 0 0 0 0 0 0 0 0 0 0 0 0 0 16 11 0 46 98 232 386 408 309 236 214 307
12 0 0 0 1 0 3 4 1 0 0 0 0 0 0 0 0 0 0 0 0 0 0 0 0 0 0 0 0 1 0 0 3 62 119 122 150 246 328 304 223 241 232
8 0 8 18 13 16 9 4 5 0 1 0 0 0 0 0 0 0 0 0 0 0 0 0 0 0 0 0 0 0 1 3 0 0 124 188 177 161 226 246 239 219 172
11 26 21 1 4 3 1 4 1 0 0 0 0 0 0 0 0 0 0 0 0 0 0 0 0 0 0 0 0 0 0 0 8 3 29 114 248 189 169 168 196 159 134
23 12 9 2 2 0 0 0 0 0 0 0 0 0 0 0 0 0 0 0 0 0 0 0 0 0 0 0 0 0 0 0 1 10 11 13 178 221 167 168 241 211 145
0 0 0 0 0 0 0 0 0 0 0 0 0 0 0 0 0 0 0 0 0 0 0 0 0 0 0 0 0 0 0 0 0 3 8 7 2 29 184 203 237 280 174
0 0 0 0 0 0 0 0 0 0 0 0 0 0 0 0 0 0 0 0 0 0 0 0 0 0 0 0 0 0 0 0 1 0 3 5 8 1 11 114 249 228 135
0 0 0 0 0 1 1 0 0 0 0 0 0 0 0 0 1 0 0 0 0 0 0 0 0 0 0 0 0 0 1 0 0 0 3 3 5 4 3 11 177 215 179
0 0 0 0 0 0 0 0 0 0 0 0 0 0 0 0 0 0 0 0 9 6 10 11 4 2 1 1 0 0 0 0 4 6 7 3 3 7 5 5 42 163 196
0 0 0 0 0 0 0 0 0 0 0 0 0 0 0 0 0 0 0 2 1 1 14 10 3 4 9 11 3 0 0 0 1 9 7 12 9 6 14 11 16 58 160
0 0 0 0 0 0 0 0 0 0 0 0 0 0 0 0 0 0 0 0 0 0 21 1 12 6 20 28 13 0 0 0 2 5 1 1 13 17 13 11 15 105 125
0 0 0 0 0 0 2 8 1 0 0 0 0 0 0 0 0 0 0 0 0 0 0 12 11 4 6 17 0 0 0 0 34 3 0 0 2 8 30 25 9 59 127
0 0 0 0 3 8 6 0 0 0 0 0 0 0 0 0 27 32 0 0 0 0 0 14 11 10 0 0 6 0 0 0 0 11 0 0 0 2 9 44 10 6 51
0 0 0 0 11 4 2 0 0 8 17 28 20 0 0 22 72 68 42 52 0 0 0 0 11 7 5 8 5 3 0 0 0 0 2 0 0 0 3 13 20 0 7
0 0 0 0 8 0 0 1 3 41 42 30 17 20 23 25 6 2 6 12 0 0 0 0 0 5 7 6 7 12 15 16 0 0 34 0 0 0 0 0 3 1 12
0 0 0 3 9 3 6 5 7 20 12 13 6 16 3 1 0 0 2 3 0 0 0 0 0 0 0 0 0 12 5 15 0 0 0 0 0 0 0 0 0 7 0
0 0 0 0 2 8 4 17 0 0 0 0 0 0 0 0 0 0 0 0 0 0 0 0 0 0 0 0 0 0 2 20 23 0 0 0 0 0 0 0 0 8 4
0 0 0 0 5 1 36 0 0 0 0 0 0 0 0 0 0 0 0 0 0 0 0 0 0 0 0 0 0 0 15 42 42 12 0 0 0 0 0 0 0 5 4
0 0 0 2 16 27 5 4 0 0 0 0 0 0 0 0 0 0 0 0 0 0 0 0 0 0 0 0 0 0 33 39 44 2 0 0 0 0 1 0 0 0 5
0 0 18 28 2 0 3 0 0 0 0 0 0 0 0 0 0 0 0 0 0 0 0 0 0 0 0 0 0 0 0 50 48 22 0 0 0 1 22 0 0 0 0
2 2 0 0 0 4 1 1 0 0 0 0 0 0 0 0 0 0 0 0 0 0 0 0 0 0 0 0 0 0 0 31 68 36 9 6 7 30 36 6 18 0 0
0 4 0 0 0 0 0 0 0 0 0 0 0 0 0 0 0 0 0 0 0 0 0 0 0 0 0 0 0 0 0 0 0 29 14 15 0 17 24 2 1 0 0
0 0 5 0 0 0 0 0 0 0 0 0 0 0 0 0 0 0 0 0 0 0 0 0 0 0 0 0 0 0 0 0 0 36 0 0 21 15 10 3 0 0 0
0 0 0 0 0 0 0 0 0 0 0 0 0 0 0 0 0 0 0 0 0 0 0 0 0 0 0 0 0 28 39 0 0 7 16 0 0 0 13 3 2 1 0
0 0 0 0 0 0 0 0 0 0 0 0 0 0 0 0 0 0 0 0 0 0 0 0 0 0 0 0 0 0 9 0 0 0 5 0 0 0 0 0 0 2 3
0 0 0 0 0 0 0 0 0 0 0 0 0 0 0 0 0 0 0 0 0 0 0 0 0 0 0 0 0 0 0 0 0 0 0 0 0 0 0 0 0 0 1

GFSMA_con_mucape_024.txt.gz
CAPE
490 181 121 16 3 5 3 0 0 0 0 0 0 0 0 0 0 0 0 0 0 0 0 0 0 0 0 0 0 1 2 13 6 31 135 157 162 151 220 263 266 208 168
318 186 24 2 3 3 10 5 0 0 0 0 0 0 0 0 0 0 0 0 0 0 0 0 0 0 0 0 0 0 0 2 14 29 48 280 248 216 207 213 223 222 163
58 10 10 15 4 3 0 0 0 0 0 0 0 0 0 0 0 0 0 0 0 0 0 0 0 0 0 0 0 0 0 0 0 9 54 118 224 258 237 248 192 137 73
6 19 8 2 0 0 0 0 0 0 0 0 0 0 0 0 0 0 0 0 0 0 0 0 0 0 0 0 0 0 0 0 0 1 8 50 83 230 197 224 194 141 93
0 0 0 0 0 0 0 0 0 0 0 0 0 0 0 0 0 0 0 4 0 0 0 0 0 0 0 0 0 0 0 0 0 0 5 7 4 31 63 201 208 185 160
0 0 0 0 0 0 0 0 0 0 0 0 0 0 0 0 0 1 12 5 2 8 4 3 1 0 0 0 0 0 0 0 0 0 1 7 10 6 8 38 166 247 246
0 0 0 0 0 0 0 0 0 0 0 1 0 0 0 0 13 20 16 8 11 8 9 7 6 10 3 2 0 0 0 5 5 4 0 0 7 12 5 2 43 124 245
0 0 0 0 0 0 0 0 0 0 0 5 2 0 0 0 0 19 4 12 7 17 7 8 14 17 16 10 11 0 3 11 5 5 10 3 1 7 14 9 9 59 208
0 0 0 0 0 0 0 1 2 0 0 0 1 0 0 0 0 1 10 13 22 7 7 5 15 13 21 25 25 30 11 0 2 2 8 16 18 8 9 16 18 51 105
0 0 0 0 0 0 2 6 0 0 0 0 0 2 3 7 0 0 23 31 28 5 0 2 21 9 18 22 40 58 2 0 0 0 24 18 22 20 15 11 20 30 80
0 0 0 0 7 20 11 0 0 3 0 1 4 4 13 15 20 36 16 27 15 21 31 19 14 14 12 16 27 34 9 1 0 7 58 36 19 19 20 15 28 23 33
3 12 23 29 26 14 2 2 15 1 16 9 11 22 33 35 38 36 41 34 25 5 22 25 31 34 27 24 7 45 31 15 3 0 7 56 33 10 8 14 24 29 26
0 0 0 1 14 33 6 56 45 58 53 40 32 36 37 39 34 33 57 47 38 15 15 18 27 36 34 34 25 45 29 8 0 1 0 0 44 15 0 0 18 49 34
0 0 0 1 25 47 50 67 83 63 61 45 41 48 48 39 30 52 57 60 5 30 19 24 22 24 30 36 31 12 12 22 46 41 0 0 27 14 0 0 0 5 19
0 0 0 5 29 60 81 86 90 72 76 57 60 38 30 24 41 53 60 65 78 0 0 23 24 21 22 24 19 17 15 16 28 44 6 0 10 32 0 0 0 0 2
0 0 0 0 13 47 79 81 69 70 57 63 27 18 36 42 44 54 59 54 47 63 16 25 19 30 28 17 17 17 0 24 7 1 26 4 55 36 0 0 0 0 1
0 0 2 4 16 43 49 67 72 86 53 32 22 43 45 51 60 47 49 43 43 44 23 0 0 7 0 0 7 34 29 41 35 27 51 10 0 0 0 0 0 0 0
2 3 9 15 26 38 61 63 63 6 15 32 34 34 47 39 35 36 36 31 33 20 0 0 0 0 0 0 0 0 22 32 42 28 30 0 0 0 35 0 0 0 0
3 5 14 32 29 43 25 0 1 3 0 8 24 32 20 13 8 6 4 0 0 0 0 0 0 0 0 0 0 4 2 53 40 58 20 0 0 0 3 21 0 0 0
3 8 30 24 23 25 26 9 0 7 22 10 3 4 1 0 0 0 0 0 0 0 0 0 0 0 0 17 40 25 32 57 43 45 48 8 0 14 1 55 18 0 0
5 20 28 36 35 25 1 0 0 0 0 0 0 0 0 0 0 0 0 0 0 0 0 0 0 0 0 13 31 50 30 49 55 34 75 65 42 43 44 30 9 1 0
12 14 22 35 27 0 0 0 0 0 2 0 0 0 0 0 0 0 0 0 0 0 0 0 0 0 0 1 45 45 44 52 0 29 112 79 43 41 30 48 2 0 0
13 12 35 31 23 0 0 0 0 0 0 0 0 0 0 0 0 0 0 0 0 0 0 0 0 0 0 52 49 45 38 38 70 58 25 69 53 62 42 25 1 0 1
11 24 39 20 1 0 0 0 0 0 0 0 0 0 0 0 0 0 0 0 0 0 0 0 0 0 0 35 35 44 65 43 48 48 46 55 63 61 48 48 11 0 0
13 26 27 23 0 0 0 0 0 0 0 0 0 0 0 0 0 0 0 0 0 0 0 0 0 0 0 0 21 0 0 0 15 44 45 50 46 42 37 45 47 0 0
8 9 10 0 0 0 0 0 0 0 0 0 0 0 0 0 0 0 0 0 0 0 0 0 0 0 0 26 1 30 1 0 0 48 31 36 31 12 35 42 41 32 1

GFSMA_con_mucape_027.txt.gz
CAPE
1056 419 480 186 143 61 51 42 40 9 0 0 0 0 0 0 0 0 0 0 0 0 0 0 0 0 0 0 0 0 0 0 0 1 0 88 308 282 198 194 180 203 237
748 299 194 38 173 61 57 10 0 0 0 0 0 0 0 0 0 1 1 0 0 0 0 0 0 0 0 0 0 0 0 0 0 0 1 4 93 216 288 237 178 155 138
103 22 8 36 57 15 0 0 0 0 0 0 0 0 0 0 0 3 0 0 5 0 0 0 0 0 0 0 0 0 0 0 0 0 0 0 3 17 113 211 270 227 160
14 11 3 14 0 0 0 0 0 0 0 0 0 2 0 0 0 0 0 0 9 10 2 0 0 0 0 0 0 0 0 0 0 0 2 1 0 0 3 21 61 239 180
0 0 0 0 0 0 0 0 2 0 3 1 0 0 0 0 0 0 0 0 21 21 19 10 23 2 0 0 0 0 0 6 0 8 8 11 10 2 0 1 2 37 230
0 0 0 0 0 0 0 1 0 0 0 0 0 0 1 0 0 0 8 12 16 10 22 29 14 18 63 2 0 0 12 14 19 30 19 13 14 17 5 1 1 0 40
0 0 0 0 0 0 0 0 0 0 0 0 0 0 0 0 3 0 2 14 1 5 8 21 39 26 18 70 30 30 12 14 26 25 28 26 14 11 12 4 1 0 0
0 0 0 0 0 0 0 0 0 0 0 0 0 0 0 0 0 1 0 3 17 5 22 10 9 17 22 27 33 25 56 18 10 9 5 10 21 20 11 15 8 4 2
0 0 0 0 0 0 0 0 1 6 0 3 5 3 0 0 0 1 6 7 45 19 31 33 28 12 25 18 26 25 21 0 0 0 9 19 28 32 27 17 23 17 9
0 0 0 0 0 1 3 6 4 7 15 0 15 14 17 13 0 0 8 26 48 47 106 58 49 30 14 17 40 71 21 4 0 0 4 37 41 40 41 34 23 29 25
0 0 0 5 7 5 9 12 16 24 34 32 23 24 16 18 24 27 2 33 25 37 63 81 60 37 24 29 59 65 45 25 1 0 0 11 32 65 39 34 34 31 17
0 0 0 0 0 1 18 21 36 54 56 45 62 37 31 35 32 36 41 34 53 20 27 49 81 67 74 78 53 87 68 46 5 0 0 1 13 12 55 44 17 9 28
0 0 0 0 0 0 3 30 44 87 60 64 80 56 34 44 60 53 42 33 60 24 35 58 79 86 32 95 85 105 15 25 28 19 2 16 18 5 12 23 10 1 5
0 0 0 0 0 2 15 46 64 46 78 100 72 68 62 60 60 62 38 68 52 24 30 31 60 85 89 99 71 76 18 39 24 28 29 21 28 5 0 18 3 0 0
0 0 0 0 0 0 20 68 74 57 82 97 99 106 63 64 80 53 46 67 80 33 0 41 75 64 86 80 68 62 60 33 43 38 19 3 0 3 0 11 14 0 0
0 0 0 0 1 7 19 49 55 75 82 102 101 51 43 73 53 45 38 94 71 70 23 39 34 61 47 19 35 59 49 66 44 48 40 20 13 9 10 40 14 0 0
0 1 0 1 9 16 23 43 55 56 83 90 57 35 58 51 44 52 80 56 70 75 77 34 34 30 17 16 30 45 50 61 63 63 61 62 53 62 22 0 0 0 0
2 2 0 5 12 19 17 37 38 29 2 19 28 27 40 27 39 24 24 17 24 23 52 0 1 0 0 0 0 0 47 23 49 47 77 51 34 14 3 0 8 3 0
3 2 2 11 17 25 30 14 25 24 21 27 26 29 23 16 7 5 5 0 0 1 19 0 0 0 0 0 0 21 45 39 39 57 65 42 35 26 30 0 0 9 5
4 3 8 17 25 28 21 22 18 25 25 23 29 18 5 2 0 0 0 0 0 0 0 0 0 0 0 0 48 55 46 71 58 30 37 35 46 2 26 14 14 8 18
1 7 12 19 21 21 8 3 11 4 10 22 22 4 1 0 0 0 0 0 0 0 0 0 0 0 0 0 0 52 61 58 35 87 72 83 94 130 66 39 0 38 1
2 10 16 28 16 13 0 0 0 0 0 6 4 0 0 0 0 0 0 0 0 0 0 0 0 0 0 0 42 61 73 63 13 81 49 93 7 88 43 70 47 2 0
9 20 25 27 29 18 0 0 0 0 0 0 0 0 0 0 0 0 0 0 0 0 0 0 0 0 0 0 0 14 42 59 66 53 55 52 48 43 40 21 1 0 0
19 19 29 28 25 8 0 0 0 0 0 0 0 0 0 0 0 0 0 0 0 0 0 0 0 0 0 0 0 0 28 17 35 48 45 65 72 71 82 62 22 17 0
13 16 17 17 17 3 0 0 0 0 0 0 0 0 0 0 0 0 0 0 0 0 0 0 0 0 0 0 14 0 14 0 3 20 51 60 75 72 97 84 63 14 3
12 15 8 19 11 0 0 0 0 0 0 0 0 0 0 0 0 0 0 0 0 0 0 0 0 0 0 0 14 7 56 64 47 40 34 46 30 30 56 73 77 87 40

GFSMA_con_mucape_030.txt.gz
CAPE
509 459 146 26 10 6 22 34 1 0 0 0 0 0 0 0 0 0 0 0 0 0 0 0 0 0 0 0 0 0 0 0 1 1 1 8 42 84 205 281 140 100 97
277 97 61 0 2 1 8 2 0 0 0 0 0 0 0 0 0 0 0 0 0 1 0 0 0 0 0 0 0 0 0 0 0 0 0 2 1 13 11 61 157 221 158
9 5 2 4 2 0 0 0 0 0 0 0 0 0 0 0 0 0 0 0 0 4 4 4 0 0 0 0 0 0 0 0 1 0 0 2 12 10 7 16 7 12 173
0 0 2 0 0 0 0 0 0 0 0 0 0 0 0 0 0 0 0 0 0 0 4 0 0 0 0 0 0 1 5 15 21 10 8 5 4 12 14 4 8 7 13
2 0 0 0 0 0 0 0 0 0 0 0 0 0 0 0 0 0 0 0 9 14 15 29 45 44 4 8 6 4 6 35 33 36 52 30 15 4 9 11 5 10 0
0 0 0 0 0 0 0 0 0 0 0 0 0 0 0 0 0 0 0 2 0 9 17 9 0 2 9 0 4 35 68 76 61 57 43 23 27 21 4 3 6 2 7
0 0 0 0 0 0 0 0 0 0 0 0 0 0 0 0 0 0 0 0 0 5 5 1 0 0 0 0 0 10 45 87 84 47 26 30 29 26 26 3 3 7 5
0 0 0 0 0 0 0 0 0 0 0 0 0 0 0 0 0 0 0 0 0 0 0 0 0 0 0 0 0 0 36 55 35 16 21 18 19 40 43 37 9 3 10
0 0 0 0 0 0 0 0 0 0 0 0 0 0 0 0 0 0 0 0 0 0 0 0 0 7 3 1 0 0 53 23 6 0 0 6 29 42 86 71 43 12 9
0 0 0 0 0 0 0 0 0 0 0 0 0 0 0 0 0 0 0 0 0 0 0 0 3 4 0 0 3 72 41 4 3 0 0 0 7 39 51 83 76 46 15
0 0 0 0 0 0 0 0 1 0 1 0 0 0 2 0 0 0 0 0 0 0 0 0 0 0 0 0 0 9 67 54 6 0 0 0 4 13 45 45 72 68 36
0 0 0 0 0 0 0 0 2 18 2 0 0 4 3 0 0 0 0 0 0 0 0 0 0 0 0 0 5 75 21 4 12 0 0 0 2 21 36 61 54 77 50
0 0 0 0 0 0 0 0 7 1 5 8 0 0 17 14 1 0 0 0 0 0 0 0 0 0 0 0 0 80 41 41 40 2 0 0 0 12 55 67 53 59 54
0 0 0 0 0 0 0 0 21 30 20 9 13 17 20 0 0 0 0 1 0 0 0 0 0 0 2 0 20 75 0 6 28 19 7 0 0 4 12 35 41 36 53
0 0 0 0 0 0 0 0 0 31 34 25 23 7 21 14 4 0 3 3 0 0 0 0 0 0 10 0 0 0 0 0 16 17 18 14 12 0 27 18 20 9 34
0 0 0 0 0 0 1 9 10 1 6 7 8 13 11 5 2 1 1 0 0 0 0 0 0 0 0 0 0 0 0 0 0 13 31 38 69 64 63 54 16 12 19
0 0 0 0 0 0 4 3 0 0 1 0 0 11 7 2 0 0 0 0 0 0 0 0 0 0 0 0 0 0 0 0 0 20 62 62 66 64 55 72 76 52 2
0 0 0 0 0 1 4 1 2 0 14 15 6 5 2 0 0 0 0 0 0 0 0 0 0 0 0 0 0 0 0 0 0 15 58 74 72 55 49 76 51 28 5
0 0 0 0 0 6 2 0 1 0 8 6 2 0 0 0 0 0 0 0 0 0 0 0 0 0 0 0 0 0 0 0 7 32 44 74 74 75 63 50 44 42 5
0 0 0 0 9 13 4 0 0 1 1 0 0 0 0 0 0 0 0 0 0 0 0 0 0 0 0 0 0 0 0 0 0 0 5 26 63 65 78 87 45 42 14
0 0 0 7 9 10 2 0 0 0 0 0 0 0 0 0 0 0 0 0 0 0 0 0 0 0 0 0 0 0 0 0 0 0 0 0 15 6 0 9 32 59 41
0 0 5 6 10 6 0 0 0 0 0 0 0 0 0 0 0 0 0 0 0 0 0 0 0 0 0 0 0 0 0 0 0 0 1 0 0 0 0 0 2 6 1
0 0 4 4 9 4 0 0 0 0 0 0 0 0 0 0 0 0 0 0 0 0 0 0 0 0 0 0 0 0 0 0 0 0 0 0 0 0 0 3 6 12 30
0 7 6 3 5 2 0 0 0 0 0 0 0 0 0 0 0 0 0 0 0 0 0 0 0 0 0 0 0 0 0 0 0 0 0 0 0 0 0 0 5 53 21
0 1 2 1 0 2 0 0 0 0 0 0 0 0 0 0 0 0 0 0 0 0 0 0 0 0 0 0 0 0 0 0 0 0 0 0 0 0 0 0 0 4 10
1 5 1 2 3 1 1 0 0 0 0 0 0 0 0 0 0 0 0 0 0 0 0 0 0 0 0 0 0 8 0 0 0 0 0 0 0 0 0 1 0 0 9

GFSMA_con_mucape_033.txt.gz
CAPE
44 38 9 6 21 11 3 0 6 2 0 0 0 0 0 0 0 0 0 0 0 0 0 0 0 0 0 0 0 0 0 0 1 3 2 2 2 8 14 11 27 69 104
0 7 55 24 6 0 4 0 0 0 0 0 0 0 0 0 0 0 0 0 0 0 0 0 0 0 0 0 0 0 0 0 0 1 5 5 9 5 9 8 8 11 20
0 1 7 0 0 0 0 0 0 0 0 0 0 0 0 0 0 0 0 0 0 5 10 0 0 0 0 0 0 0 0 9 10 3 15 24 13 11 7 8 6 0 1
0 0 0 0 0 0 0 0 0 0 0 0 0 0 0 0 0 0 0 0 0 0 17 1 0 0 1 6 6 1 1 14 22 70 62 32 20 17 0 1 13 9 1
0 0 0 0 0 0 0 0 0 0 0 0 0 0 0 0 0 0 0 0 0 0 0 40 13 12 10 10 6 23 48 35 85 58 49 30 27 6 2 0 0 4 9
0 0 0 0 0 0 0 0 0 0 0 0 0 0 0 0 0 0 0 0 0 0 0 1 5 10 11 10 2 0 19 68 80 55 34 24 37 30 11 4 6 0 0
0 0 0 0 0 0 0 0 0 0 0 0 0 0 0 0 0 0 0 0 0 0 0 1 3 7 4 1 0 0 2 24 29 34 51 56 13 10 21 43 24 14 14
0 0 0 0 0 0 0 0 0 0 0 0 0 0 0 0 0 0 0 0 0 0 0 0 2 0 0 0 0 0 0 0 5 7 15 14 30 9 14 29 61 45 25
0 0 0 0 0 0 0 0 0 0 0 0 0 0 0 0 0 0 0 0 0 0 0 0 0 0 0 0 0 0 32 39 31 17 13 7 22 34 17 20 33 56 58
0 0 0 0 0 0 0 0 0 0 0 0 0 0 0 0 0 0 0 0 0 0 0 0 0 0 0 0 0 4 52 15 0 1 9 12 20 37 43 28 31 49 62
0 3 0 0 0 0 0 0 0 0 0 0 0 0 0 0 0 0 0 0 0 0 0 0 0 0 0 0 0 0 30 11 5 0 0 8 19 27 42 53 53 51 58
7 3 0 0 0 0 0 0 0 0 0 0 4 0 0 0 0 0 0 0 0 0 0 0 0 0 0 0 0 27 37 11 28 0 0 0 7 21 32 44 56 75 75
14 7 0 0 0 0 0 0 0 0 0 0 0 1 4 3 10 15 16 3 0 0 0 0 0 0 0 0 0 1 0 0 0 0 0 0 0 5 19 31 43 62 74
26 10 0 0 0 0 0 0 0 0 1 7 4 4 4 0 12 14 4 0 0 0 0 0 0 0 0 0 0 0 0 0 0 6 0 0 0 2 11 19 30 48 58
22 4 0 0 0 0 0 0 0 0 0 0 1 6 3 8 14 6 1 0 0 0 0 0 0 0 0 0 0 0 0 0 1 1 0 0 0 0 0 0 40 51 58
5 0 0 0 0 0 0 0 0 0 0 0 0 0 0 1 12 16 4 0 0 1 0 0 0 0 0 0 0 0 0 0 0 0 0 1 34 17 0 0 0 28 49
0 0 0 0 0 0 0 0 0 0 0 0 0 0 0 1 5 3 0 3 2 0 0 0 0 0 0 0 0 0 0 0 0 0 19 35 48 65 76 63 48 33 43
0 0 0 0 0 0 0 0 0 0 0 0 0 0 3 3 0 0 0 0 0 0 0 0 0 0 0 0 0 0 0 0 0 0 51 50 54 46 43 46 64 65 47
0 0 0 0 0 0 0 0 0 0 0 0 0 0 0 0 0 0 0 0 0 0 0 0 0 0 0 0 0 0 0 0 0 0 10 24 34 54 66 69 45 78 68
7 0 0 0 0 0 0 0 0 3 0 0 0 0 0 0 0 0 0 0 0 0 0 0 0 0 0 0 0 0 0 0 0 0 0 0 10 17 4 33 28 1 23
0 0 0 0 0 0 0 0 2 8 0 0 0 0 0 0 0 0 0 0 0 0 0 0 0 0 0 0 0 0 0 0 0 0 0 0 0 0 0 1 0 0 21
0 0 0 0 0 0 0 0 2 3 1 0 0 0 0 0 0 0 0 0 0 0 0 0 0 0 0 0 0 0 0 0 0 0 0 0 0 0 0 0 4 0 9
0 0 0 1 0 0 3 2 5 1 0 0 0 0 0 0 0 0 0 0 0 0 0 0 0 0 0 0 0 0 0 0 0 0 0 0 0 0 0 0 0 32 54
0 0 0 0 0 1 3 0 0 0 0 0 0 0 0 0 0 0 0 0 0 0 0 0 0 0 0 0 0 0 0 0 0 0 0 0 0 0 0 0 0 0 18
0 0 0 0 0 0 2 1 2 2 0 0 0 0 0 0 0 0 0 0 0 0 0 0 0 0 0 0 0 0 0 0 0 0 0 0 0 0 0 0 0 1 0
0 0 0 1 1 1 5 2 5 0 0 0 0 0 0 0 0 0 0 0 0 0 0 0 0 0 0 0 0 0 0 0 0 0 0 0 0 0 0 0 0 0 0

GFSMA_con_mucape_039.txt.gz
CAPE
57 52 2 0 0 0 0 0 0 0 0 0 0 0 0 0 0 0 0 0 0 0 0 32 13 6 0 0 0 0 0 0 0 10 4 3 2 1 0 0 0 2 6
29 15 0 0 0 0 0 1 0 0 0 0 0 0 0 0 0 0 0 0 0 3 15 8 1 6 1 4 4 6 0 0 35 32 10 0 0 0 0 0 0 0 1
17 16 0 0 0 0 0 0 0 0 0 0 0 0 0 0 0 0 0 0 0 3 0 0 0 1 1 8 18 21 26 29 20 17 0 0 0 0 0 0 0 0 1
42 8 0 0 0 0 0 0 0 0 0 0 0 0 0 0 0 0 0 0 0 0 0 0 0 0 0 0 0 1 14 20 38 44 40 23 2 0 0 0 0 0 0
0 0 0 0 0 0 0 0 0 0 0 0 0 0 0 0 0 0 0 0 0 0 0 0 0 0 0 0 0 0 0 5 11 18 14 23 15 11 10 1 0 0 0
0 0 0 0 0 0 0 0 0 0 0 0 0 0 0 0 0 0 0 0 0 0 0 0 0 0 0 0 0 0 0 3 11 20 25 19 18 23 18 7 12 16 0
0 0 0 0 0 0 0 0 0 0 0 0 0 0 0 0 0 0 0 0 0 0 0 0 0 0 0 0 0 0 0 0 0 1 6 12 12 11 15 4 13 19 26
0 0 0 0 0 0 0 0 0 0 0 0 0 0 0 0 0 0 0 0 0 0 0 0 0 0 0 0 0 0 0 0 0 0 0 2 3 10 19 30 25 25 31
0 0 0 0 0 0 0 0 0 0 0 0 0 0 0 0 0 0 0 0 0 0 0 0 0 0 0 0 0 0 0 0 0 0 0 3 8 16 28 41 45 39 37
0 0 0 0 0 0 0 0 0 0 0 0 0 0 0 0 0 0 0 0 0 0 0 0 0 0 0 0 0 0 0 0 0 0 0 8 14 29 42 47 49 57 61
0 0 0 0 1 0 6 17 0 0 0 0 0 0 0 0 0 0 0 0 0 0 0 0 0 0 0 0 0 0 0 0 0 0 5 19 25 31 43 49 42 56 59
0 0 1 1 14 29 7 8 2 0 0 0 0 0 0 0 0 0 0 0 0 0 0 2 1 2 0 0 0 0 0 0 0 0 0 0 15 28 42 50 52 50 52
3 7 16 13 21 23 0 17 8 1 0 0 0 0 0 0 0 0 0 0 0 0 0 1 2 0 0 0 0 0 0 0 0 0 0 0 1 7 7 10 15 24 43
41 38 29 30 7 0 0 12 0 0 0 0 0 0 0 0 0 0 0 0 0 0 0 2 1 0 0 0 0 0 0 0 0 0 0 0 0 1 4 7 14 26 42
34 39 10 13 10 0 6 0 0 0 0 0 0 0 0 0 0 0 2 11 0 0 0 0 0 0 0 0 0 0 0 0 0 0 0 0 0 14 18 24 26 30 43
29 18 5 4 3 7 4 0 0 0 0 0 0 0 0 0 0 0 0 0 0 0 0 0 0 0 0 0 0 0 0 0 0 0 0 0 0 0 0 0 0 0 0
22 4 11 5 8 6 3 0 0 0 0 0 0 0 0 0 0 0 0 0 0 0 0 0 0 0 0 0 0 0 0 0 0 0 0 0 0 0 0 0 0 25 9
1 3 1 1 7 6 0 0 0 0 0 0 0 0 0 0 0 0 0 0 0 0 0 0 0 0 0 0 0 0 0 0 0 0 0 0 0 0 0 0 0 0 0
18 12 2 0 1 4 0 0 0 0 0 0 0 0 1 0 0 0 0 0 0 0 0 0 0 0 0 0 0 0 0 0 0 0 0 0 0 0 0 0 0 0 0
2 4 3 3 4 0 0 0 0 0 0 0 1 2 4 0 0 0 0 0 0 0 0 0 0 0 0 0 0 0 0 0 0 0 0 0 0 0 0 0 0 0 0
3 7 3 0 0 0 0 0 0 0 0 1 3 1 2 0 0 0 0 0 0 0 0 0 0 0 0 0 0 0 0 0 0 0 0 0 0 0 0 0 0 0 0
11 4 0 0 0 0 0 0 0 0 0 3 4 5 5 0 0 0 0 0 0 0 0 0 0 0 0 0 0 0 0 0 0 0 0 0 0 0 0 0 0 0 0
0 0 0 0 0 0 0 0 0 0 0 3 3 4 3 0 0 0 0 0 0 0 0 0 0 0 0 0 0 0 0 0 0 0 0 0 0 0 0 0 0 0 0
0 0 0 0 0 0 0 0 0 0 1 5 7 4 2 0 0 0 0 0 0 0 0 0 0 0 0 0 0 0 0 0 0 0 0 0 0 0 0 0 0 0 0
0 0 0 0 0 0 0 0 0 0 0 4 8 2 0 0 0 0 0 0 0 0 0 0 0 0 0 0 0 0 0 0 0 0 0 0 0 0 0 0 0 0 0
0 0 0 0 0 0 0 0 0 0 0 0 10 9 0 0 0 0 0 0 0 0 0 0 0 0 0 0 0 0 0 0 0 0 0 0 0 0 0 0 0 0 0

GFSMA_con_mucape_042.txt.gz
CAPE
1 0 0 0 0 0 0 0 0 0 0 0 0 0 0 0 0 0 0 0 0 0 2 29 13 12 9 2 0 2 6 15 36 32 18 5 0 0 0 0 0 0 0
81 93 43 14 0 0 0 2 4 1 0 0 0 0 0 0 0 0 0 0 0 32 20 1 1 2 2 1 0 0 0 0 11 0 0 0 0 0 0 0 0 0 0
51 39 41 15 13 0 11 27 0 0 0 0 0 0 0 0 0 0 0 0 0 0 0 0 0 0 0 12 1 0 0 0 0 0 0 0 0 0 0 0 0 0 0
83 61 47 38 20 20 19 7 0 0 0 0 0 0 0 0 0 0 0 0 0 0 0 0 0 0 0 0 0 0 0 0 0 3 3 0 0 0 0 0 0 0 0
59 56 43 16 12 20 12 0 0 0 0 0 0 0 0 0 0 0 0 0 0 0 0 0 0 0 0 0 0 0 0 0 4 9 15 24 15 4 3 0 0 0 2
2 4 0 0 7 8 0 0 0 0 0 0 0 0 0 0 0 0 0 0 0 0 0 0 0 0 0 0 0 0 0 0 4 5 6 7 6 9 9 8 10 9 9
0 0 0 3 0 0 0 0 0 0 0 0 0 0 0 0 0 0 0 0 0 0 0 0 0 0 0 0 0 0 0 0 0 0 1 4 8 13 8 6 11 16 18
2 1 0 0 0 0 0 0 0 0 0 0 0 0 0 0 0 0 0 0 0 0 0 0 0 0 0 0 0 0 0 0 0 0 0 0 1 6 14 14 16 17 22
49 10 0 0 0 0 0 0 0 0 0 0 0 0 0 0 0 0 0 0 0 0 0 0 0 0 0 0 0 0 0 0 0 0 0 0 3 15 20 28 41 41 30
59 1 0 0 0 0 0 0 0 0 5 0 0 0 0 0 0 0 0 0 0 0 0 0 0 0 0 0 0 0 0 0 0 0 0 1 6 16 26 27 40 52 41
53 0 0 0 0 0 0 1 5 26 17 0 0 0 0 0 0 0 0 0 0 0 0 0 0 0 0 0 0 0 0 0 0 0 0 0 4 12 26 36 42 51 49
33 19 1 0 0 0 6 23 19 0 0 0 0 0 0 0 0 0 0 0 0 0 0 0 0 3 3 2 1 0 0 0 0 0 0 0 6 22 39 48 51 50 53
11 8 8 7 5 3 10 4 19 10 1 0 0 0 0 0 0 0 0 0 0 0 0 1 0 0 3 1 0 0 0 0 0 0 0 0 1 9 16 20 21 21 25
30 36 52 11 8 7 4 5 0 0 0 0 0 0 0 0 0 0 0 0 0 0 0 0 0 0 0 0 0 0 0 0 0 0 0 0 0 0 0 12 21 29 37
55 94 22 30 12 1 6 2 0 1 0 0 0 0 0 0 0 0 0 0 0 0 0 0 0 0 0 0 0 0 0 0 0 0 0 0 0 0 0 29 33 42 45
71 65 40 9 5 9 7 2 2 0 0 0 0 0 0 0 0 0 0 0 0 0 0 0 0 0 0 0 0 0 0 0 0 0 0 0 0 0 0 0 0 0 0
53 53 61 19 13 1 2 0 1 0 0 0 0 0 0 0 0 0 0 0 0 0 0 0 0 0 0 0 0 0 0 0 0 0 0 0 0 0 0 0 0 0 0
37 17 26 27 32 10 1 0 0 0 0 0 0 0 0 0 0 0 0 0 0 0 0 0 0 0 0 0 0 0 0 0 0 0 0 0 0 0 0 0 0 0 0
41 6 10 16 3 5 1 1 0 0 0 0 0 0 0 0 0 0 0 0 0 0 0 0 0 0 0 0 0 0 0 0 0 0 0 0 0 0 0 0 0 0 0
6 2 0 1 3 0 0 0 0 0 0 0 0 0 1 1 0 0 0 0 0 0 0 0 0 0 0 0 0 0 0 0 0 0 0 0 0 0 0 0 0 0 0
24 5 3 1 0 0 0 0 0 0 0 0 0 0 2 4 0 1 0 0 0 0 0 0 0 0 0 0 0 0 0 0 0 0 0 0 0 0 0 0 0 0 0
3 0 12 0 0 0 0 0 0 0 0 0 0 2 7 9 6 1 0 0 0 0 0 0 0 0 0 0 0 0 0 0 0 0 0 0 0 0 0 0 0 0 0
8 0 0 0 0 0 0 0 0 0 0 0 0 4 6 9 7 3 0 0 0 0 0 0 0 0 0 0 0 0 0 0 0 0 0 0 0 0 0 0 0 0 0
0 0 0 0 0 0 0 0 0 0 0 0 0 5 3 8 7 2 0 0 0 0 0 0 0 0 0 0 0 0 0 0 0 0 0 0 0 0 0 0 0 0 0
0 0 0 0 0 0 0 0 0 0 0 0 0 1 1 6 6 0 0 0 0 0 0 0 0 0 0 0 0 0 0 0 0 0 0 0 0 0 0 0 0 0 0
0 0 0 0 0 0 0 0 0 0 0 0 0 0 0 6 18 0 0 0 0 0 0 0 0 0 0 0 0 0 0 0 0 0 0 0 0 0 0 0 0 0 0

GFSMA_con_mucape_045.txt.gz
CAPE
0 0 0 0 0 0 0 0 0 0 0 0 0 0 0 0 0 0 0 0 0 0 8 13 3 6 1 0 0 0 0 29 0 12 0 0 0 0 0 0 0 0 0
16 0 0 0 2 7 0 0 0 4 0 0 0 0 0 0 0 0 0 0 0 15 15 2 4 0 1 0 0 1 2 0 0 0 0 0 0 0 0 0 0 0 0
66 88 61 42 33 11 8 13 14 1 0 0 0 0 0 0 0 0 0 0 0 0 0 0 0 0 2 4 0 0 0 0 0 0 0 0 0 0 0 0 0 0 0
71 51 50 32 24 42 20 24 26 0 0 0 0 0 0 0 0 0 0 0 0 0 0 0 0 0 0 0 0 0 0 0 0 0 0 0 0 0 0 0 0 0 0
84 67 44 28 39 50 29 25 0 0 0 0 0 0 0 0 0 0 0 0 0 0 0 0 0 0 0 0 0 0 0 0 2 5 8 6 5 7 3 0 0 0 0
64 44 31 33 33 19 15 3 0 0 0 0 0 0 0 0 0 0 0 0 0 0 0 0 0 0 0 0 0 0 0 0 0 1 2 2 3 7 10 13 16 13 14
2 0 12 3 3 7 0 0 0 0 0 0 0 0 0 0 0 0 0 0 0 0 0 0 0 0 0 0 0 0 0 0 0 0 0 0 0 1 1 3 11 18 20
18 9 19 0 0 0 0 0 0 0 0 0 0 0 0 0 0 0 0 0 0 0 0 0 0 0 0 0 0 0 0 0 0 0 0 0 0 1 6 13 19 23 36
13 12 5 0 0 0 0 0 0 0 0 0 0 0 0 0 0 0 0 0 0 0 0 0 0 0 0 0 0 0 0 0 0 0 0 2 6 9 13 19 35 49 43
3 5 21 4 0 0 0 0 0 0 0 0 0 0 0 0 0 0 0 0 0 0 0 0 0 0 0 0 0 0 0 0 0 0 0 0 0 9 12 17 27 44 54
4 32 30 9 0 0 0 0 0 0 0 0 0 0 0 0 0 0 0 0 0 0 0 0 0 0 0 0 1 1 0 1 0 0 0 0 0 0 18 18 27 38 56
42 34 32 17 7 0 0 1 0 0 0 0 0 0 0 0 0 0 0 0 0 0 0 0 10 0 0 0 1 3 1 0 0 0 0 0 0 0 0 14 32 42 54
37 44 32 14 7 3 7 0 3 0 0 0 0 0 0 0 0 0 0 0 0 0 0 0 0 0 0 0 0 0 0 0 0 0 0 0 0 0 0 7 16 27 35
53 46 23 18 18 44 1 0 0 0 3 0 0 0 0 0 0 0 0 0 0 0 0 0 18 0 0 0 0 0 0 0 0 0 0 0 0 0 0 0 15 22 33
59 65 49 47 52 49 30 1 6 0 1 0 0 0 0 0 0 0 0 0 0 0 0 0 0 6 0 0 0 0 0 0 0 0 0 0 0 0 0 0 0 0 24
53 58 58 48 50 54 48 20 15 10 0 0 0 0 0 0 0 0 0 0 7 0 0 0 0 0 0 0 0 0 0 0 0 0 0 0 0 0 0 0 0 0 0
70 66 62 67 59 26 17 9 6 4 0 0 0 0 0 0 0 0 0 3 15 20 0 0 0 0 0 0 0 0 0 0 0 0 0 0 0 0 0 0 0 0 0
64 65 71 34 18 6 20 17 0 0 0 0 0 0 0 0 0 1 3 4 8 10 0 0 0 0 0 0 0 0 0 0 0 0 0 0 0 0 0 0 0 0 0
59 65 60 21 0 3 1 6 0 0 0 0 0 0 0 0 0 5 1 0 0 0 0 0 0 0 0 0 0 0 0 0 0 0 0 0 0 0 0 0 0 0 0
43 48 40 5 7 4 0 0 0 0 0 0 0 0 0 0 0 9 1 0 0 0 0 0 0 0 0 0 0 0 0 0 0 0 0 0 0 0 0 0 0 0 0
18 60 3 7 6 0 0 0 0 0 0 0 0 0 0 0 0 6 4 0 0 0 0 0 0 0 0 0 0 0 0 0 0 0 0 0 0 0 0 0 0 0 0
10 3 0 0 0 0 0 0 0 0 0 0 0 0 0 0 5 3 5 9 2 0 0 0 0 0 0 0 0 0 0 0 0 0 0 0 0 0 0 0 0 0 0
2 7 0 0 0 0 0 0 0 0 0 0 0 0 0 0 5 3 7 3 0 0 0 0 0 0 0 0 0 0 0 0 0 0 0 0 0 0 0 0 0 0 0
20 0 0 0 0 0 0 0 0 0 0 0 0 0 0 0 1 1 1 4 0 0 0 0 0 0 0 0 0 0 0 0 0 0 0 0 0 0 0 0 0 0 0
0 0 0 0 0 0 0 0 0 0 0 0 0 0 0 0 0 0 0 0 0 0 0 0 0 0 0 0 0 0 0 0 0 0 0 0 0 0 0 0 0 0 0
0 0 0 0 0 0 0 0 0 0 0 0 0 0 0 0 0 0 0 0 0 0 0 0 0 0 0 0 0 0 0 0 0 0 0 0 0 0 0 0 0 0 0

GFSMA_con_mucape_048.txt.gz
CAPE
44 24 53 9 0 0 0 0 0 0 0 0 0 0 0 0 0 0 0 0 0 0 39 15 5 2 0 0 0 0 0 0 0 0 0 0 0 0 0 0 0 0 0
82 39 65 26 16 7 0 0 0 0 0 0 0 0 0 0 0 0 0 0 0 0 9 2 2 1 0 0 0 0 0 0 0 0 0 0 0 0 0 0 0 0 0
193 68 46 9 0 12 3 0 0 2 0 0 0 0 0 0 0 0 0 0 0 1 0 0 0 0 0 1 0 0 0 0 0 0 0 0 0 0 0 0 0 0 0
394 179 57 46 44 30 4 2 7 7 0 0 0 0 0 0 0 0 0 0 0 0 0 0 0 0 0 0 0 0 0 0 0 0 0 0 0 0 0 0 0 0 0
152 89 49 43 33 12 11 11 9 0 0 0 0 0 0 0 0 0 0 0 0 0 0 0 0 0 0 0 0 0 0 0 0 3 4 6 10 6 9 7 0 0 0
67 55 50 26 5 12 8 7 6 0 0 0 0 0 0 0 0 0 0 0 0 0 0 0 0 0 0 0 0 0 0 0 1 4 5 6 6 7 7 7 12 10 12
44 48 5 0 3 0 0 2 0 0 0 0 0 0 0 0 0 0 0 0 0 0 0 0 0 0 0 0 0 0 0 0 0 4 6 7 7 4 5 11 23 34 42
0 1 1 0 8 0 0 0 0 0 0 0 0 0 0 0 0 0 0 0 0 0 0 0 0 0 0 0 0 0 0 0 0 0 3 3 4 9 17 25 34 45 45
82 14 8 3 7 3 0 0 0 0 0 0 0 0 0 0 0 0 0 0 0 0 0 0 0 0 0 0 0 0 0 0 0 0 0 9 18 26 29 30 32 40 43
26 49 6 2 3 6 1 0 0 0 0 0 0 0 0 0 0 0 0 0 0 0 0 0 0 0 0 0 0 0 0 0 0 0 0 4 14 24 28 28 26 34 39
96 94 6 3 9 34 17 0 0 0 0 1 0 0 0 0 0 0 0 0 0 0 0 0 0 0 0 0 0 1 0 0 0 0 0 0 0 0 0 3 30 43 60
83 49 48 25 25 38 33 13 0 2 0 0 0 0 0 0 0 0 0 0 0 0 0 0 0 2 14 8 0 0 0 0 0 0 0 0 0 0 0 0 8 34 40
152 266 263 84 28 37 16 6 2 11 1 1 0 0 0 0 0 0 0 0 0 0 0 0 6 12 10 17 18 0 0 0 0 0 0 0 0 0 0 9 14 19 29
175 212 142 66 45 32 14 8 27 4 0 0 0 1 0 0 0 0 0 0 0 0 0 0 7 12 22 12 2 0 0 0 0 0 0 0 0 0 0 0 8 17 29
188 83 69 40 50 32 28 39 23 8 1 0 12 1 0 0 0 0 0 0 0 0 0 0 0 8 15 28 13 0 0 0 0 0 0 0 0 0 0 0 0 13 29
84 83 62 32 30 52 56 15 44 19 1 2 1 0 0 0 0 0 0 0 0 0 0 4 6 16 23 9 6 0 0 0 0 0 0 0 0 0 0 0 0 0 0
156 122 71 19 28 73 39 12 4 1 0 0 0 0 0 0 0 0 0 0 32 28 0 4 23 24 17 5 7 0 0 0 0 0 0 0 0 0 0 0 0 0 0
112 120 91 60 72 38 21 49 0 0 0 0 0 0 0 0 0 0 37 27 27 51 47 4 28 27 32 18 8 0 0 0 0 0 0 0 0 0 0 0 0 0 0
65 59 44 54 47 16 26 28 11 0 0 0 0 0 0 0 0 45 49 43 50 48 38 41 3 32 29 24 0 0 0 0 0 0 0 0 0 0 0 0 0 0 0
50 31 30 67 36 17 8 3 3 0 0 0 0 0 0 0 22 39 50 53 39 39 41 49 37 22 30 23 0 0 0 0 0 0 0 0 0 0 0 0 0 0 0
4 19 15 16 6 3 1 0 0 0 0 0 0 0 0 2 0 11 25 60 48 31 37 45 31 20 0 33 0 0 0 0 0 0 0 0 0 0 7 5 0 0 0
3 1 3 1 5 1 0 0 0 0 0 0 0 0 3 2 0 0 0 0 4 46 52 50 27 0 22 26 0 0 0 0 0 2 0 0 0 0 7 15 0 0 0
4 7 0 0 0 0 0 0 0 0 0 0 0 6 3 0 0 2 3 0 3 4 7 6 0 16 27 0 0 0 0 0 0 0 0 0 0 0 14 12 13 0 0
0 5 0 0 0 0 0 0 0 0 0 1 5 5 2 0 5 12 3 15 15 24 4 1 0 3 0 0 0 0 0 0 0 0 0 0 0 0 9 21 0 7 0
0 0 0 0 0 0 0 0 0 0 5 5 4 2 1 2 0 0 0 3 13 33 13 0 0 0 0 0 0 0 0 0 0 0 0 0 0 0 0 0 27 15 0
0 0 0 0 0 0 0 0 0 0 0 4 3 2 0 0 0 0 0 0 21 18 37 13 0 0 0 0 0 0 0 0 0 0 0 0 0 0 0 0 0 0 0

GFSMA_con_mucape_051.txt.gz
CAPE
410 245 267 113 60 48 11 1 0 0 0 0 0 0 0 0 0 0 0 0 0 0 28 11 5 0 0 0 0 0 0 0 0 0 0 0 0 0 0 0 0 0 0
449 143 189 107 106 77 51 7 0 0 0 0 0 0 0 0 0 0 0 0 0 0 16 4 2 0 0 0 0 0 0 0 0 0 0 0 0 0 0 0 0 0 0
347 323 342 212 137 86 36 0 0 0 0 0 0 0 0 0 0 0 0 0 0 0 0 0 0 0 0 0 0 0 0 0 0 0 0 0 0 0 0 0 0 0 0
268 282 235 176 109 49 2 0 0 0 0 0 0 0 0 0 0 0 0 0 0 0 0 0 0 0 0 0 0 0 0 0 0 0 0 0 0 0 0 0 0 0 0
599 674 340 230 106 30 6 0 0 3 0 0 0 0 0 0 0 0 0 0 0 0 0 0 0 0 0 0 0 0 0 0 0 0 0 0 0 0 0 2 6 9 6
666 624 337 251 83 19 0 0 4 0 0 0 0 0 0 0 0 0 0 0 0 0 0 0 0 0 0 0 0 0 0 0 0 0 0 6 4 3 8 7 6 9 12
499 458 305 202 61 8 1 0 0 0 0 0 0 0 0 0 0 0 0 0 0 0 0 0 0 0 0 0 0 0 0 0 0 0 0 0 0 0 16 19 29 40 49
419 374 303 94 36 10 0 0 0 1 22 0 0 0 0 0 0 0 0 0 0 0 0 0 0 0 0 0 0 0 0 0 0 0 0 0 4 25 37 47 53 53 64
463 277 247 84 36 12 8 3 0 7 17 0 0 0 0 0 1 1 0 0 0 0 0 0 0 0 0 0 0 0 0 0 0 0 0 0 10 25 38 52 61 64 74
194 67 78 35 42 4 4 8 4 2 0 0 0 0 0 6 0 0 0 0 0 0 0 0 0 0 0 0 0 0 0 0 0 0 0 0 0 9 14 26 39 52 70
191 103 51 55 81 2 5 8 4 3 1 0 2 4 1 3 0 0 0 0 0 0 2 0 0 0 0 1 5 0 0 0 0 0 0 0 0 1 0 1 5 13 23
331 84 84 94 87 34 12 9 7 11 8 0 0 5 1 0 0 0 0 0 0 0 0 0 0 0 6 5 0 0 0 0 0 0 0 0 0 0 0 4 11 16 26
260 109 38 71 56 104 61 35 19 16 4 4 4 0 0 0 7 4 1 0 0 0 0 0 0 5 4 4 4 0 0 0 0 0 0 0 0 0 0 1 6 16 28
570 199 213 162 135 68 66 38 27 26 11 12 11 12 0 0 2 0 0 0 0 0 0 0 2 3 8 14 1 0 0 0 0 0 0 0 0 0 0 0 0 12 19
267 151 254 186 78 48 29 23 9 14 16 14 6 4 1 0 0 0 0 0 0 0 0 0 9 7 3 10 6 3 0 1 0 0 0 0 0 0 0 0 0 0 12
299 201 209 147 110 35 13 2 17 42 8 24 3 0 0 0 0 0 0 0 0 0 0 4 9 13 11 4 4 0 0 14 2 1 0 0 0 0 0 0 0 0 0
331 268 205 200 73 33 5 10 3 16 31 10 14 0 0 0 0 0 0 0 0 0 0 21 26 31 41 41 26 8 6 15 26 16 0 0 0 0 0 0 0 0 0
62 44 60 68 18 56 47 4 6 7 16 39 2 2 0 0 0 0 0 0 0 45 35 46 38 36 38 38 57 46 1 1 9 2 7 0 0 0 0 0 0 0 0
194 123 39 31 46 26 54 15 6 17 2 0 0 0 0 0 0 0 0 0 61 34 59 70 50 47 50 56 43 63 41 29 0 9 11 0 0 0 0 0 0 0 0
115 79 40 35 27 29 25 10 11 0 0 0 0 0 0 0 0 0 34 73 71 68 47 49 55 54 76 62 61 59 47 53 6 0 0 0 1 1 3 2 0 0 0
91 65 39 10 14 9 6 5 3 5 1 0 0 0 0 0 0 8 7 27 88 82 81 56 36 59 59 66 60 52 42 22 17 15 15 12 17 9 9 19 18 53 9
0 0 0 0 1 0 0 0 0 0 0 0 0 0 37 0 0 0 0 0 0 9 78 92 73 61 66 31 66 59 23 27 0 8 29 20 10 8 14 25 7 0 0
0 0 0 0 1 0 0 0 0 0 0 0 0 4 2 1 0 3 4 1 0 0 0 0 17 46 70 56 61 49 13 24 0 0 24 1 31 29 13 5 23 14 20
0 0 0 0 0 0 0 0 0 0 0 0 0 0 5 13 18 13 16 34 63 43 9 0 0 0 12 60 73 16 2 0 0 0 33 0 43 34 31 26 17 31 22
0 0 0 0 0 0 0 0 0 0 0 0 0 1 4 13 3 0 20 35 52 52 27 12 6 3 5 0 1 0 0 0 0 0 34 49 37 0 1 0 41 15 0
0 0 0 0 0 0 0 0 0 0 0 0 0 0 1 1 0 0 30 50 44 42 51 57 71 1 0 0 0 0 0 0 0 0 23 51 0 0 0 0 2 50 65

GFSMA_con_mucape_054.txt.gz
CAPE
268 115 103 7 0 0 0 1 0 0 0 0 0 0 0 0 0 0 0 0 0 0 18 14 10 1 0 0 0 0 0 0 0 0 0 0 0 0 0 0 0 0 0
360 296 335 177 75 64 13 1 0 0 0 0 0 0 0 0 0 0 0 0 0 0 28 21 18 10 0 0 0 0 0 0 0 0 0 0 0 0 0 0 0 0 0
329 302 319 279 141 107 70 8 0 0 0 0 0 0 0 0 0 0 0 0 0 0 0 0 0 0 0 0 0 0 0 0 0 0 0 0 0 0 0 0 0 0 0
315 317 263 330 263 126 37 5 0 2 0 0 0 0 0 0 0 0 0 0 0 0 0 0 0 0 0 0 0 0 0 0 0 0 0 0 0 0 0 0 0 0 0
372 344 388 302 275 55 20 0 0 0 0 0 0 0 0 0 0 0 0 0 0 0 0 0 0 0 0 0 0 0 0 0 0 0 0 0 0 0 0 0 0 0 0
516 425 345 355 93 35 12 0 0 0 0 0 0 0 0 0 0 0 0 0 0 0 0 0 0 0 0 0 0 0 0 0 0 0 0 8 13 13 12 13 13 16 21
450 407 417 263 97 44 9 1 0 0 0 0 0 0 0 0 0 0 0 0 0 0 0 0 0 0 0 0 0 0 0 0 0 0 0 10 14 24 35 41 45 44 49
496 474 393 163 112 64 18 0 0 0 0 0 0 8 0 0 0 0 0 0 0 0 0 0 0 0 0 0 0 0 0 0 0 0 0 2 6 19 27 36 41 42 37
316 361 318 198 86 47 1 0 0 0 0 4 0 0 0 0 0 0 1 0 0 0 0 0 0 0 0 0 0 0 0 0 0 0 0 0 0 0 10 30 37 43 52
382 334 258 224 140 19 1 6 0 3 14 52 14 5 0 0 0 0 0 0 0 0 0 0 0 0 0 0 0 0 0 0 0 0 0 0 0 0 21 21 18 16 24
437 349 201 103 33 18 20 39 2 5 7 41 12 5 1 1 4 4 0 0 0 0 0 0 0 0 0 0 0 0 0 0 0 0 0 0 0 0 0 0 4 10 16
318 180 115 82 44 37 50 59 46 39 50 7 10 15 14 0 3 3 0 0 0 0 0 0 0 0 0 0 0 0 0 0 0 0 0 0 0 0 0 0 4 9 13
376 287 166 56 37 56 62 68 48 32 61 13 5 1 1 5 3 4 0 0 0 0 0 0 0 0 0 0 0 0 0 0 0 0 0 0 0 0 0 0 0 7 12
408 272 180 152 124 96 131 64 15 44 48 19 2 0 5 14 3 1 0 0 0 0 0 0 0 0 0 0 0 0 0 0 0 0 0 0 0 0 0 0 0 0 8
483 423 259 255 117 126 147 143 44 36 36 17 27 7 2 4 0 0 0 0 0 0 0 0 0 0 0 0 0 0 0 0 0 0 0 0 0 0 0 0 0 0 0
487 398 348 214 166 164 232 73 63 30 22 1 18 24 1 1 0 0 0 0 0 0 0 0 0 0 0 0 0 0 0 0 0 0 0 0 0 0 0 0 0 0 0
545 312 287 210 126 183 95 88 54 24 26 0 2 3 13 1 0 0 0 0 0 0 0 0 0 0 0 0 1 2 1 0 0 0 0 0 0 0 0 0 0 0 0
581 487 147 19 69 120 61 54 27 16 14 5 19 7 8 0 0 0 0 0 0 0 0 0 0 0 0 0 7 0 0 0 0 0 0 0 0 0 0 0 0 0 0
521 477 110 38 112 75 49 48 26 17 14 13 13 11 4 0 0 0 0 0 0 0 0 8 0 0 0 0 0 0 0 0 0 0 0 0 7 0 1 2 0 1 0
474 341 155 170 34 34 12 7 0 10 7 11 5 9 1 0 0 0 0 0 5 7 10 25 18 3 2 1 3 0 0 0 0 0 0 0 0 0 34 31 11 12 22
206 175 34 4 3 2 0 0 6 3 5 0 0 0 0 0 0 3 7 9 6 11 10 7 12 17 9 1 9 2 10 1 1 0 0 0 0 0 0 2 16 24 17
0 0 0 0 0 0 0 0 2 0 0 0 0 0 0 1 3 9 13 14 3 0 0 0 0 0 0 16 12 17 4 5 1 2 0 0 0 0 0 0 7 15 4
0 0 0 0 0 0 0 0 0 0 0 0 0 0 0 0 0 0 0 0 0 0 0 2 5 0 0 2 26 25 6 0 0 0 0 0 0 0 0 1 6 15 17
0 0 0 0 0 0 0 0 0 0 0 0 0 0 0 0 1 2 1 0 0 0 2 16 31 18 21 12 12 11 5 4 0 0 0 0 0 0 0 0 4 11 23
0 0 0 0 0 0 0 0 0 0 0 0 0 0 0 0 0 0 0 0 0 0 0 12 33 26 9 6 6 7 5 0 0 0 0 0 0 0 0 0 0 5 19
0 0 0 0 0 0 0 0 0 0 0 0 0 0 0 0 0 0 0 0 0 0 2 10 14 11 11 0 1 2 2 0 0 0 0 0 0 0 0 0 0 0 0

GFSMA_con_mucape_057.txt.gz
CAPE
24 27 30 1 2 0 0 0 0 0 0 0 0 0 0 0 0 0 0 0 0 8 8 4 3 0 0 0 0 0 0 0 0 0 0 0 0 0 0 0 0 0 0
47 57 52 9 2 0 0 0 0 0 0 0 0 0 0 0 0 0 0 0 0 0 4 6 5 4 1 0 0 0 0 0 0 0 0 0 0 0 0 0 0 0 0
206 126 146 103 37 23 0 0 0 0 0 0 0 0 0 0 0 0 0 0 0 0 0 4 3 0 0 0 0 0 0 0 0 0 0 0 0 0 0 0 0 0 0
216 174 198 160 76 22 6 0 0 0 0 0 0 0 0 0 0 0 0 0 0 0 0 0 0 0 0 0 0 0 0 0 0 0 0 0 0 0 0 0 0 0 0
211 85 152 113 208 86 13 0 0 0 1 0 0 0 0 0 0 0 0 0 0 0 0 0 0 0 0 0 0 0 0 0 0 0 0 0 0 1 0 0 0 0 13
176 170 100 224 132 67 19 14 5 0 0 0 0 0 0 0 0 0 0 0 0 0 0 0 0 0 0 0 0 0 0 0 0 0 0 0 6 11 9 14 15 21 24
237 293 249 193 135 37 23 3 0 0 0 0 0 0 0 0 0 0 0 0 0 0 0 0 0 0 0 0 0 0 0 0 0 0 0 0 0 3 6 14 24 26 30
213 293 272 220 188 59 46 0 0 0 0 0 0 6 2 0 0 0 0 0 1 1 0 0 0 0 0 0 0 0 0 0 0 0 0 0 0 0 0 0 26 31 32
208 264 284 262 181 155 79 0 0 0 0 1 4 5 3 0 0 0 0 2 7 2 0 0 0 0 0 0 0 0 0 0 0 0 0 0 0 0 0 0 8 22 20
244 272 377 263 204 141 76 14 0 4 1 2 0 1 4 0 0 0 0 0 7 4 0 0 0 0 0 0 0 0 0 0 0 0 0 0 0 0 0 0 0 0 0
204 251 287 322 235 159 75 35 28 29 37 36 7 1 8 0 0 0 0 0 2 0 3 0 0 0 0 0 0 0 0 0 0 0 0 0 0 0 0 0 0 0 6
276 267 288 298 225 178 135 73 44 54 51 45 38 38 35 12 3 0 0 3 6 0 0 0 0 0 1 0 0 0 0 0 0 0 0 0 0 0 0 0 0 0 8
330 343 299 250 251 189 109 65 72 77 33 12 14 26 21 0 0 0 0 2 0 1 0 0 0 0 0 0 0 0 0 0 0 0 0 0 0 0 0 0 0 0 1
257 374 331 232 138 127 69 88 100 79 64 13 12 6 22 18 0 0 0 0 4 2 0 0 0 0 0 0 0 0 0 0 0 0 0 0 0 0 0 0 0 0 0
273 324 271 251 150 123 97 89 77 76 45 22 34 1 14 0 0 0 9 7 3 0 0 0 0 0 0 0 0 0 0 0 0 0 0 0 0 0 0 0 0 0 0
288 362 285 230 214 195 204 99 90 90 71 4 4 4 4 5 2 2 6 10 0 0 0 0 0 0 0 0 0 0 0 0 0 0 0 0 0 0 0 0 0 0 0
640 352 253 245 238 222 141 147 91 70 58 46 31 32 8 15 2 6 1 2 0 0 0 0 0 0 0 0 0 0 0 0 0 0 0 0 0 0 0 0 0 0 0
883 627 448 341 153 24 22 76 74 75 57 42 0 10 8 22 26 16 1 0 0 0 0 0 0 0 0 0 3 6 0 0 0 0 0 0 0 0 0 0 0 0 0
737 473 330 175 267 33 0 11 40 45 43 24 18 18 3 0 9 0 0 0 0 16 3 4 0 0 0 10 16 21 16 17 12 10 2 0 0 0 0 0 0 0 0
243 173 162 174 181 180 39 14 34 19 17 12 2 13 14 3 0 0 0 5 2 1 11 18 20 17 11 6 26 25 19 11 15 6 2 0 3 1 0 0 1 3 14
209 160 158 82 5 6 14 6 3 12 0 3 3 0 0 0 0 1 0 0 11 18 25 15 11 4 0 0 2 10 24 14 10 3 0 0 8 3 0 0 0 6 37
107 24 10 0 0 3 0 0 0 1 0 0 0 0 0 0 0 8 18 24 32 26 8 9 0 0 0 1 2 13 25 21 25 5 15 0 0 0 0 0 0 0 11
0 0 0 0 0 0 0 0 0 0 0 0 0 0 0 0 0 0 0 0 0 0 1 7 1 0 3 4 18 19 15 23 14 12 1 0 0 0 0 0 0 9 15
0 0 0 0 0 0 0 0 0 0 0 0 0 0 0 0 0 0 0 0 0 0 0 0 1 3 1 7 21 10 8 18 6 1 2 0 0 0 0 0 0 21 3
0 0 0 0 0 0 0 0 0 0 0 0 0 0 0 0 0 0 0 0 0 0 0 0 0 0 0 6 35 18 8 19 7 4 2 0 0 0 0 0 0 0 0
0 0 0 0 0 0 0 0 0 0 0 0 0 0 0 0 0 0 0 0 0 0 0 0 0 0 0 0 2 7 18 11 12 0 0 0 0 0 0 0 0 0 0

GFSMA_con_mucape_060.txt.gz
CAPE
1 8 2 0 2 0 0 0 0 0 0 0 0 0 0 0 0 0 0 0 0 5 9 10 7 0 0 0 0 0 0 0 0 0 0 0 0 0 0 0 0 0 0
8 2 0 1 0 2 1 0 0 0 0 0 0 0 0 0 0 0 0 0 0 5 9 5 3 0 0 0 0 0 0 0 0 0 0 0 0 0 0 0 0 0 0
7 0 0 0 0 3 1 0 0 0 0 0 0 0 0 0 0 0 0 0 0 0 0 4 0 0 0 0 0 0 0 0 0 0 0 0 0 0 0 0 0 0 0
37 19 30 67 33 30 11 3 0 0 0 0 0 0 0 0 0 0 0 0 0 0 0 0 0 0 0 0 0 0 0 0 0 0 0 0 0 0 0 0 0 0 0
134 100 69 99 92 67 16 15 4 0 0 0 0 0 0 0 0 0 0 0 0 0 0 0 0 0 0 0 0 0 0 0 0 0 0 0 0 1 3 2 0 0 5
166 154 93 100 121 93 23 9 0 0 0 0 0 0 0 0 0 0 0 0 0 0 0 0 0 0 0 0 0 0 0 0 0 0 0 0 0 0 1 2 6 12 16
105 143 108 73 127 114 75 37 18 12 5 0 0 0 0 0 0 0 0 0 0 0 0 0 0 0 0 0 0 0 0 0 0 0 0 0 0 0 0 0 0 5 16
105 99 98 135 132 157 85 62 29 25 9 0 0 0 0 0 0 0 0 0 0 0 0 0 0 0 0 0 0 0 0 0 0 0 0 0 0 0 0 0 0 0 13
15 68 104 157 148 136 128 58 39 29 5 0 3 2 3 0 0 0 0 0 3 2 2 0 2 0 0 0 0 0 0 0 0 0 0 0 0 0 0 0 0 0 0
5 12 63 130 184 120 128 81 57 58 13 16 39 17 18 7 50 0 7 7 5 0 0 3 10 1 0 0 0 0 0 0 0 0 0 0 0 0 0 0 0 0 0
0 69 97 102 103 131 120 143 95 53 34 48 39 32 4 22 12 2 1 1 0 0 5 8 8 3 0 0 0 0 0 0 0 0 0 0 0 0 0 0 0 0 7
0 43 110 170 155 139 165 162 139 44 44 46 51 49 17 5 22 20 14 6 1 4 0 5 4 5 0 0 3 1 0 0 0 0 0 0 0 0 0 0 0 0 0
0 27 64 104 124 128 208 228 166 67 63 63 67 26 19 7 15 4 0 0 0 0 0 7 2 2 0 4 2 7 3 0 0 0 0 0 0 0 0 0 0 0 0
28 58 91 127 194 121 214 191 180 107 78 99 46 61 13 15 8 3 1 0 0 0 0 0 1 0 0 0 0 1 0 0 0 0 0 0 0 0 0 0 0 0 0
37 114 137 162 203 132 81 145 137 95 94 121 125 20 18 14 9 15 21 15 13 0 0 0 0 0 0 0 0 0 0 0 0 0 1 0 0 0 0 0 0 0 0
147 200 221 215 278 208 198 163 89 107 120 60 49 27 12 13 15 11 3 5 9 1 0 0 0 0 0 0 0 0 0 0 0 3 4 0 0 0 0 0 0 0 0
122 187 170 218 236 200 150 121 174 122 112 43 35 24 3 7 0 12 5 1 6 1 0 0 0 0 0 0 0 0 0 0 1 6 7 0 0 0 1 1 0 0 0
230 234 351 259 245 259 212 248 103 121 36 19 24 11 2 8 1 11 14 3 0 0 0 0 0 0 0 0 8 6 1 5 9 12 22 8 7 6 0 4 0 0 0
33 215 490 369 606 194 64 87 11 16 49 20 34 26 3 3 12 3 3 8 1 0 0 0 0 14 7 1 2 3 0 2 9 8 19 11 5 4 2 6 0 0 0
221 499 395 412 250 132 98 48 14 5 17 13 17 9 13 11 1 11 3 0 0 0 0 0 0 0 0 0 3 3 0 0 0 10 17 5 17 13 8 2 0 1 11
400 742 226 116 184 151 42 55 5 2 13 7 6 0 0 2 1 0 0 0 0 0 0 0 0 0 0 0 0 0 3 3 0 5 19 8 10 0 1 8 1 57 52
591 113 169 87 151 86 13 2 6 3 0 0 3 0 0 0 0 0 0 0 0 0 0 0 0 0 0 0 0 0 0 0 0 0 2 3 34 7 2 0 1 4 0
117 83 78 29 6 8 4 2 0 0 0 0 0 0 0 0 0 0 0 0 0 0 0 0 0 0 0 0 0 0 0 0 0 5 14 3 9 3 0 0 0 0 0
41 2 3 0 0 0 0 0 0 0 0 0 0 0 0 0 0 0 0 0 0 0 0 0 0 0 0 0 0 0 0 0 0 0 2 27 5 1 4 0 0 0 0
0 0 0 0 0 0 0 0 0 0 0 0 0 0 0 0 0 0 0 0 0 0 0 0 0 0 0 0 0 0 0 0 0 0 5 7 17 3 3 0 0 0 0
0 0 0 0 0 0 0 0 0 0 0 0 0 0 0 0 0 0 0 0 0 0 0 0 0 0 0 0 0 0 0 0 0 0 0 21 9 8 2 0 0 0 0

GFSMA_con_mucape_063.txt.gz
CAPE
0 0 0 0 3 0 0 0 0 0 0 0 0 0 0 0 0 0 0 0 2 3 7 9 4 0 1 0 0 0 0 0 0 0 0 0 0 0 0 0 0 0 0
0 0 1 4 5 2 2 0 0 0 0 0 0 0 0 0 0 0 0 0 0 4 5 6 7 0 0 0 0 0 0 0 0 0 0 0 0 0 0 0 0 0 0
0 1 4 2 0 6 5 0 0 0 0 0 0 0 0 0 0 0 0 0 0 0 13 20 2 0 0 0 0 0 0 0 0 0 0 0 0 0 0 0 0 0 0
0 0 1 0 4 2 1 0 0 0 0 0 0 0 0 0 0 0 0 0 0 0 2 16 12 0 0 0 0 0 0 0 0 0 0 0 0 0 0 0 0 0 0
14 1 0 7 0 14 24 16 10 0 0 0 0 0 0 0 0 0 0 0 0 0 0 0 0 0 0 0 0 0 0 0 0 0 0 0 0 0 0 0 0 0 0
71 34 44 90 75 57 49 46 42 24 4 6 0 0 0 0 0 0 0 0 0 0 0 0 0 0 0 0 0 0 0 0 0 0 0 0 0 0 0 0 0 0 0
140 144 147 136 145 131 134 82 48 44 20 15 13 0 0 0 0 0 0 0 0 0 0 0 0 0 0 0 0 0 0 0 0 0 0 0 0 0 0 0 0 0 0
91 131 131 113 81 91 103 125 91 54 40 31 22 3 0 0 0 0 0 0 0 0 0 0 0 0 0 0 0 0 0 0 0 0 0 0 0 0 0 0 0 0 0
44 56 55 70 42 51 93 123 59 66 59 43 31 18 0 0 0 0 0 0 3 4 6 4 3 1 0 4 5 3 0 0 0 0 0 0 0 0 0 0 0 0 0
7 0 30 77 56 42 65 90 90 47 64 65 54 29 19 13 22 3 0 4 1 6 3 1 1 4 4 6 19 7 0 0 0 0 0 0 0 0 0 0 0 0 0
0 0 0 10 10 13 67 118 117 70 74 61 68 29 26 22 1 3 1 0 5 10 5 3 0 7 12 15 15 6 0 0 0 0 0 0 0 0 0 0 0 0 0
0 0 0 19 34 26 63 134 112 71 58 50 65 38 34 37 21 26 7 6 0 2 17 1 0 1 5 10 12 5 6 9 8 5 3 0 0 0 0 0 0 0 0
0 0 0 34 45 72 132 141 123 74 75 65 80 55 57 57 39 37 15 3 10 1 6 4 9 8 1 6 12 9 9 4 8 12 6 1 18 6 2 0 0 0 0
0 0 0 4 22 38 46 113 145 68 81 125 131 75 72 67 21 27 14 11 0 0 2 0 22 8 0 5 0 0 0 5 4 3 0 0 37 43 33 11 1 0 0
4 3 0 0 0 11 24 42 141 73 2 22 137 72 83 81 33 27 5 2 13 3 6 5 1 6 0 0 0 0 0 0 0 0 0 0 28 52 65 45 20 0 0
29 58 69 41 16 36 43 103 129 58 84 131 71 82 68 38 31 14 5 4 6 0 1 5 0 0 0 0 0 0 0 0 0 0 0 0 0 17 39 38 55 40 4
109 128 140 122 144 97 112 123 113 231 299 84 57 78 52 36 2 8 2 0 1 0 0 1 0 0 0 0 0 0 0 0 0 0 1 5 5 11 8 16 9 46 53
114 143 34 74 91 97 115 103 126 198 66 102 91 48 45 14 0 0 6 2 4 18 6 1 0 0 0 0 0 0 0 0 0 0 0 0 4 5 8 14 13 6 5
97 97 0 0 141 144 196 110 122 136 182 82 27 27 23 3 22 1 1 5 6 4 1 2 0 0 0 0 0 0 0 0 0 0 0 0 0 0 0 0 4 5 3
155 146 12 50 104 459 172 111 69 27 71 13 15 1 4 6 8 2 5 8 3 2 0 0 0 0 0 0 0 0 0 0 0 0 0 0 0 0 0 5 10 3 11
208 217 156 67 149 387 258 131 63 58 8 11 7 2 6 8 8 6 1 0 0 0 0 0 0 0 0 0 0 0 0 0 0 0 0 0 0 0 3 13 18 8 9
301 209 201 138 514 309 187 99 21 45 7 7 3 1 4 2 3 4 0 0 0 0 0 0 0 0 0 0 0 0 0 0 0 0 0 0 3 2 8 12 7 6 2
345 245 228 341 343 253 76 37 4 4 8 6 6 5 1 1 1 0 0 0 0 0 0 0 0 0 0 0 0 0 0 0 0 0 0 0 0 0 2 10 19 11 0
169 190 223 249 77 79 19 1 4 4 5 3 1 1 0 0 0 0 0 0 0 0 0 0 0 0 0 0 0 0 0 0 0 0 0 0 0 0 0 0 4 1 0
223 322 114 73 32 3 3 2 0 0 0 0 0 0 0 0 0 0 0 0 0 0 0 0 0 0 0 0 0 0 0 0 0 0 0 0 0 0 2 0 0 2 1
143 72 55 2 2 2 0 0 0 0 0 0 0 0 0 0 0 0 0 0 0 0 0 0 0 0 0 0 0 0 0 0 0 0 0 0 0 0 0 1 0 0 2

GFSMA_con_mucape_066.txt.gz
CAPE
0 0 0 0 0 0 0 0 0 0 0 0 0 0 0 0 0 0 0 8 16 12 8 5 9 9 0 0 0 0 0 0 0 0 0 0 0 0 0 0 0 0 0
0 0 0 0 0 0 0 0 0 0 0 0 0 0 0 0 0 0 0 0 4 19 13 6 4 0 0 0 0 0 0 0 0 0 0 0 0 0 0 0 0 0 0
0 0 9 9 4 3 7 3 4 2 0 0 0 0 0 0 0 0 0 0 0 0 0 14 7 0 0 0 0 0 0 0 0 0 0 0 0 0 0 0 0 0 0
7 8 17 15 12 10 14 18 19 10 2 0 0 0 0 0 0 0 0 0 0 0 0 11 13 4 0 0 0 0 0 0 0 0 0 0 0 0 0 0 0 0 0
18 19 17 5 5 1 11 28 57 16 1 1 0 0 0 0 0 0 0 0 0 0 0 0 9 12 19 4 0 0 0 0 0 0 0 0 0 0 0 0 0 0 0
5 5 2 1 0 8 25 69 80 52 14 15 8 3 0 0 0 0 0 0 0 0 0 0 0 0 0 0 0 0 0 0 0 0 0 0 0 0 0 0 0 0 0
36 21 3 0 35 56 99 103 90 75 71 41 8 3 0 0 0 0 0 0 0 0 0 0 0 0 0 0 0 0 0 0 0 0 0 0 0 0 0 0 0 0 0
98 80 41 62 133 160 138 162 144 113 70 52 7 2 0 0 0 0 0 0 0 0 1 3 8 5 3 1 0 5 0 6 2 0 0 0 0 0 0 0 0 0 0
105 111 132 142 140 145 182 169 151 142 114 56 45 31 12 1 0 0 9 8 2 3 22 7 14 5 14 4 0 2 3 6 5 5 0 0 0 0 0 0 0 0 0
58 51 79 101 120 115 115 96 102 114 83 52 35 43 34 19 26 2 0 6 13 9 16 12 1 6 3 0 2 0 3 1 8 8 0 0 0 0 0 0 0 0 0
1 3 38 21 33 75 96 86 87 107 90 80 66 41 48 35 37 33 14 1 1 2 31 13 13 22 6 1 3 2 3 16 20 10 11 9 7 0 0 0 0 0 0
0 0 0 0 8 6 17 23 21 59 102 117 72 58 47 32 43 47 36 35 7 3 1 13 15 12 16 18 14 15 11 21 13 22 13 14 23 12 9 0 0 0 1
0 0 0 0 0 8 20 6 38 35 96 110 92 74 40 48 52 67 55 20 0 2 0 0 16 31 4 4 7 8 6 14 12 10 10 11 89 98 89 83 83 61 41
0 0 0 0 0 9 12 9 29 37 47 51 3 0 5 51 68 68 57 23 16 3 0 1 11 7 23 22 6 1 2 0 1 6 9 9 9 60 90 102 90 87 74
0 0 0 0 0 0 0 3 16 24 24 54 22 1 28 36 121 65 43 24 6 5 0 3 2 5 1 12 6 0 2 0 0 0 0 5 3 36 65 85 91 92 80
0 0 0 0 0 0 0 9 10 18 40 39 55 29 40 75 66 31 45 13 8 5 0 0 0 0 2 1 0 0 0 0 0 0 0 0 2 1 18 50 68 67 93
2 1 0 2 7 14 80 65 42 55 27 34 69 93 111 89 66 40 25 4 12 1 2 4 2 2 11 0 0 0 0 0 0 0 0 0 0 1 1 5 6 18 16
0 18 6 0 36 58 72 106 107 105 43 66 117 125 91 70 59 24 17 0 4 1 4 0 0 3 1 0 0 0 0 0 0 0 0 0 0 0 0 0 0 0 0
0 2 1 11 59 78 30 24 81 141 159 145 50 43 111 43 7 14 7 6 2 18 11 1 2 0 0 0 0 0 0 0 0 0 0 0 0 0 0 0 0 0 0
7 12 15 63 72 61 14 2 64 262 190 89 64 35 34 19 3 6 1 5 6 2 5 4 0 0 0 0 0 0 0 0 0 0 0 0 0 0 0 0 0 0 4
6 14 105 103 91 115 2 31 194 294 188 81 29 46 9 26 35 5 1 7 2 8 0 0 0 0 0 0 0 0 0 0 0 0 0 0 0 0 0 0 0 0 4
40 84 87 76 164 211 171 50 148 213 141 116 40 19 15 7 1 5 3 3 0 1 0 0 0 0 0 0 0 0 0 0 0 0 0 0 0 0 0 0 0 0 0
126 148 352 255 685 202 197 135 197 167 92 42 62 49 6 6 4 6 4 0 1 0 0 0 0 0 0 0 0 0 0 0 0 0 0 0 0 0 0 0 0 6 5
426 398 236 220 236 121 195 167 127 66 70 39 7 4 6 9 4 4 2 0 0 0 0 0 0 0 0 0 0 0 0 0 0 0 0 0 0 0 0 0 0 4 25
289 169 120 161 226 125 117 97 65 25 6 4 4 4 5 1 0 0 0 0 0 0 0 0 0 0 0 0 0 0 0 0 0 0 0 0 0 0 0 0 0 0 0
244 47 55 88 63 67 79 51 14 0 3 5 1 0 0 0 0 0 0 0 0 0 0 0 0 0 0 0 0 0 0 0 0 0 0 0 0 0 0 0 0 0 0

GFSMA_con_mucape_069.txt.gz
CAPE
0 0 0 0 0 0 0 0 0 0 0 0 0 0 0 0 0 2 6 12 16 8 6 10 9 2 0 0 0 0 0 0 0 0 0 0 0 0 0 0 0 0 0
27 0 1 0 0 0 0 0 0 0 0 0 0 0 0 0 0 0 4 9 8 16 10 7 10 13 0 0 0 0 0 0 0 0 0 0 0 0 0 0 0 0 0
32 3 0 0 0 0 0 0 0 0 0 0 0 0 0 0 0 0 0 4 5 7 17 17 4 5 0 0 0 0 0 0 0 0 0 0 0 0 0 0 0 0 0
21 5 0 0 0 0 2 2 0 1 1 0 0 0 0 0 0 0 0 0 0 1 2 11 11 2 0 0 0 0 0 0 0 0 0 0 0 0 0 0 0 0 0
29 19 1 0 0 9 8 13 10 15 13 3 2 0 0 0 0 0 0 0 0 0 0 0 5 7 9 2 0 0 0 0 0 0 0 0 0 0 0 0 0 0 0
25 34 28 11 13 25 20 27 59 45 36 37 25 10 6 1 0 0 0 0 0 0 0 0 5 6 4 31 4 0 0 0 0 0 0 0 0 0 0 0 0 0 0
41 31 17 32 39 19 33 37 70 85 82 68 56 33 1 8 0 0 0 0 0 0 0 0 0 4 3 0 10 0 0 0 0 0 0 0 0 0 0 0 0 0 0
50 52 33 57 32 76 78 35 74 103 102 86 93 88 50 16 15 8 0 3 3 1 1 0 7 2 0 12 17 3 5 0 0 0 0 0 0 0 0 0 0 0 0
63 71 67 117 102 123 130 100 61 79 151 123 118 91 67 18 6 5 1 6 14 11 7 2 2 16 4 0 9 11 4 0 0 0 0 0 2 0 0 0 0 0 0
72 115 132 135 121 176 184 101 115 155 162 153 119 77 53 34 37 0 0 4 28 27 1 1 8 11 11 4 4 9 5 1 0 0 0 0 4 0 0 0 0 0 0
50 75 127 103 136 101 120 198 116 87 113 129 114 97 35 4 4 9 2 2 13 21 10 0 4 0 9 16 3 1 8 3 0 1 0 0 1 6 4 0 0 0 0
33 19 61 145 204 176 206 202 146 110 81 42 59 67 57 38 8 11 15 32 29 39 35 1 5 0 10 7 0 7 11 3 9 1 2 0 12 7 11 55 74 81 63
7 17 77 78 89 60 96 123 128 110 101 87 48 36 47 54 30 15 25 12 32 39 25 11 8 0 0 0 1 3 1 15 5 5 8 4 7 9 42 8 7 80 86
5 0 10 18 30 36 55 92 122 120 115 123 69 24 13 32 0 38 43 55 29 37 8 2 9 0 0 0 9 17 5 10 6 3 7 0 0 0 13 55 102 111 80
0 0 0 1 6 30 51 86 111 104 90 129 98 10 10 12 1 30 46 74 40 26 5 8 1 1 0 2 0 3 3 1 0 0 0 0 0 1 1 3 41 74 93
0 0 0 0 0 0 2 27 62 79 77 129 33 27 10 1 31 32 55 78 51 3 19 5 8 2 3 10 3 5 12 0 0 0 0 0 0 0 0 0 0 11 49
2 0 0 0 0 0 0 6 27 43 32 85 52 29 28 27 54 75 112 74 60 33 20 8 0 2 3 0 3 12 1 0 0 0 0 0 0 0 0 0 0 0 1
0 0 0 0 0 0 0 2 0 54 50 82 55 43 4 66 94 141 120 43 20 23 12 1 2 0 3 0 7 2 0 0 0 0 0 0 0 0 0 0 0 0 0
0 2 1 1 5 39 23 3 14 12 55 57 59 106 130 64 134 66 63 14 26 13 16 0 4 5 1 4 2 0 0 0 0 0 0 0 0 0 0 0 0 0 0
0 0 0 5 1 1 3 7 19 42 58 41 34 105 162 126 112 94 28 34 7 3 0 0 3 6 0 2 0 0 0 0 0 0 0 0 0 0 0 0 0 0 0
0 0 0 21 3 0 40 75 41 80 15 6 102 129 103 27 21 47 20 12 3 6 3 6 2 0 0 0 0 0 0 0 0 0 0 0 0 0 0 0 0 0 0
9 7 12 3 0 31 180 55 93 95 19 37 74 150 15 28 22 23 1 0 4 4 2 0 0 0 0 0 0 0 0 0 0 0 0 0 0 0 0 0 0 0 0
104 54 14 3 17 22 68 59 153 140 60 36 62 59 53 57 31 13 5 1 2 3 1 0 0 0 0 0 0 0 0 0 0 0 0 0 0 0 0 0 0 0 0
149 155 121 67 48 78 120 158 170 101 114 150 109 74 28 32 9 6 2 3 5 3 2 0 0 0 0 0 0 0 0 0 0 0 0 0 0 0 0 0 0 0 0
106 63 192 210 261 176 164 117 71 49 124 112 85 43 6 18 8 5 8 0 0 0 0 0 0 0 0 0 0 0 0 0 0 0 0 0 0 0 0 0 0 0 0
121 76 165 184 193 101 98 59 65 73 85 79 68 0 8 2 2 2 0 0 0 0 0 0 0 0 0 0 0 0 0 0 0 0 0 0 0 0 0 0 0 0 21

GFSMA_con_mucape_072.txt.gz
CAPE
75 47 194 219 134 158 93 12 0 0 0 0 0 0 0 1 0 2 5 13 22 22 13 12 10 9 0 0 0 0 0 0 0 0 0 0 0 0 0 0 0 0 0
83 12 66 110 179 222 137 14 0 0 0 0 0 0 0 0 0 3 2 5 6 14 26 16 13 12 0 0 0 0 0 0 0 0 0 0 0 0 0 0 0 0 0
55 66 55 40 15 54 23 3 0 0 0 0 0 0 0 0 0 0 5 6 7 5 10 32 25 14 7 0 0 0 0 0 0 0 0 0 0 0 0 0 0 0 0
108 57 31 15 6 23 2 0 0 0 0 0 0 0 0 0 0 0 0 3 13 10 9 16 19 20 5 7 0 0 0 0 0 0 0 0 0 0 0 0 0 0 0
105 52 40 24 40 1 0 1 0 0 0 0 0 0 0 0 0 0 0 0 1 3 17 1 13 15 15 1 0 0 0 0 0 0 0 0 0 0 0 0 0 0 0
76 35 14 77 83 28 24 8 7 13 6 5 9 4 0 0 0 0 0 0 0 0 1 10 8 7 3 19 0 0 0 0 0 0 0 0 0 0 0 0 0 0 0
50 47 34 78 119 101 148 114 73 48 42 54 46 45 33 17 5 0 0 0 0 0 0 0 3 21 0 0 43 0 0 3 0 0 0 0 0 0 0 0 0 0 0
44 58 63 112 153 154 218 182 139 108 162 79 99 182 134 55 41 24 1 0 0 0 0 1 2 0 0 53 8 47 10 4 0 2 0 0 0 0 0 0 0 0 0
75 41 21 18 84 168 166 196 176 212 269 135 131 228 252 226 211 58 0 0 0 0 1 5 6 9 14 1 3 0 0 0 0 3 2 3 0 0 0 0 0 0 0
59 56 15 25 73 183 187 282 239 286 321 339 140 144 218 203 181 127 10 2 1 5 10 27 1 0 1 1 1 0 2 3 5 4 1 0 0 0 46 26 0 0 0
60 57 57 69 87 131 253 322 280 310 345 372 345 224 115 85 37 111 144 72 4 1 16 30 9 2 4 1 0 0 0 0 4 2 9 0 0 0 32 53 70 4 2
0 48 56 116 155 189 275 307 334 379 387 322 268 338 299 232 169 125 138 137 94 19 21 17 32 19 3 4 0 0 8 1 1 0 1 0 2 0 0 6 12 84 103
8 0 19 54 76 100 80 178 199 293 266 373 271 302 334 340 308 156 3 0 0 0 0 0 0 24 4 1 0 0 0 0 0 4 2 1 7 4 1 8 10 7 51
10 26 48 27 42 64 67 154 227 174 228 289 298 283 282 285 334 109 0 0 0 0 14 48 60 19 8 20 0 0 1 1 6 2 1 2 1 0 0 0 0 0 11
25 52 69 85 76 109 126 207 170 159 191 247 262 293 374 407 374 84 0 0 30 9 28 69 8 3 1 2 0 0 0 0 0 0 0 1 0 0 0 0 0 0 0
25 40 56 82 105 95 96 113 120 122 154 330 199 282 304 484 231 56 3 0 57 49 77 11 1 0 11 1 3 1 1 4 0 0 2 0 0 0 0 0 0 0 0
18 11 9 50 33 58 34 80 59 69 125 191 249 248 233 251 46 30 0 5 38 51 72 26 9 1 0 0 1 2 0 0 0 0 0 0 0 0 0 0 0 0 0
38 22 9 3 12 7 55 134 88 50 155 211 221 186 46 90 95 56 19 44 59 79 64 52 12 13 2 0 0 0 6 0 4 0 0 0 0 0 0 0 0 0 0
6 12 17 32 5 29 28 39 125 91 98 121 108 43 61 30 0 0 49 99 103 94 85 4 17 5 2 0 0 5 5 1 4 0 0 0 0 0 0 0 0 0 0
0 0 0 1 17 6 5 14 2 6 2 0 0 0 37 19 0 0 49 62 77 30 43 23 30 0 2 0 3 3 0 0 0 0 0 0 0 0 0 0 0 0 0
0 0 0 3 5 0 2 3 12 0 2 0 2 44 33 48 61 44 72 31 19 41 50 24 5 2 0 5 2 0 0 0 0 0 0 0 0 0 0 0 0 0 0
109 63 15 0 0 0 3 4 11 0 15 52 43 38 7 10 63 36 42 17 16 28 7 6 2 2 0 0 0 0 0 0 0 0 0 0 0 0 0 0 0 0 0
129 117 127 36 20 40 0 8 2 8 64 39 45 128 24 23 62 26 40 23 30 40 16 4 0 1 0 2 1 0 0 0 0 0 0 0 0 0 0 0 0 0 0
170 169 139 123 56 10 2 5 11 38 100 58 213 288 180 56 29 54 68 64 34 62 20 4 5 1 3 4 0 0 0 0 0 0 0 0 0 0 0 0 0 0 0
181 186 174 162 155 125 119 82 81 137 100 194 148 137 35 52 35 66 27 4 0 13 7 2 4 6 2 0 0 0 0 0 0 0 0 0 0 0 0 0 0 0 0
187 185 187 275 295 213 166 93 130 75 59 95 88 87 105 129 87 24 27 2 5 7 1 6 2 0 0 0 0 0 0 0 0 0 0 0 0 0 0 0 0 0 0

GFSMA_con_mucape_078.txt.gz
CAPE
13 31 77 15 0 0 0 0 0 0 0 0 3 0 11 1 0 0 1 13 19 19 12 9 6 4 4 0 0 0 0 0 0 0 0 0 0 0 0 0 0 0 0
36 50 76 1 2 0 0 0 0 0 0 0 0 0 13 9 0 0 0 0 10 20 17 7 7 5 3 0 0 0 0 0 0 0 0 0 0 0 0 0 0 0 0
25 71 65 24 27 4 0 0 0 0 0 0 0 0 1 22 0 0 0 0 0 9 12 17 12 4 1 0 0 0 0 0 0 0 0 0 0 0 0 0 0 0 0
15 112 113 97 111 29 4 3 0 0 0 0 0 0 0 4 12 0 0 0 0 0 4 14 13 11 6 0 0 0 0 0 0 0 0 0 0 0 0 0 0 0 0
33 91 153 194 216 118 114 9 5 0 0 0 0 0 0 0 0 2 0 0 0 0 0 0 6 4 1 2 0 0 0 0 0 0 0 0 0 0 0 0 0 0 0
27 74 61 81 79 103 80 4 12 2 0 0 0 0 0 0 0 0 3 0 0 0 0 0 0 0 0 0 4 0 0 0 0 0 0 0 0 0 0 0 0 0 0
20 57 75 84 75 65 49 5 25 3 5 0 0 0 0 0 0 0 0 0 0 3 0 0 0 0 0 0 0 0 0 0 0 0 0 0 0 0 0 0 0 0 0
23 43 56 65 97 95 33 75 27 48 29 13 0 0 0 0 0 0 0 0 0 0 0 0 0 0 0 0 0 0 0 3 0 13 0 0 0 0 0 0 0 0 0
42 49 82 77 76 57 104 76 74 81 54 16 29 25 53 17 20 14 5 0 0 0 0 0 0 0 0 0 0 0 0 0 15 92 96 71 12 0 0 1 0 0 0
17 25 52 83 97 97 102 112 159 171 161 67 42 14 64 144 38 38 34 29 16 0 0 0 0 0 0 0 0 0 0 0 0 13 85 89 100 50 0 4 0 16 0
16 30 11 48 63 85 104 118 157 198 139 101 47 84 45 58 73 12 0 47 36 15 21 17 5 0 0 0 1 8 8 0 0 0 10 52 51 76 98 86 78 73 72
5 1 14 10 45 73 97 152 160 178 135 79 56 78 43 67 61 59 32 59 57 38 27 7 16 7 0 2 2 8 17 8 2 0 0 15 26 12 4 1 5 19 18
4 1 0 4 7 35 55 88 100 109 64 26 33 30 52 101 71 86 76 73 89 62 43 2 4 4 0 2 0 6 4 0 0 0 0 0 0 0 0 3 12 9 2
1 1 10 9 7 1 5 5 4 43 37 45 32 34 25 41 75 126 55 93 61 62 51 1 1 0 0 0 0 0 0 0 8 0 0 0 0 0 0 0 1 0 0
6 5 11 2 6 2 0 1 7 4 15 29 21 15 30 50 28 30 62 82 51 14 2 0 0 0 0 0 5 2 3 2 0 0 0 0 0 0 0 0 0 0 0
0 0 0 0 2 4 8 7 7 2 0 12 29 49 38 34 39 47 83 115 104 51 23 1 0 0 0 0 0 1 0 4 3 1 3 0 0 0 0 0 0 0 0
0 0 0 0 0 0 7 8 14 9 2 9 3 5 16 20 40 74 71 82 63 80 48 0 0 8 1 0 0 3 1 18 7 7 0 0 0 0 0 0 0 0 0
7 0 0 0 0 0 0 2 4 7 0 7 9 16 17 30 84 83 60 74 78 74 55 12 32 28 28 3 0 1 1 0 5 4 3 0 0 1 0 3 1 0 0
1 4 0 4 0 0 0 0 0 0 4 13 15 30 20 24 31 49 57 88 99 70 54 44 0 0 0 1 0 0 0 10 1 17 5 4 0 0 3 6 0 0 0
49 27 1 3 0 0 0 0 0 0 0 0 1 13 11 38 54 58 78 99 64 61 26 14 1 2 0 0 0 0 1 2 1 1 9 2 0 3 4 0 0 0 0
84 37 26 5 0 0 0 0 0 0 0 0 7 4 17 27 52 65 67 47 57 45 0 5 0 0 0 0 0 0 4 12 0 0 0 0 0 0 0 0 0 0 0
63 78 75 49 36 9 12 2 0 0 1 10 19 22 19 26 53 103 61 61 64 1 4 22 32 8 0 0 0 6 4 4 1 0 0 0 0 0 0 0 0 0 0
61 68 77 69 64 80 95 84 92 82 6 7 4 7 5 7 10 21 35 47 35 9 19 0 14 0 0 1 11 2 2 4 0 0 0 0 0 0 0 0 0 0 0
102 82 57 65 60 73 102 120 129 108 67 49 10 7 8 4 0 1 8 9 8 13 10 9 3 0 0 7 0 0 1 0 0 0 0 0 0 0 0 0 0 0 0
134 104 84 40 21 55 85 97 107 98 100 60 30 49 19 8 28 48 46 75 98 62 38 56 5 6 3 1 0 0 0 0 0 0 0 0 0 0 0 0 0 0 0
193 135 105 83 106 63 80 111 110 91 53 36 4 2 1 5 11 71 133 116 151 125 89 45 14 3 1 0 0 0 0 0 0 0 0 0 0 0 0 0 0 0 0

GFSMA_con_mucape_081.txt.gz
CAPE
14 0 1 0 0 0 0 0 0 0 0 0 0 0 0 0 0 0 0 3 15 18 10 10 8 4 3 5 1 0 0 0 0 0 0 0 0 0 0 0 0 0 0
30 0 4 0 0 0 0 0 0 0 0 0 0 0 0 0 0 0 0 0 5 16 16 6 6 4 2 1 0 0 0 0 0 0 0 0 0 0 0 0 0 0 0
25 8 5 0 0 0 0 0 0 0 0 0 0 0 0 0 0 0 0 0 0 2 11 14 10 6 4 2 0 0 0 0 0 0 0 0 0 0 0 0 0 0 0
23 9 6 0 0 0 0 4 3 0 0 0 0 0 0 0 0 0 0 0 0 0 1 10 13 15 4 2 0 0 0 0 0 0 0 0 0 0 0 0 0 0 0
4 4 2 1 0 2 0 4 5 0 0 0 0 0 0 0 0 0 0 0 0 0 0 0 2 4 4 1 0 0 0 0 0 0 0 0 0 0 0 0 0 0 0
5 3 14 45 42 36 0 13 9 0 0 0 0 0 0 0 0 0 0 0 0 0 0 0 0 0 0 0 1 0 0 0 0 0 0 0 0 0 0 0 0 0 0
5 20 3 41 86 73 5 19 8 0 0 0 0 0 0 0 0 0 0 0 0 0 0 0 0 0 0 0 1 0 0 0 0 0 0 0 0 0 0 0 0 0 0
8 9 10 22 34 53 42 21 7 0 0 0 0 0 0 0 0 0 0 0 0 0 0 0 0 0 0 0 3 2 1 13 19 0 0 0 0 0 0 0 0 0 0
4 3 6 18 37 35 34 38 8 5 0 0 0 0 0 0 0 0 0 0 0 0 0 2 1 1 0 0 0 1 0 0 12 61 70 0 0 0 0 0 0 0 0
10 3 1 2 7 33 50 23 19 0 7 0 0 18 25 36 19 9 0 0 0 0 0 0 0 0 0 1 0 0 0 0 0 6 79 113 84 46 0 18 16 1 6
17 6 1 10 24 46 44 48 13 38 34 2 0 3 20 53 53 17 27 37 19 25 22 11 3 0 0 0 0 0 0 2 22 27 13 96 130 108 97 52 68 79 65
10 0 2 2 0 48 59 36 73 100 73 57 21 15 14 30 43 33 2 0 27 24 21 5 6 3 13 2 0 0 0 8 16 24 13 4 45 88 116 114 105 55 78
5 6 0 8 5 36 55 82 96 99 117 95 64 47 39 30 27 28 0 0 18 30 51 22 15 32 26 8 3 3 2 11 12 2 2 0 1 12 72 72 54 30 26
15 18 6 1 10 28 63 115 126 129 122 89 49 37 32 25 37 59 42 3 4 36 37 15 5 19 22 12 0 0 0 0 0 4 3 8 9 5 3 0 0 0 0
6 20 12 8 2 14 38 72 104 96 86 49 29 15 15 21 30 30 34 46 30 0 0 0 28 22 28 22 5 0 0 0 3 7 6 7 3 0 3 0 0 0 0
0 1 3 5 6 14 23 14 25 59 78 45 29 21 10 5 10 15 22 33 28 14 0 0 0 3 11 1 0 0 0 7 9 9 8 2 25 6 1 1 0 0 2
0 0 0 0 0 1 4 12 9 5 6 5 6 14 1 6 14 28 25 23 30 34 4 1 7 4 5 0 0 0 6 21 14 6 14 10 15 11 6 3 3 0 2
2 2 0 0 0 0 0 0 0 0 0 2 4 10 2 3 27 22 11 29 30 25 12 0 0 0 20 14 14 15 8 30 8 43 1 2 2 14 8 11 5 1 0
2 1 2 0 0 0 0 0 0 0 0 0 1 1 1 3 0 1 0 3 8 8 8 27 7 25 20 18 36 36 47 22 9 8 5 3 6 10 1 5 10 2 2
0 13 18 1 0 0 0 0 0 0 0 0 0 0 0 0 0 0 0 0 8 19 36 43 38 16 28 29 21 0 0 1 0 4 2 2 12 3 1 1 0 3 6
0 1 13 30 41 38 5 0 0 0 0 0 0 0 0 0 0 0 0 2 12 38 44 15 0 29 0 0 2 0 0 1 0 0 0 0 5 3 1 0 0 0 0
55 45 26 14 29 46 74 63 30 1 0 0 0 0 0 0 1 1 2 16 29 38 34 33 0 0 0 0 0 0 0 0 0 0 0 0 1 10 0 0 0 0 0
52 79 99 86 72 64 55 58 65 65 71 70 49 41 31 1 1 6 17 31 60 67 56 40 0 0 0 10 0 1 1 1 0 0 0 1 0 0 0 0 0 0 0
137 90 80 111 122 119 108 79 55 43 47 61 76 71 59 49 18 13 40 59 65 56 16 8 1 10 6 18 9 2 2 0 2 2 0 1 4 0 0 0 0 0 0
236 210 159 121 94 97 136 168 134 135 88 36 44 65 63 32 37 69 7 19 35 59 9 2 8 13 23 3 24 0 0 0 1 0 0 1 0 0 0 0 0 0 0
352 317 292 215 170 257 214 141 172 153 115 127 95 156 110 101 62 47 66 43 44 28 5 6 20 25 20 7 5 2 2 9 11 8 0 0 0 0 0 0 0 0 0

GFSMA_con_mucape_084.txt.gz
CAPE
97 104 26 1 0 0 0 0 0 0 0 0 0 0 0 0 0 0 0 9 11 14 8 5 10 10 7 7 7 6 5 3 0 0 0 0 0 0 0 0 0 0 0
103 80 9 2 1 0 0 0 0 0 0 0 0 0 0 0 0 0 0 0 3 10 16 5 8 8 9 6 4 5 0 0 0 0 0 0 0 0 0 0 0 0 0
51 1 5 3 0 0 0 0 0 0 0 0 0 0 0 0 0 0 0 0 0 2 8 14 13 5 4 5 4 3 1 0 0 0 0 0 0 0 0 0 0 0 0
2 1 27 15 0 0 0 0 0 0 0 0 0 0 0 0 0 0 0 0 0 0 0 7 11 17 7 3 2 3 3 0 0 0 0 0 0 0 0 0 0 0 0
1 8 12 2 0 0 0 0 0 0 0 0 0 0 0 0 0 0 0 0 0 0 0 2 5 7 11 8 1 2 2 0 0 0 0 0 0 0 0 0 0 0 0
8 8 10 1 0 0 0 0 0 0 0 0 1 0 0 0 0 0 0 0 0 0 0 0 0 0 1 1 3 1 1 0 0 0 0 0 0 0 0 0 0 0 0
14 4 8 6 0 0 3 6 0 0 7 3 0 0 2 0 0 0 0 0 0 0 0 0 0 0 0 0 0 0 0 0 0 0 0 0 0 0 0 0 0 0 0
7 18 3 1 8 7 20 20 22 5 3 14 5 0 2 2 2 7 2 0 0 0 0 0 0 0 0 0 0 7 2 12 14 2 0 0 0 0 0 0 0 0 0
6 7 8 14 1 16 11 30 29 8 6 13 8 1 1 0 0 1 10 8 1 0 0 0 2 7 3 3 0 2 0 4 36 150 98 17 0 1 4 0 0 0 0
8 21 11 2 32 34 52 54 37 28 13 8 12 9 0 0 0 0 0 0 0 4 10 6 4 4 0 2 1 2 6 5 3 7 124 130 67 20 5 6 0 0 0
9 2 12 8 30 53 76 56 48 47 8 1 0 20 59 50 17 11 0 0 0 0 0 3 13 14 12 9 3 7 4 7 1 3 7 61 136 116 89 13 19 58 72
5 11 2 2 4 43 45 42 33 26 55 11 7 4 44 66 37 20 4 10 7 4 11 1 0 1 5 10 22 26 13 1 0 1 11 13 20 87 113 116 116 97 104
8 12 1 6 6 5 26 30 0 30 41 33 3 0 5 23 47 42 44 21 1 11 7 3 1 0 2 20 22 33 11 0 0 0 1 2 2 0 13 82 123 152 142
4 1 3 0 3 0 0 17 54 63 69 45 38 18 3 17 33 32 18 37 0 0 9 20 36 51 48 56 41 35 12 7 5 4 3 0 3 11 3 11 8 12 74
6 21 10 12 1 8 24 36 38 43 64 76 72 64 41 43 42 35 29 29 21 0 0 0 8 13 36 37 34 44 38 16 8 8 4 0 0 16 24 32 27 12 10
0 6 10 10 15 11 10 31 46 61 66 70 65 64 80 70 36 20 29 22 45 23 1 9 4 3 10 40 21 26 26 26 12 15 9 16 31 25 36 36 24 12 19
5 3 3 0 1 0 1 3 7 10 14 20 48 36 51 38 0 0 1 19 32 36 27 2 11 3 2 32 17 48 17 11 20 22 14 18 17 15 28 35 21 4 6
1 7 2 0 0 0 0 0 0 0 0 6 12 23 24 33 29 14 0 2 16 13 19 0 0 1 3 0 8 2 63 21 25 23 29 28 24 18 9 13 20 1 1
3 3 3 0 0 0 0 0 0 0 0 0 0 0 0 9 6 1 0 0 8 4 21 27 0 11 4 0 8 5 20 19 17 26 23 25 9 3 5 8 15 3 1
3 2 1 1 0 0 0 0 0 0 0 0 0 0 0 0 0 0 0 0 2 1 1 0 2 0 0 5 12 22 8 7 2 12 4 2 12 8 1 2 1 3 3
0 0 0 1 2 1 2 4 0 3 0 0 0 0 0 0 0 0 0 0 0 3 0 0 0 6 16 12 12 3 0 0 10 12 0 2 0 1 0 2 2 0 1
5 0 0 0 0 0 3 15 19 26 0 0 0 0 0 0 0 0 5 9 8 0 0 0 1 0 0 6 10 14 17 2 1 0 0 0 3 0 1 5 1 1 0
173 141 135 97 50 19 30 25 18 17 27 40 34 14 2 0 0 0 0 2 0 0 0 0 0 1 1 1 51 35 37 1 1 0 0 4 0 2 0 0 0 0 0
196 209 180 193 193 204 169 116 87 47 36 27 25 47 53 78 67 25 6 0 1 4 4 10 22 32 37 39 61 54 29 9 0 1 5 0 0 0 0 3 0 0 0
206 258 270 178 189 270 243 198 183 128 88 78 60 40 26 45 64 86 67 47 14 11 21 32 57 63 59 49 59 35 17 8 11 17 3 6 5 11 0 0 0 0 0
158 170 266 392 310 235 227 266 221 181 120 238 140 142 152 120 47 52 50 84 33 43 42 26 57 65 22 9 29 7 0 16 7 0 0 0 6 0 0 0 0 0 0

GFSMA_con_mucape_087.txt.gz
CAPE
98 117 90 83 29 24 8 0 0 0 0 0 0 0 0 0 0 0 0 12 12 31 19 21 19 15 12 12 11 8 7 8 7 5 0 0 0 0 0 0 0 0 0
84 92 36 82 5 5 0 0 0 0 0 0 0 0 0 0 0 0 0 1 6 25 25 19 18 13 11 11 9 6 6 7 0 0 0 0 0 0 0 0 0 0 0
104 73 62 85 0 0 0 0 0 0 0 0 0 0 0 0 0 0 0 0 2 9 17 22 19 10 7 7 8 7 5 0 0 0 0 0 0 0 0 0 0 0 0
67 75 110 31 0 0 0 0 0 0 0 0 2 0 0 0 0 0 0 0 0 2 7 17 12 16 10 6 6 7 8 0 0 0 0 0 0 0 0 0 0 0 0
55 69 90 0 1 0 0 0 0 0 5 11 10 2 3 0 0 0 0 0 0 0 0 5 10 9 11 7 4 8 6 4 0 0 0 0 0 0 0 0 0 0 0
72 49 5 20 0 0 0 0 3 2 4 12 7 7 4 0 0 0 0 0 0 0 0 0 0 0 1 7 5 4 6 6 7 0 0 0 0 0 0 0 0 0 0
62 13 16 11 0 0 0 0 0 6 4 0 4 8 9 1 0 0 0 0 0 0 0 0 0 0 0 0 5 1 3 10 10 0 0 0 0 0 0 0 0 0 0
27 20 3 17 4 0 0 0 0 9 4 0 12 9 13 3 9 1 3 2 0 0 0 0 0 0 0 0 0 0 0 8 11 8 0 0 0 0 0 5 4 0 0
31 36 8 12 9 0 0 5 0 3 3 1 10 17 17 12 27 23 27 9 13 7 6 2 0 0 0 0 0 0 0 0 37 162 131 32 3 12 8 10 10 8 8
38 15 9 7 15 2 2 0 26 20 18 23 26 33 25 1 28 20 14 8 21 20 21 12 10 9 5 2 3 6 4 6 4 14 167 256 131 19 4 12 24 5 21
38 5 7 16 21 18 4 7 0 66 75 35 43 38 31 6 1 0 0 0 13 6 17 16 12 8 1 2 2 6 5 4 0 1 3 62 228 210 94 45 49 10 19
14 5 33 17 8 5 1 1 2 58 77 45 31 32 29 33 30 26 2 0 0 3 7 2 19 23 28 25 22 9 19 30 31 15 1 3 4 61 150 173 123 93 90
3 13 2 1 17 10 5 12 25 74 66 46 40 31 43 47 50 49 38 43 29 37 35 21 19 14 5 9 25 12 17 44 41 34 13 4 3 2 5 47 137 166 162
2 14 0 0 4 12 11 26 34 29 44 21 18 23 24 18 70 84 57 52 48 50 26 14 4 3 6 6 17 13 26 18 33 43 28 19 12 8 5 5 11 31 103
0 1 6 4 1 7 18 14 22 0 11 0 0 2 20 17 22 62 68 56 38 34 29 22 1 6 16 18 23 18 16 2 13 25 31 27 21 17 14 4 8 29 31
0 0 8 9 14 13 17 9 3 25 5 11 31 56 74 55 17 30 42 50 43 32 0 3 1 0 5 4 6 21 14 1 0 10 23 30 31 22 27 15 13 11 30
0 0 0 2 1 3 12 10 6 7 8 15 40 54 33 38 41 43 33 39 17 14 2 2 6 1 1 4 2 7 4 8 2 3 3 17 11 9 13 16 9 10 24
4 2 1 0 0 2 0 1 6 9 8 15 33 40 30 40 33 33 20 12 61 11 0 0 2 11 16 5 17 11 53 4 4 5 6 26 14 20 21 35 27 9 17
4 4 2 2 0 0 0 0 0 0 0 0 3 11 20 28 20 18 14 16 18 23 23 6 5 3 2 3 10 20 10 9 11 16 28 22 20 14 26 34 26 9 3
3 0 4 3 2 4 0 0 0 0 0 0 0 0 0 0 0 0 0 0 6 8 19 32 30 10 7 6 7 2 0 0 3 17 12 31 34 19 24 6 8 5 13
7 0 0 1 1 1 3 3 1 0 0 0 0 0 0 0 0 0 0 0 0 0 0 0 0 0 0 1 0 3 0 0 0 4 2 5 42 14 26 12 8 3 6
116 107 101 61 17 0 0 0 0 0 0 0 0 0 0 0 0 0 0 3 11 7 2 6 1 13 4 6 0 0 8 10 0 2 0 6 2 3 2 6 1 1 3
99 84 100 97 115 135 109 89 75 26 2 0 0 0 6 4 0 0 0 3 12 15 12 9 4 0 0 0 5 11 2 1 1 0 3 0 13 0 1 1 9 2 6
65 60 69 105 108 118 178 178 146 129 105 83 38 27 18 23 41 54 31 13 5 8 14 7 4 3 5 5 6 11 11 33 8 12 18 4 12 16 4 0 2 1 3
81 82 71 82 81 86 106 188 235 257 166 249 326 134 111 67 68 41 42 52 43 26 7 11 14 13 13 10 7 5 15 36 10 14 10 0 1 21 4 1 3 0 0
0 0 7 59 91 37 52 54 89 107 110 80 174 232 164 73 96 126 121 79 37 76 45 5 4 4 4 12 11 27 15 31 29 15 0 0 1 0 0 0 0 0 0

GFSMA_con_mucape_090.txt.gz
CAPE
75 130 145 128 98 49 48 52 9 19 8 0 0 0 0 0 0 0 1 18 24 30 19 18 19 26 8 7 6 7 15 11 10 9 8 6 4 1 3 0 0 0 0
76 122 136 112 69 56 41 33 8 22 4 0 0 0 0 0 0 0 0 7 17 29 35 16 17 8 16 7 10 9 10 9 8 7 0 0 0 0 0 0 0 0 0
86 60 76 87 73 36 26 59 32 9 5 0 0 0 0 0 0 0 0 2 10 14 28 30 20 13 12 17 9 9 7 5 2 0 0 0 0 0 0 0 0 0 0
57 16 16 27 58 24 21 27 2 1 0 0 0 0 0 0 0 0 0 0 2 6 12 20 30 16 22 15 10 8 7 4 0 0 0 0 0 0 0 0 0 0 0
21 29 21 61 66 33 15 11 0 0 0 0 0 0 0 0 0 0 0 0 0 1 3 10 10 15 22 15 8 7 8 6 2 0 0 0 0 0 0 0 0 0 0
75 43 60 70 80 17 11 11 0 0 1 0 0 0 0 0 0 0 0 0 0 0 0 0 0 0 1 14 10 9 9 11 7 0 0 0 0 0 0 0 0 0 0
38 64 57 76 56 11 33 7 0 8 13 3 13 5 0 0 0 0 0 0 0 0 0 0 0 0 0 4 16 8 12 15 15 14 0 0 0 0 0 0 0 4 1
29 56 51 78 38 1 39 14 0 2 5 13 8 7 4 0 0 0 0 0 0 0 0 0 0 0 0 0 0 8 6 12 16 19 16 19 4 0 0 1 7 4 16
9 17 40 19 6 7 0 0 0 8 3 17 19 22 13 5 2 7 10 13 1 0 0 0 0 0 0 0 0 0 0 0 40 166 142 64 21 19 8 7 9 13 3
24 49 43 22 27 12 5 0 13 28 15 8 27 37 23 18 24 23 19 29 16 10 0 11 15 18 8 0 0 0 0 0 0 8 176 270 229 83 29 16 8 5 6
12 5 40 13 10 16 12 0 0 12 12 19 30 56 45 35 23 0 18 39 38 28 33 31 41 44 36 31 19 20 18 10 10 3 2 80 262 303 207 69 36 37 31
0 22 19 6 16 8 7 0 1 0 34 31 37 72 61 36 6 6 0 7 36 21 26 24 37 42 51 41 36 37 38 31 24 18 7 10 6 86 172 264 217 117 75
1 6 4 11 5 5 15 9 0 0 0 16 74 72 57 51 52 27 21 25 8 4 0 0 8 36 21 17 15 4 12 26 8 13 25 26 17 0 3 28 108 227 212
0 14 15 14 27 11 6 16 3 0 6 0 31 73 63 47 49 50 44 34 4 11 9 0 36 24 25 0 1 1 1 6 9 17 17 21 22 15 11 8 8 18 42
0 12 17 25 5 6 16 2 17 14 4 2 0 66 74 31 17 51 62 45 25 0 0 17 62 23 8 14 6 4 7 7 8 22 7 23 4 1 5 9 16 14 14
0 0 9 6 0 0 1 3 10 6 3 4 3 36 27 3 7 12 5 28 14 24 0 12 9 7 17 20 3 11 11 9 17 14 10 4 5 1 1 7 9 13 14
0 0 0 0 0 0 5 9 28 7 2 19 16 14 22 12 0 0 0 12 10 38 0 4 9 3 16 3 3 5 8 11 6 4 1 5 9 9 7 14 21 11 11
0 0 0 0 0 0 0 8 5 11 4 0 0 12 3 13 40 26 24 20 3 0 10 2 9 7 21 26 5 6 12 18 6 3 6 21 5 8 19 15 25 10 15
2 1 0 0 0 0 0 0 0 0 0 0 0 0 0 0 7 10 27 33 27 31 33 20 2 10 1 0 0 2 7 14 16 15 13 7 4 3 8 7 12 17 20
3 6 5 2 3 0 0 0 1 2 2 0 0 0 0 0 0 0 10 14 26 32 30 26 12 0 6 0 0 0 0 0 1 0 0 0 1 7 4 3 7 24 33
39 4 0 0 0 0 1 0 0 0 0 0 0 0 0 0 0 0 0 0 0 4 5 0 0 0 0 0 0 0 0 0 0 0 0 0 0 0 0 11 11 4 8
75 62 94 83 64 68 64 54 32 6 0 1 0 0 0 0 0 0 0 0 3 6 4 9 5 8 6 5 9 3 0 2 2 0 0 0 0 0 1 6 9 4 34
24 40 53 63 70 84 97 88 79 87 103 99 60 30 12 3 0 0 0 0 3 3 11 13 14 8 59 15 9 5 4 2 1 2 1 0 0 0 0 0 0 6 14
99 103 121 35 11 78 28 34 28 26 61 68 96 124 150 104 97 86 66 27 12 4 7 33 34 13 17 11 10 6 7 6 2 4 8 5 3 7 2 8 0 7 10
25 69 84 59 42 12 0 4 17 18 26 42 94 167 207 121 92 94 90 98 63 45 43 16 10 7 4 5 13 15 12 29 24 17 8 10 6 2 12 0 5 2 2
0 0 0 0 0 4 70 44 35 57 63 49 43 92 93 28 22 41 21 101 161 147 49 151 84 24 2 1 5 28 18 31 12 3 7 0 0 0 1 0 0 1 0

GFSMA_con_mucape_093.txt.gz
CAPE
356 361 205 385 133 73 29 69 108 33 1 0 0 0 0 0 0 16 18 22 30 34 24 38 44 43 32 30 16 10 11 8 8 11 9 9 7 7 6 3 1 0 0
366 462 270 241 222 72 55 91 78 10 0 0 0 0 0 0 1 7 19 22 19 38 50 44 41 33 26 23 13 11 10 8 7 9 10 6 1 0 0 0 0 0 0
271 368 137 113 126 19 50 68 78 54 43 0 0 0 0 0 2 5 15 25 13 19 27 58 47 30 22 18 12 13 13 9 9 8 7 0 0 0 0 0 0 0 0
66 68 90 40 23 16 14 46 98 103 62 0 0 0 0 0 4 9 18 17 24 17 17 28 34 36 26 14 13 15 15 11 7 7 0 0 0 0 0 0 0 0 0
42 60 79 42 48 17 30 31 103 99 39 1 0 0 0 0 2 9 18 11 15 14 15 12 18 18 20 17 13 14 15 15 9 5 0 0 0 0 0 0 0 0 0
38 29 11 19 46 7 46 57 132 96 68 0 0 0 3 6 6 15 19 9 21 17 16 17 18 15 9 22 21 9 8 15 12 5 0 0 0 0 0 0 0 0 0
27 34 7 13 9 15 20 53 77 27 30 0 0 0 0 0 4 6 13 13 17 13 13 20 14 10 11 12 26 8 5 20 11 10 7 0 0 0 0 0 0 0 0
27 30 7 32 35 45 38 42 37 10 7 0 0 8 0 0 0 8 2 9 16 9 19 8 6 4 2 5 6 15 15 27 20 15 11 18 9 0 0 1 0 0 0
31 41 44 40 32 22 7 4 9 12 0 4 8 41 21 9 10 8 4 3 9 10 3 1 0 0 1 14 3 0 0 0 67 189 164 63 20 12 0 3 2 1 0
11 27 20 34 32 25 0 5 29 9 11 11 20 31 28 34 84 23 14 10 5 4 0 0 0 1 7 19 8 0 0 0 0 5 153 229 215 127 69 31 13 2 2
4 7 38 20 32 23 2 1 29 17 13 43 20 33 42 36 28 68 73 19 25 34 33 24 27 1 1 17 26 22 4 1 0 0 0 42 197 266 225 141 114 81 55
3 3 15 7 15 15 12 6 5 4 1 42 29 37 36 48 44 73 57 42 78 54 64 58 31 24 25 33 20 33 38 25 14 11 9 1 4 50 143 267 311 236 172
3 3 23 16 36 11 21 21 9 0 2 0 20 46 40 69 72 83 57 40 78 87 53 70 37 29 11 17 22 39 43 34 22 19 10 5 0 0 6 24 107 259 308
7 4 22 22 9 9 10 7 18 9 20 0 0 20 34 73 68 74 83 125 101 96 70 65 2 12 27 29 16 25 17 5 3 7 21 13 5 6 7 8 7 6 60
3 6 19 66 9 10 12 10 6 3 5 1 0 2 0 44 110 83 91 104 110 111 76 54 42 8 8 16 15 18 8 5 1 7 2 6 10 11 13 12 13 4 12
7 0 27 36 27 21 32 26 4 0 1 18 1 11 15 1 12 55 55 29 50 71 94 35 26 40 11 15 15 19 10 0 4 2 5 10 12 13 3 11 8 6 12
0 0 0 28 22 25 13 32 16 3 6 9 6 3 6 5 0 12 51 0 0 3 0 3 1 101 27 34 12 5 12 12 13 3 4 9 12 5 1 11 5 13 12
0 0 2 5 2 4 0 0 0 4 9 10 11 15 17 14 17 12 41 7 2 70 0 0 0 113 97 75 3 14 9 7 6 10 4 1 0 9 9 12 6 6 4
3 0 0 0 1 2 5 0 0 0 3 4 8 14 36 59 98 75 61 56 21 41 44 42 69 122 119 88 51 0 1 7 6 0 0 0 1 3 8 1 0 0 3
3 3 2 1 0 0 1 0 0 1 7 4 14 30 29 37 79 119 144 99 72 149 102 53 30 44 90 67 129 86 78 62 37 5 0 0 0 0 0 0 0 0 0
5 14 10 4 2 1 1 2 0 0 1 2 4 3 4 5 1 20 37 57 78 54 58 56 15 70 61 58 51 31 30 16 34 92 47 41 13 0 0 0 0 0 1
40 71 53 37 13 7 5 0 0 1 0 0 4 0 0 0 0 0 0 0 0 63 0 0 11 8 8 1 26 11 5 6 2 1 1 0 0 0 0 0 6 2 0
36 62 48 60 69 41 51 49 45 32 89 139 119 150 101 37 42 38 43 44 34 20 21 6 1 0 0 11 9 7 10 5 2 2 7 1 2 1 2 2 0 1 2
102 70 58 32 12 11 33 40 40 33 57 127 211 289 62 125 155 153 136 143 97 101 88 79 74 62 17 11 2 0 1 2 4 3 8 6 1 3 5 5 3 2 12
12 12 15 16 35 19 19 17 31 27 16 19 16 24 7 5 25 17 37 23 19 50 58 62 34 51 30 31 52 36 19 27 1 0 7 17 4 0 0 1 4 5 5
0 0 0 0 0 0 0 0 0 0 7 27 42 16 8 9 6 35 82 93 86 116 73 86 31 13 15 17 3 0 0 8 0 0 0 0 0 0 1 0 0 4 1

GFSMA_con_mucape_096.txt.gz
CAPE
853 714 871 761 609 476 408 348 149 269 317 210 176 98 68 27 22 21 33 26 34 58 45 38 32 36 25 17 14 9 13 8 7 10 8 7 9 8 4 5 1 2 2
763 767 738 792 613 290 233 135 254 290 360 189 161 120 70 20 11 16 24 34 24 41 59 46 37 33 25 24 17 15 16 15 11 11 9 6 5 6 2 0 0 0 0
577 534 766 618 206 66 178 66 208 221 223 153 171 138 75 10 12 17 25 21 26 25 43 53 62 36 26 22 19 10 8 9 13 12 10 7 6 2 0 0 0 0 0
348 401 328 647 155 41 86 42 132 187 181 168 150 106 13 13 17 21 34 48 47 28 29 40 54 45 37 24 11 5 4 8 5 13 9 8 0 0 0 0 0 0 0
210 183 189 184 47 50 8 33 185 216 172 152 145 111 12 28 39 33 19 45 43 26 28 27 33 30 35 31 11 15 19 7 11 10 10 8 0 0 0 0 0 0 0
76 54 84 50 26 49 22 10 130 183 241 155 97 87 37 80 72 14 18 34 43 31 19 21 32 16 15 31 18 8 12 19 14 10 11 0 0 0 0 0 0 0 0
51 6 60 57 43 41 6 16 163 158 186 167 79 78 38 37 20 15 15 42 47 44 31 37 38 16 7 16 24 14 19 20 18 11 10 8 0 0 0 0 0 0 0
4 41 31 9 33 3 14 21 174 136 114 135 67 64 44 40 34 20 23 26 32 35 23 33 42 28 18 6 5 12 14 28 29 17 13 17 13 9 0 0 0 0 0
3 28 36 26 15 8 7 72 145 130 104 122 141 73 57 51 36 32 17 26 19 9 12 18 28 25 10 3 1 0 0 0 59 172 156 43 8 1 0 0 0 7 0
1 25 7 11 10 24 11 16 83 167 114 110 134 122 92 95 57 60 30 69 70 21 21 3 13 23 18 6 0 0 0 0 0 15 138 243 186 101 38 21 11 6 3
34 24 13 5 19 35 39 67 116 165 128 113 82 78 94 109 144 100 94 106 69 42 42 37 27 15 32 52 57 18 0 0 0 0 4 75 176 257 233 169 142 103 67
3 0 32 24 31 38 46 29 27 25 27 102 109 171 128 82 115 88 48 99 99 99 79 68 98 69 82 83 43 31 30 7 15 3 7 9 13 47 123 253 287 283 225
6 1 36 16 36 48 52 34 6 52 65 1 44 129 132 98 89 77 88 67 103 107 143 110 87 108 90 107 128 27 17 5 7 23 28 18 14 9 4 18 70 179 297
1 1 3 37 13 32 30 17 0 7 26 0 76 153 106 137 151 104 98 44 9 50 98 90 142 171 168 138 127 46 20 8 11 20 13 16 21 19 9 4 1 7 46
0 7 1 23 11 5 3 8 8 14 5 6 0 88 117 81 132 121 121 76 77 129 35 105 96 84 134 137 95 89 68 33 6 15 8 8 8 13 15 6 9 11 17
5 7 1 10 19 4 8 12 10 7 3 6 0 23 59 53 48 102 105 154 160 140 122 78 105 108 110 47 53 69 93 16 6 3 2 4 2 0 1 3 5 5 11
3 2 0 3 14 11 5 16 16 15 4 0 0 1 3 22 20 53 73 111 70 9 0 14 37 25 93 104 75 61 37 7 2 2 4 3 0 2 5 3 2 3 2
1 2 16 2 0 0 26 13 31 6 3 1 0 5 9 3 0 4 8 14 8 4 3 0 2 36 156 89 85 68 103 76 131 20 0 0 0 0 0 0 3 0 0
20 23 31 21 0 1 11 11 0 0 0 0 4 9 13 13 9 11 5 5 7 19 47 102 111 99 71 101 113 133 211 158 75 0 0 0 0 0 0 0 0 0 0
32 36 35 46 45 37 37 60 56 67 53 0 3 7 10 5 3 65 99 153 175 263 216 112 96 51 123 100 178 181 214 237 196 22 1 0 0 0 5 2 3 10 5
11 13 21 9 14 41 16 13 15 12 10 6 5 4 5 6 5 38 86 159 203 249 238 175 106 125 160 137 135 194 201 261 225 173 47 106 127 169 66 0 1 1 0
5 35 44 47 42 18 3 3 4 45 25 12 24 39 31 2 1 3 8 3 5 60 47 45 45 34 57 80 142 194 157 1 0 8 18 29 181 171 7 3 18 0 0
53 55 47 28 38 8 10 16 10 5 8 39 51 33 38 23 26 20 18 14 18 24 31 17 5 3 6 16 24 26 15 18 3 0 3 1 1 7 6 4 1 0 2
85 92 132 167 120 122 74 54 55 57 69 76 61 58 58 93 109 100 103 143 107 110 103 58 69 5 2 17 36 47 11 0 0 0 3 0 0 0 1 1 1 6 8
106 84 106 129 86 86 106 49 37 35 30 49 41 44 65 57 62 41 70 42 60 48 10 56 57 68 26 39 43 51 67 10 16 10 0 0 0 0 0 0 0 0 0
1 10 22 14 6 0 0 2 0 0 2 0 25 35 58 64 30 29 105 31 139 142 95 68 52 53 35 32 29 53 21 7 20 1 0 0 0 0 0 0 0 0 0

GFSMA_con_mucape_099.txt.gz
CAPE
1231 1205 1129 1242 1040 831 866 703 175 161 89 154 293 183 141 89 63 65 7 0 34 58 33 39 28 38 26 20 8 7 7 10 12 14 10 9 11 9 7 5 0 4 1
1240 1116 963 854 992 749 732 211 137 86 90 118 260 181 81 39 26 41 17 8 18 49 57 43 37 40 28 16 4 10 10 11 9 8 11 10 11 5 2 2 0 0 0
997 786 1110 1154 820 884 431 331 114 100 87 194 164 136 35 25 14 14 19 25 15 22 41 54 59 49 30 33 18 13 11 11 12 8 4 7 8 7 3 0 0 0 0
651 315 572 728 898 622 600 219 216 93 79 200 152 81 54 8 15 33 16 26 31 23 29 39 55 49 43 31 19 10 8 13 6 13 4 9 6 7 6 0 0 0 0
664 714 651 744 762 322 295 158 217 106 78 144 128 82 43 9 19 22 34 23 16 25 27 30 31 28 35 38 16 11 16 14 10 10 7 8 5 6 0 0 0 0 0
526 553 549 209 188 142 151 57 106 72 128 114 72 60 43 56 60 45 17 33 32 29 37 39 31 22 17 33 36 6 21 14 10 9 7 6 4 0 0 0 0 0 0
432 267 55 14 95 30 22 19 111 52 70 182 97 92 100 104 70 24 23 4 44 21 32 22 33 19 2 14 29 19 13 8 16 10 6 7 4 8 0 0 0 0 0
332 112 29 15 49 46 29 25 27 94 154 132 118 45 53 36 42 28 24 17 81 31 29 24 27 24 20 0 4 19 16 16 15 13 13 16 12 8 3 0 0 0 0
200 34 4 36 20 18 21 30 12 50 103 142 81 26 34 28 26 35 49 21 50 28 32 28 40 32 39 32 0 0 0 1 37 122 81 36 10 8 4 8 1 2 3
1 1 3 17 47 18 36 30 11 48 101 106 122 102 73 59 15 78 66 23 35 21 38 19 12 6 19 22 19 1 0 0 0 16 160 182 120 80 43 32 27 19 7
0 0 0 1 13 7 4 6 44 114 171 132 123 97 163 149 120 127 42 20 91 63 18 29 15 19 11 68 111 52 0 2 0 0 0 105 248 267 180 140 124 91 62
1 0 0 3 10 31 13 9 140 168 146 122 133 178 127 101 87 101 92 137 125 121 91 84 67 65 84 88 31 21 17 13 11 7 0 6 68 147 218 293 307 271 222
2 14 9 0 4 7 18 22 50 76 153 168 138 127 102 109 144 159 42 12 129 91 125 179 150 148 79 105 89 19 23 40 39 17 0 0 8 12 32 82 117 204 287
1 0 6 1 25 23 23 11 38 40 59 55 51 7 29 84 136 181 186 126 21 72 155 211 181 175 149 141 99 53 55 36 22 23 19 7 8 8 15 17 15 8 28
0 2 9 2 2 22 45 54 51 33 30 29 0 52 0 59 86 165 172 175 142 11 0 177 144 219 240 254 159 208 197 114 53 35 12 5 1 1 7 6 10 10 4
7 3 0 1 16 5 22 25 29 0 0 4 0 2 49 27 42 73 125 120 154 103 99 72 97 68 109 73 126 172 202 82 39 23 12 1 0 0 0 0 0 0 0
19 0 2 1 8 15 10 2 6 14 1 0 0 3 1 53 78 101 101 97 100 103 63 61 66 24 20 15 19 65 108 118 114 6 3 0 0 0 0 1 1 0 0
44 26 5 1 0 8 11 7 2 4 20 13 4 2 4 0 0 87 52 53 72 34 10 63 0 1 5 2 7 10 1 70 117 4 0 0 0 0 0 0 0 0 0
22 35 31 0 0 1 50 8 8 5 12 6 15 16 0 0 6 9 21 27 16 5 8 5 3 5 9 47 114 123 117 133 85 0 6 0 0 2 2 1 0 0 0
26 26 38 25 1 0 0 2 5 0 5 1 0 2 37 2 5 10 16 11 8 9 6 0 4 39 75 89 157 114 151 165 152 115 30 2 0 0 0 6 28 30 25
36 56 51 51 42 44 2 2 3 8 3 1 22 31 0 9 8 13 15 17 7 48 43 13 12 98 153 172 162 205 176 193 213 235 168 246 289 226 43 26 21 16 12
4 6 4 5 7 12 11 13 17 6 11 13 6 9 11 12 6 5 6 4 3 36 47 74 106 116 149 178 182 196 131 70 46 43 41 16 12 8 8 4 1 1 8
7 8 5 4 7 2 4 2 4 6 11 24 11 19 24 29 21 15 20 30 35 30 19 9 9 9 10 13 9 1 0 0 3 27 21 3 7 7 27 31 26 33 50
13 7 7 33 13 5 9 16 12 13 13 13 16 23 52 26 39 75 71 96 71 70 89 61 11 10 13 15 22 6 21 20 2 5 1 11 0 4 0 0 0 3 0
95 79 92 76 77 96 80 122 101 84 83 53 33 32 38 75 108 147 123 116 158 68 66 54 45 17 7 6 5 13 14 11 4 26 8 10 0 5 1 0 2 0 1
3 17 55 12 112 91 125 94 51 78 50 53 87 56 59 33 22 43 41 33 41 26 36 25 23 13 7 14 19 24 19 35 13 12 0 9 4 0 2 0 0 2 5

GFSMA_con_mucape_102.txt.gz
CAPE
941 730 574 594 483 398 324 189 144 104 41 25 86 84 225 109 40 51 11 0 0 12 16 22 22 39 37 39 26 18 10 7 8 13 14 8 20 27 14 8 10 3 0
855 729 579 534 680 459 392 256 205 117 41 56 100 87 174 128 35 33 1 0 0 12 32 30 35 40 36 35 17 13 12 12 9 12 10 14 22 15 16 4 0 0 0
1083 720 578 654 683 443 516 287 116 99 63 86 78 73 120 56 19 11 2 0 5 4 19 50 62 63 41 26 9 4 15 25 12 7 6 10 9 5 2 0 0 0 0
696 667 624 658 594 475 338 147 69 72 46 50 59 57 45 10 10 0 2 0 0 18 19 24 47 61 53 29 18 10 9 16 6 4 2 6 6 5 0 0 0 0 0
604 570 417 422 209 230 305 214 91 21 39 44 54 57 29 0 0 2 3 0 0 11 11 16 24 23 40 47 22 6 14 14 7 8 6 10 3 4 3 0 0 0 0
623 602 344 249 172 232 199 195 74 79 41 34 145 91 34 6 0 10 9 1 0 0 2 6 12 10 12 34 22 9 13 11 8 13 9 10 7 4 3 2 0 0 0
334 295 193 155 157 200 90 143 65 95 61 38 57 33 67 41 13 19 14 20 10 2 9 18 12 2 0 14 23 17 7 15 6 12 11 9 10 11 11 0 0 0 0
381 227 74 38 101 73 69 78 50 30 52 23 10 0 0 46 42 18 8 17 27 11 11 6 15 10 0 0 0 9 5 17 9 16 22 17 14 12 7 0 0 0 1
282 142 41 2 10 50 59 54 39 15 9 9 26 0 0 0 11 18 14 4 19 26 6 0 0 0 0 0 0 0 0 0 17 107 67 19 15 15 20 3 4 1 0
178 53 7 6 10 5 6 41 39 10 19 0 24 1 8 1 0 2 16 11 5 10 20 7 2 0 4 3 0 0 0 0 0 22 133 133 101 59 44 35 26 25 26
0 0 0 2 0 12 34 61 44 41 40 5 0 0 1 18 20 0 0 0 0 1 0 1 7 2 0 0 0 0 7 3 0 0 26 111 245 184 165 134 115 102 96
0 0 0 0 0 12 35 25 5 15 37 12 13 7 5 17 5 0 3 0 0 0 0 0 0 0 0 0 0 3 12 13 10 5 0 15 70 165 277 274 215 207 196
2 0 0 0 3 8 12 11 19 29 2 21 22 31 72 82 62 47 44 22 0 23 11 24 0 2 0 8 6 10 24 33 34 19 12 6 1 14 56 117 225 312 339
11 0 1 0 2 4 9 4 12 9 18 31 43 58 59 39 40 29 33 19 0 33 40 35 70 41 36 29 14 30 32 25 15 28 31 34 17 7 0 0 9 37 71
10 0 6 1 3 0 2 8 12 6 31 41 52 71 72 59 30 35 23 77 9 0 0 60 76 67 60 44 32 42 22 14 17 8 11 12 8 5 3 0 0 0 0
7 1 0 7 4 1 4 17 12 11 27 43 47 56 57 46 9 0 3 22 31 35 0 29 70 83 67 54 52 37 38 41 34 37 34 24 18 12 3 0 0 0 0
0 2 1 9 13 3 12 1 3 16 26 27 35 19 1 1 0 1 6 6 4 6 0 3 25 44 39 60 51 41 43 59 50 42 48 32 16 7 0 0 0 0 0
0 0 1 8 7 18 11 5 6 0 24 1 2 2 3 7 2 4 13 4 8 5 1 0 2 34 12 2 9 10 2 5 1 3 0 0 9 13 12 9 11 13 13
10 2 3 2 10 5 8 31 18 6 7 0 10 8 15 4 3 20 8 0 14 4 7 5 0 0 0 1 0 0 0 0 0 0 2 8 1 1 8 13 18 26 27
72 15 3 6 13 17 18 7 20 2 23 5 4 24 8 26 23 17 7 2 9 0 2 1 0 0 0 0 1 2 0 5 7 25 30 21 21 38 48 54 58 49 31
18 7 8 5 1 9 9 26 16 3 14 15 16 24 6 1 4 2 8 8 9 2 7 14 2 3 9 20 56 33 40 28 36 62 48 80 58 73 65 77 70 66 56
106 89 134 13 13 0 0 6 3 7 11 26 12 13 0 9 16 15 11 6 12 15 23 16 9 10 30 9 31 30 33 43 34 34 36 0 18 39 67 80 47 63 26
50 52 50 26 24 25 17 7 8 15 14 20 31 12 14 15 13 10 9 5 6 5 10 7 9 12 18 9 10 6 12 12 2 0 3 1 1 11 10 1 1 2 3
10 19 35 12 14 26 16 7 14 22 20 4 12 7 9 5 4 9 23 28 34 19 27 25 40 50 8 14 20 40 56 37 33 42 28 39 15 15 3 1 2 3 8
10 11 7 10 10 2 2 1 2 7 10 6 5 4 5 10 12 16 31 26 38 25 41 25 25 48 48 57 58 30 25 22 22 12 5 13 10 6 0 1 5 0 3
2 5 10 12 15 22 27 39 44 34 1 7 8 21 6 9 0 20 20 0 0 14 9 18 21 12 11 15 26 17 0 0 0 4 1 0 0 0 0 0 0 0 0

GFSMA_con_mucape_105.txt.gz
CAPE
574 400 278 295 213 235 203 136 81 20 17 10 4 70 98 77 45 35 17 2 12 12 10 20 19 26 34 46 42 21 17 15 12 10 10 15 23 22 15 6 3 2 4
531 434 314 360 517 184 156 71 62 37 43 16 11 56 79 59 50 48 11 0 0 6 9 22 27 42 37 42 36 25 17 10 14 21 19 7 22 16 11 2 0 0 0
616 492 284 297 189 116 239 153 69 59 49 11 27 60 79 46 37 42 11 0 0 0 3 29 49 47 30 34 30 12 9 9 6 14 16 12 11 7 4 0 0 0 0
630 465 341 222 178 190 192 136 94 104 45 8 31 33 84 39 35 15 0 0 0 0 2 24 44 45 47 22 17 8 11 12 14 10 10 16 9 3 0 0 0 0 0
785 516 356 289 275 193 263 143 107 72 64 13 37 43 52 11 29 6 2 0 0 0 1 22 27 32 29 30 21 20 19 16 13 9 1 14 13 12 5 0 0 0 0
630 715 564 443 296 158 199 195 144 63 53 29 81 72 44 8 13 0 0 0 0 0 0 14 23 20 21 29 44 17 12 15 3 7 10 10 12 10 10 6 3 0 0
606 517 462 396 322 239 167 170 137 67 12 26 78 53 34 11 2 0 0 0 0 0 0 0 11 13 14 14 32 16 14 18 16 7 8 10 18 17 17 9 8 5 0
479 502 509 369 242 134 105 124 126 73 38 31 35 10 8 0 0 14 7 2 1 0 0 0 0 0 0 0 0 13 10 12 14 20 27 19 15 16 15 6 6 6 4
435 251 231 270 94 55 66 105 106 92 45 22 45 12 0 0 0 26 24 21 14 8 0 0 0 0 0 0 0 0 0 0 13 64 55 52 36 38 40 21 5 5 3
225 257 269 90 4 12 80 64 93 89 38 18 52 14 2 0 0 0 18 17 14 19 2 3 2 0 0 0 0 0 0 0 0 11 117 133 124 99 96 89 64 50 44
338 245 128 28 1 9 3 8 52 78 38 28 32 8 8 0 0 0 4 0 4 1 8 2 1 0 0 0 0 0 0 0 0 0 18 123 260 193 158 153 156 138 137
289 147 27 151 94 0 1 17 67 23 35 28 24 16 3 6 0 0 0 0 0 0 0 0 0 0 0 0 0 3 6 2 3 1 0 8 83 198 290 261 235 236 225
176 92 60 47 5 0 0 5 7 49 17 30 14 7 6 8 1 13 5 0 0 0 0 0 0 0 0 0 0 1 13 15 6 7 14 11 5 15 70 178 306 369 362
125 1 4 0 0 0 0 3 29 27 35 25 28 3 5 12 40 46 41 32 8 0 3 0 11 20 3 3 11 3 0 0 14 31 43 31 23 20 13 6 35 86 167
1 2 2 0 0 0 0 3 2 8 31 19 22 12 12 10 39 58 53 34 2 0 0 28 48 52 41 36 23 17 24 20 11 23 37 34 32 43 45 39 33 20 11
0 6 0 0 0 0 0 1 16 11 15 16 7 13 20 30 46 64 76 65 40 31 0 18 35 37 42 45 55 49 33 24 17 16 11 17 26 27 29 18 21 14 7
2 4 2 1 0 0 0 1 1 15 23 32 32 9 39 48 0 52 50 24 9 17 10 7 10 31 34 46 53 52 42 42 60 61 66 59 73 72 63 43 29 20 19
1 4 7 2 0 0 0 1 2 3 20 8 0 1 1 35 33 43 17 13 12 3 5 3 8 4 22 33 58 75 34 26 25 21 45 44 44 46 42 43 33 20 21
5 0 23 3 6 4 2 1 2 0 4 1 0 16 24 34 2 16 18 1 2 7 6 2 10 3 23 27 21 15 17 10 9 5 22 34 35 33 33 34 30 26 37
83 28 2 11 0 0 3 25 0 12 3 2 30 41 35 0 11 14 10 3 15 11 0 0 0 0 0 0 0 2 0 23 14 21 31 30 40 43 57 30 20 19 36
112 27 4 19 4 7 5 0 2 11 27 13 0 4 9 16 14 32 15 12 21 9 5 0 1 1 1 6 0 9 16 18 35 82 40 39 71 25 48 8 3 2 10
59 49 22 2 5 2 2 2 6 28 15 4 5 29 20 23 10 0 7 30 3 7 3 0 0 3 8 6 2 37 50 22 8 4 0 0 3 6 10 4 1 0 10
54 19 60 32 10 4 9 12 14 9 26 19 27 25 9 4 5 11 2 1 6 6 14 19 7 6 10 19 24 13 20 12 11 23 16 21 8 22 2 7 3 13 9
128 71 25 17 9 39 11 8 7 13 10 11 13 6 16 9 16 15 44 34 22 33 25 19 11 4 2 2 5 14 9 25 17 37 23 17 3 0 1 5 0 0 2
95 61 16 15 26 12 13 20 36 31 28 18 18 25 30 25 25 14 16 26 18 7 17 17 17 7 19 17 8 1 4 35 20 11 7 0 0 0 0 0 0 0 0
184 31 11 11 29 17 11 41 29 31 15 15 14 8 11 11 5 10 7 9 15 9 18 18 31 6 4 4 1 15 3 5 0 0 0 0 0 0 0 0 0 0 0

GFSMA_con_mucape_108.txt.gz
CAPE
614 550 535 437 264 203 216 142 93 48 32 20 25 18 32 85 88 81 87 133 142 221 42 15 18 19 21 41 37 24 22 18 16 9 12 5 4 5 5 16 12 8 8
534 455 397 359 225 178 130 130 116 102 51 24 33 29 45 55 59 67 59 67 25 21 24 16 16 18 25 27 32 25 25 19 15 13 10 18 20 4 17 11 9 8 8
468 407 350 289 140 206 110 119 130 90 18 38 35 25 40 50 59 56 34 31 0 0 4 18 29 46 37 32 33 27 26 23 9 23 9 13 21 21 13 8 4 2 5
461 425 350 315 265 274 104 98 73 44 54 53 57 39 32 37 51 46 36 33 0 0 0 0 29 49 50 47 23 28 23 7 7 29 22 15 21 13 8 2 2 1 1
629 535 474 372 388 322 63 96 130 82 84 80 54 35 49 22 48 42 36 14 0 0 0 0 23 31 41 45 31 30 17 16 9 22 21 21 19 11 7 3 0 0 0
600 603 488 341 276 203 182 148 138 146 116 119 55 48 61 23 33 38 37 11 0 0 0 0 24 22 27 40 45 27 15 14 8 16 11 11 16 15 9 6 3 1 1
918 603 534 394 305 230 153 133 79 140 187 80 29 56 36 43 14 50 20 13 0 0 0 0 15 20 15 22 43 27 18 20 19 14 12 16 23 24 21 11 6 4 2
683 858 705 556 404 293 305 191 74 69 84 56 9 37 34 59 26 38 9 7 0 0 0 0 0 3 7 11 15 26 28 18 20 24 27 18 14 18 17 7 6 7 4
454 397 502 565 527 460 371 275 179 121 79 41 35 13 9 12 0 11 7 1 0 0 0 0 0 0 0 0 0 0 0 1 19 32 24 26 25 23 48 22 5 5 7
649 468 353 307 301 296 234 84 190 114 105 66 36 21 37 7 0 0 5 0 5 1 0 0 0 0 0 0 0 0 0 0 0 6 76 91 92 95 97 111 96 62 45
468 481 388 198 151 175 20 7 441 120 76 31 44 36 30 18 0 14 0 0 17 10 4 0 0 0 0 0 0 0 0 0 0 0 12 114 185 163 151 163 178 177 150
96 343 438 174 171 52 4 7 107 64 65 72 73 19 30 9 7 1 1 0 6 0 1 0 0 0 0 0 0 0 0 0 0 3 4 9 62 191 250 243 253 276 263
96 478 811 541 154 182 17 12 29 41 61 55 54 23 31 31 3 14 14 0 0 0 4 0 0 0 0 0 0 0 0 2 0 3 6 5 1 19 81 179 288 356 345
161 320 365 351 212 129 4 11 29 13 46 22 38 19 40 24 33 3 4 0 0 0 3 0 0 0 0 0 0 0 24 16 11 10 9 6 9 16 20 17 58 113 197
408 292 155 488 188 5 2 7 0 6 7 25 21 30 16 11 14 14 16 3 0 0 0 2 0 0 1 2 6 22 17 18 21 20 12 11 22 22 32 28 27 27 29
506 349 208 59 0 8 0 0 8 22 20 4 9 9 40 14 23 4 17 21 42 0 0 25 20 41 40 39 34 46 40 42 30 18 10 21 26 26 29 41 37 19 21
494 395 265 0 38 0 0 3 1 1 5 4 28 27 5 13 1 26 35 14 4 5 4 13 37 43 54 50 40 65 56 41 48 57 48 30 50 52 18 45 45 47 42
341 373 360 1 10 14 0 32 1 2 2 3 23 32 38 8 11 31 7 2 6 3 0 10 1 23 1 26 22 42 63 74 68 72 65 81 69 68 68 42 36 21 21
362 487 314 8 2 12 0 0 34 3 1 20 1 21 25 21 17 23 6 12 8 35 18 5 11 12 7 6 15 5 21 50 27 31 20 16 1 10 17 28 43 40 38
155 339 84 3 6 24 5 5 10 28 0 11 13 19 12 2 1 12 33 16 34 16 5 5 12 5 3 2 14 24 8 1 5 12 13 31 20 20 34 22 26 29 59
53 89 36 2 24 40 37 19 17 11 8 1 10 8 4 5 27 37 38 20 44 19 4 22 7 2 0 1 0 1 0 3 10 41 33 47 14 34 11 7 19 6 26
196 25 53 2 19 61 16 14 14 3 20 17 7 12 8 15 34 27 7 13 19 24 0 0 0 6 1 0 5 9 9 28 14 19 66 13 12 0 5 1 2 3 2
115 28 58 40 14 5 10 10 16 8 26 10 21 6 16 18 5 15 12 21 15 5 15 6 6 5 5 11 11 15 29 44 31 37 31 29 2 0 2 2 11 6 8
43 13 36 79 5 8 3 5 13 15 28 23 15 25 17 3 9 12 9 13 11 11 20 19 14 16 23 32 31 23 13 23 23 26 11 16 1 2 3 14 9 1 1
24 18 47 56 82 7 7 7 8 13 21 16 28 8 21 6 12 20 9 14 9 10 21 30 12 15 29 19 12 7 12 1 15 5 0 15 9 18 15 0 0 0 0
0 7 9 39 25 0 4 9 5 8 4 11 26 35 27 37 16 4 10 4 11 17 13 2 5 7 3 4 6 5 15 0 0 2 13 1 0 0 0 0 0 0 0

GFSMA_con_mucape_111.txt.gz
CAPE
881 687 517 655 412 335 207 151 107 19 0 0 0 1 10 102 139 116 142 162 197 315 226 31 20 14 17 35 46 26 22 23 9 11 4 21 26 9 2 6 14 13 10
796 606 703 1144 638 383 177 164 116 38 1 5 7 14 20 26 98 104 109 96 109 119 197 38 15 23 21 35 42 32 12 10 16 6 9 11 4 3 18 16 14 12 9
807 684 603 708 463 333 169 167 179 56 20 20 19 19 10 8 56 67 73 78 61 88 44 41 28 32 28 47 29 25 23 18 25 18 18 12 4 7 11 16 10 8 8
764 639 577 538 469 300 172 125 84 101 50 51 25 35 15 7 18 52 38 71 62 75 13 3 20 46 40 50 34 29 30 12 26 24 33 22 12 9 21 9 6 4 5
563 498 500 452 416 298 175 96 71 153 103 62 51 50 37 0 2 44 45 59 45 29 4 0 7 28 42 61 43 36 43 15 23 34 32 18 10 28 17 5 3 3 1
615 418 432 388 380 287 225 218 135 93 75 89 67 80 48 12 5 20 54 44 46 32 2 0 3 23 29 42 51 45 41 28 18 19 19 27 18 23 23 16 6 2 1
724 712 526 438 373 346 361 384 111 94 69 215 57 63 107 18 15 25 52 40 45 30 9 0 4 19 24 27 38 48 40 17 32 12 21 17 30 32 26 17 12 6 4
796 789 698 616 549 427 376 324 149 263 215 277 18 63 43 15 22 9 42 35 46 39 7 0 5 19 20 3 15 46 50 34 39 24 29 9 26 29 28 18 12 13 8
769 867 766 623 572 462 339 253 251 328 96 27 42 55 32 4 15 1 20 35 25 38 16 0 0 5 11 8 10 8 8 13 34 45 10 29 31 25 25 20 11 8 14
733 656 878 812 567 527 721 383 101 102 83 10 31 74 52 20 4 8 23 32 7 18 1 0 0 0 0 0 0 0 0 0 0 20 39 40 28 36 39 44 51 34 25
985 596 452 497 639 602 443 274 296 222 178 72 60 39 59 57 51 19 0 2 1 0 1 0 0 0 0 0 0 0 0 0 0 0 1 55 68 85 101 111 124 121 109
804 717 933 776 542 244 166 346 29 186 218 20 46 68 41 59 37 24 0 6 7 17 0 0 0 0 0 0 0 0 0 0 0 0 0 0 46 156 162 172 185 208 202
650 424 247 571 711 611 466 103 33 51 26 13 39 51 75 42 26 3 5 0 0 5 0 3 0 0 0 0 0 0 0 0 0 0 0 0 0 8 81 183 233 255 251
563 351 209 171 236 447 434 275 105 5 8 4 34 50 32 30 5 7 0 13 4 1 4 0 21 3 0 0 0 0 0 0 0 0 0 3 2 1 0 3 47 128 190
531 456 323 129 149 374 447 294 65 6 11 28 26 34 18 12 43 3 16 13 33 3 3 0 10 0 0 0 0 3 0 0 0 4 13 10 2 4 8 4 6 18 13
666 633 419 281 138 241 571 159 49 7 8 5 4 3 11 30 2 18 25 17 8 7 17 0 0 6 1 0 24 24 5 19 14 33 34 19 15 15 18 14 14 27 34
705 620 545 341 159 242 154 75 6 1 0 8 10 11 21 14 32 32 6 22 18 10 0 0 6 19 21 17 25 36 38 17 47 62 59 52 44 37 30 26 33 24 14
658 691 529 428 297 190 2 34 0 0 2 12 9 31 9 19 18 27 7 18 0 9 26 0 0 40 43 40 48 33 47 56 67 59 59 50 59 52 43 42 23 16 16
533 712 568 350 333 237 1 63 0 1 1 5 12 16 32 32 19 31 18 8 22 0 0 1 0 0 0 15 4 42 38 12 32 43 47 38 30 21 16 0 1 11 21
370 582 649 455 184 206 20 23 3 0 6 4 19 18 10 26 2 29 4 12 11 23 0 21 23 1 1 4 1 19 37 20 16 15 20 4 0 5 13 10 17 15 44
382 528 422 377 76 66 0 44 3 0 9 3 7 60 14 7 15 8 18 9 2 3 0 1 24 2 7 1 0 3 10 5 2 2 7 16 16 39 25 28 18 9 4
131 318 78 200 36 75 3 6 8 22 7 10 13 27 21 21 15 4 2 0 0 11 13 36 19 9 0 8 29 6 9 0 0 3 11 15 51 51 39 14 19 0 0
4 15 8 38 3 17 34 20 21 36 19 9 14 8 11 6 4 23 7 22 23 7 14 16 11 0 0 18 9 22 6 4 13 10 24 57 41 28 8 3 8 3 5
26 38 10 36 51 64 60 6 6 29 29 15 18 4 28 18 21 13 29 7 21 7 9 6 9 6 0 6 20 17 10 20 21 22 29 12 4 8 6 10 4 4 1
3 0 3 39 39 36 42 3 5 3 7 3 10 12 20 11 22 11 2 3 6 2 13 4 8 15 5 24 19 17 13 23 7 14 8 0 7 15 15 0 1 7 1
0 0 29 1 2 6 50 10 14 12 28 28 14 3 20 15 24 4 16 19 14 14 6 3 11 11 11 7 13 3 1 4 1 8 10 8 0 0 0 0 0 0 0

GFSMA_con_mucape_114.txt.gz
CAPE
967 826 742 629 631 433 187 109 67 9 3 7 17 105 120 119 161 139 154 206 263 455 507 178 44 21 14 16 45 48 31 33 28 21 20 25 17 25 22 10 2 6 6
984 888 943 640 572 470 330 196 138 89 55 4 0 0 14 43 140 88 91 83 124 146 267 233 70 22 17 30 49 43 24 26 24 23 21 21 27 13 22 18 18 15 2
1102 906 834 742 615 443 338 222 152 127 72 2 0 0 0 26 43 87 79 73 73 79 84 127 131 40 27 37 35 37 25 34 35 26 22 21 24 5 13 9 17 11 11
1135 945 812 921 978 949 388 243 155 156 115 44 4 33 0 7 21 44 70 62 65 53 89 65 51 53 46 59 45 30 31 28 31 32 23 27 6 10 20 27 18 15 10
1040 919 781 803 968 869 430 256 152 123 125 84 38 75 15 0 18 13 29 35 54 54 60 80 18 11 39 72 52 40 36 40 34 37 24 28 7 12 18 20 6 8 9
1013 903 775 634 524 517 450 262 169 96 39 88 119 74 37 4 28 78 28 41 39 57 34 51 8 2 18 62 83 42 48 45 27 31 30 28 9 27 35 19 6 7 8
838 791 712 531 481 462 427 302 262 163 227 109 89 33 10 2 25 207 9 23 38 55 43 35 7 0 14 44 63 63 65 56 33 27 36 30 27 27 41 20 15 3 5
706 693 580 438 406 404 385 369 256 221 198 102 22 46 24 5 5 46 62 30 44 44 32 27 8 0 10 30 28 73 79 68 60 36 35 45 35 42 39 29 19 17 10
953 844 628 584 470 407 377 365 317 495 147 38 347 53 25 16 12 4 21 17 39 50 39 28 1 0 9 24 11 27 22 27 43 69 61 51 36 32 37 39 24 21 16
1084 943 696 706 552 767 986 481 331 143 141 54 33 53 90 28 24 9 0 28 28 40 22 28 11 0 0 20 14 5 11 1 4 44 61 60 34 37 39 39 27 24 15
1115 1059 970 681 451 615 755 562 126 102 81 21 25 8 16 34 33 33 18 12 17 25 23 25 15 2 0 0 13 7 2 0 0 0 18 38 44 41 41 35 28 39 46
1030 1056 956 964 826 673 464 245 212 134 90 88 116 12 28 28 58 67 25 45 21 20 25 12 14 4 0 0 0 0 0 0 0 0 0 2 25 43 42 68 95 119 135
927 1129 916 929 644 440 424 326 327 278 102 63 6 25 15 34 34 81 27 18 13 8 5 4 6 5 1 0 0 0 0 0 0 0 0 0 0 1 35 108 151 191 209
897 908 938 811 739 315 328 695 433 249 334 137 16 18 12 10 25 34 27 16 31 1 7 0 5 3 4 0 0 0 0 0 0 0 0 0 0 0 0 0 37 125 163
946 874 718 644 561 236 208 290 657 311 214 114 67 6 11 23 4 18 25 24 4 33 0 2 23 7 1 9 16 18 3 1 0 0 0 0 0 0 0 0 0 0 0
973 922 827 640 502 334 196 141 222 270 200 95 42 6 21 20 11 1 8 30 12 4 27 0 0 2 25 56 42 47 32 21 11 3 0 0 0 8 8 8 1 0 0
983 713 789 712 476 385 282 114 295 253 200 61 4 3 1 0 13 0 9 5 8 11 86 0 2 2 0 30 40 65 41 32 15 11 6 26 36 32 15 6 0 0 0
785 835 533 610 517 468 340 322 466 136 89 51 2 0 8 4 0 2 7 11 10 21 2 16 0 0 0 20 31 12 25 39 29 30 42 50 46 46 46 38 22 14 20
833 741 439 367 415 427 388 273 422 135 0 4 0 4 8 1 8 5 9 8 15 8 7 0 0 0 0 6 25 34 46 37 18 31 45 36 31 36 49 38 28 21 5
237 309 322 146 273 404 464 249 164 72 27 0 1 0 6 4 0 19 0 15 8 26 4 0 0 0 0 0 0 2 8 3 0 4 17 21 19 15 18 12 0 0 3
226 61 75 143 184 343 415 151 137 80 46 1 2 0 5 2 4 2 8 10 5 1 4 0 0 0 0 0 0 0 0 10 0 13 6 5 9 7 2 9 7 23 45
26 16 18 117 153 67 361 22 81 81 8 12 57 5 0 7 2 1 5 26 0 4 21 0 0 0 0 0 0 0 0 0 0 4 19 25 1 0 4 7 20 22 28
0 0 29 55 36 16 87 10 39 96 17 8 22 20 22 7 12 6 7 4 0 12 23 17 0 0 0 0 18 6 0 0 0 12 11 33 0 0 4 9 16 15 14
3 13 19 1 16 0 14 0 7 48 16 19 12 26 22 18 12 10 23 13 1 3 9 5 3 13 8 7 11 3 10 1 0 5 8 7 1 1 3 4 7 5 3
1 3 0 0 1 0 0 9 8 38 22 12 19 28 21 5 21 5 11 29 9 7 23 8 20 19 24 21 8 22 9 2 9 1 0 8 3 1 0 0 2 0 2
0 0 0 1 0 0 0 0 10 0 1 7 24 30 29 13 13 19 3 10 22 2 0 4 3 0 12 11 17 14 21 0 14 5 0 1 2 6 0 0 1 1 1

GFSMA_con_mucape_117.txt.gz
CAPE
972 1155 1009 824 632 569 575 473 171 54 146 429 653 622 515 720 735 784 771 190 229 375 397 288 121 24 15 8 33 31 32 25 16 19 28 36 32 28 23 24 20 19 19
1316 889 864 738 798 619 488 374 243 131 129 253 401 467 462 526 619 672 738 450 130 129 209 228 185 66 27 18 43 41 47 35 20 23 29 37 38 28 28 31 5 12 7
1212 1489 814 747 830 590 506 327 253 160 54 32 156 202 216 304 457 398 449 465 92 67 73 121 154 166 34 26 39 56 44 54 37 28 26 32 36 28 25 27 26 15 3
1056 1044 1093 1320 824 602 528 369 245 165 132 78 78 82 106 160 227 395 441 347 377 170 64 42 100 114 95 53 32 31 32 37 43 35 27 29 29 27 24 25 28 15 11
1162 1037 1206 1203 735 602 590 394 295 196 142 119 77 36 80 141 139 151 228 243 287 289 115 54 67 51 59 64 63 31 31 41 38 33 31 23 17 21 21 22 27 17 13
1055 1081 1002 959 1038 760 1063 526 367 240 170 258 148 71 36 15 125 62 95 165 285 259 149 53 53 35 15 27 112 53 31 44 35 37 32 26 21 24 34 34 20 10 6
896 1074 986 862 908 693 1140 699 419 274 151 138 58 54 175 19 48 3 51 109 128 118 95 52 43 71 26 5 81 71 54 61 47 37 37 46 41 33 37 37 28 14 12
673 934 948 852 807 902 697 929 452 272 152 128 17 10 15 7 125 56 78 75 133 111 34 42 26 30 26 42 43 59 96 99 72 33 50 57 41 27 38 34 38 22 12
751 700 751 754 736 699 916 686 431 292 190 78 165 18 18 19 4 2 22 32 80 45 34 50 21 18 54 26 27 14 27 61 89 83 53 57 58 38 37 39 38 37 23
753 782 592 629 635 553 502 277 580 357 187 48 17 136 29 8 27 3 0 9 38 16 21 43 32 25 19 14 4 11 21 24 29 79 88 58 50 43 35 42 45 36 35
906 878 824 788 687 528 535 433 219 173 299 291 47 18 71 35 34 14 5 9 0 28 22 36 51 15 3 24 21 5 6 16 9 21 58 82 66 46 36 32 35 29 29
1215 1104 1093 941 838 640 564 466 319 289 312 194 60 40 44 29 14 27 43 10 13 7 25 30 29 23 6 11 12 3 0 2 0 0 2 30 49 48 46 37 36 39 40
1280 1329 1184 981 959 853 552 600 454 356 260 188 179 119 84 24 58 43 23 12 10 17 10 19 18 14 8 3 35 0 0 0 0 1 7 0 2 5 28 36 41 52 93
1421 1187 940 927 934 850 662 877 396 229 319 223 137 127 74 276 88 32 17 24 2 8 0 11 13 7 28 1 36 0 1 0 0 0 0 0 0 0 0 0 16 36 106
1385 1229 871 848 918 1104 965 1290 805 245 168 126 456 221 140 35 41 42 42 30 2 0 0 3 3 13 10 4 4 14 3 0 0 0 0 0 0 0 0 0 0 0 2
1107 1001 872 812 1064 995 841 1110 843 259 182 183 309 193 55 52 41 19 18 19 11 0 3 1 12 5 2 2 6 31 14 0 5 6 0 0 0 0 0 0 1 0 0
920 726 691 673 603 731 582 945 1022 287 183 65 105 118 61 69 27 36 20 9 1 2 9 7 7 8 11 1 15 15 43 18 29 44 34 36 22 7 7 6 3 11 7
538 486 446 443 478 506 517 460 378 371 170 48 102 155 71 41 29 21 13 0 5 12 0 8 3 9 0 8 17 5 44 76 60 71 54 30 13 5 0 3 20 23 13
266 373 406 416 719 579 518 385 312 347 138 151 271 124 43 43 22 19 1 0 8 8 0 1 0 2 13 8 0 0 46 61 29 59 52 26 14 9 20 38 48 47 46
185 124 223 324 579 473 368 398 358 333 243 229 105 112 1 28 15 1 3 2 7 10 0 0 1 1 0 0 0 0 0 41 38 47 37 18 20 39 59 49 51 38 37
12 61 285 341 252 170 54 67 86 208 185 87 80 67 7 11 0 22 9 0 12 0 6 8 0 0 0 0 0 0 0 54 47 36 6 5 2 1 14 19 16 8 3
17 10 66 134 102 126 68 49 116 71 31 3 33 45 14 3 0 0 4 2 0 2 8 15 2 0 0 0 0 0 0 0 0 0 0 1 32 6 4 1 6 3 4
9 1 30 48 44 25 8 30 88 58 14 0 0 33 43 8 6 0 0 3 6 8 5 12 3 0 0 0 0 0 0 0 0 0 0 1 0 12 4 5 11 7 14
4 3 4 1 6 8 21 17 10 30 19 13 25 25 11 40 13 18 17 13 8 11 6 5 2 2 0 0 0 14 0 0 0 0 14 0 8 1 5 5 4 3 3
5 3 0 2 0 3 1 3 0 0 8 29 19 12 5 49 7 8 6 10 10 8 2 13 10 23 17 7 3 17 0 0 0 4 0 1 2 0 0 6 10 6 1
0 0 0 0 0 0 0 0 0 0 0 0 1 0 4 2 28 5 3 7 48 3 14 5 30 17 8 14 18 2 4 0 0 0 0 0 0 5 8 3 0 6 7

GFSMA_con_mucape_120.txt.gz
CAPE
2056 1947 1779 1481 1411 1137 1254 1172 995 826 843 915 943 851 955 1049 883 984 895 88 146 254 414 405 243 99 1 7 38 40 33 26 22 20 21 32 44 35 28 25 24 25 22
1948 1964 1707 1584 1344 1250 1231 1237 1124 768 675 646 835 867 770 767 786 808 883 724 100 171 279 242 194 183 40 7 38 37 48 47 30 19 28 36 37 35 28 28 28 18 14
1618 1947 1840 1746 1356 1337 1360 1381 1036 912 819 672 675 828 809 826 816 755 779 624 297 115 116 127 159 169 145 13 25 45 59 56 45 36 40 35 35 32 28 29 17 21 17
1709 1610 1417 1368 1620 1335 1128 1310 1084 966 933 720 613 600 567 565 598 646 793 734 706 341 75 41 109 117 158 102 20 26 32 58 51 52 49 47 39 31 27 28 27 26 5
2084 1644 1339 1343 1810 1353 881 1149 1054 1097 882 771 656 581 499 454 386 270 434 671 665 630 400 58 32 5 58 101 115 22 32 30 36 41 36 33 26 27 32 31 34 27 19
2287 1891 1469 1528 1258 1480 864 784 669 1080 952 907 458 417 468 358 394 433 407 357 487 515 477 333 78 52 17 47 144 87 36 28 37 39 37 30 30 24 30 37 31 25 22
2406 1987 1814 1688 1101 1099 692 649 755 801 967 919 664 426 294 188 76 124 242 398 255 396 340 491 349 86 7 20 102 207 45 32 32 50 46 49 41 33 30 35 33 32 14
1746 1876 1661 1628 1477 1165 952 926 768 878 776 777 590 325 351 351 96 220 150 187 363 383 240 292 206 85 20 31 98 125 140 89 46 55 75 57 43 34 30 28 33 39 24
1442 1718 1735 1548 1464 1080 872 745 576 881 562 422 510 635 437 111 27 158 261 260 370 458 343 241 137 86 22 18 45 21 23 33 64 100 89 60 58 52 33 30 31 32 33
1634 1538 1571 1310 1211 1043 984 720 682 1143 774 308 345 617 572 187 91 74 7 223 154 237 322 224 162 41 104 13 8 18 15 16 21 54 90 61 73 63 44 34 38 37 37
1747 1544 1432 1460 1327 1045 981 905 542 572 582 682 489 328 478 484 304 184 38 42 24 118 351 252 205 267 109 15 66 65 5 0 3 20 57 65 75 70 55 48 42 47 45
1315 1448 1768 1452 1273 984 862 916 733 604 597 656 573 571 545 382 371 225 94 32 54 19 92 288 302 153 159 29 9 9 8 0 0 0 14 39 65 60 54 55 44 45 45
1322 1243 1639 1546 1336 1234 976 946 772 885 994 1056 1118 1196 844 595 167 62 30 44 125 96 53 45 108 28 23 35 6 6 5 5 0 0 0 4 20 35 41 47 45 50 45
1705 1660 1462 1814 1489 1264 1352 1620 1477 1429 1337 1464 886 837 624 382 216 126 89 220 109 12 10 8 10 1 17 12 13 4 4 12 0 0 0 0 0 0 12 14 22 36 39
1475 1625 1459 1544 1244 963 1000 1452 1477 920 1107 1208 1455 1248 663 509 280 385 554 214 73 44 3 2 1 7 5 40 6 2 2 0 1 0 0 0 0 0 0 0 0 8 18
1404 1606 1427 1403 1318 1005 843 697 913 586 746 1181 849 716 488 210 179 367 468 249 93 52 33 7 0 7 7 7 8 8 7 29 6 0 0 0 0 1 0 0 0 0 0
906 795 874 1165 1089 834 697 515 359 423 663 1093 920 507 424 241 106 262 189 215 67 27 12 6 4 2 2 9 4 10 5 13 40 7 0 0 2 0 0 0 0 0 0
575 517 552 661 626 462 523 583 597 383 529 896 817 431 249 111 60 121 150 85 65 38 15 0 0 2 5 3 21 10 20 7 101 48 16 18 27 22 13 1 2 2 1
41 194 400 407 277 219 232 177 233 850 439 592 770 576 248 113 28 68 74 48 142 49 2 10 3 1 0 1 1 1 4 2 30 37 50 56 50 51 60 59 30 23 15
172 203 194 154 61 269 137 347 306 174 547 581 261 379 211 118 179 60 48 126 83 6 0 5 19 13 1 5 5 2 0 7 0 6 31 64 60 56 59 58 37 34 32
147 173 45 61 204 21 33 105 374 436 287 367 267 350 253 124 135 90 109 64 18 8 10 11 2 14 1 3 0 0 0 3 3 2 0 48 67 68 59 70 57 53 59
16 10 8 7 21 7 29 49 145 160 170 123 108 63 44 7 0 35 26 6 3 99 95 0 5 5 1 4 1 0 0 0 0 0 0 44 59 58 47 21 18 31 42
4 12 9 6 0 8 16 49 73 65 76 81 69 46 69 0 0 10 24 17 14 8 16 15 1 9 0 0 1 0 0 0 0 0 0 3 48 41 25 12 10 7 4
3 6 7 3 4 0 2 9 16 39 51 11 31 37 28 5 1 1 29 29 9 4 21 47 8 8 9 2 2 1 0 0 0 0 0 0 0 0 1 2 4 4 2
0 0 1 1 0 0 3 3 1 2 6 7 7 15 10 7 4 33 29 54 82 8 4 12 30 3 2 1 1 3 0 0 0 0 0 0 0 0 0 0 2 4 7
0 0 0 0 0 0 0 0 0 0 0 0 4 3 0 0 15 0 8 0 53 20 4 13 35 35 6 8 4 3 0 0 0 0 0 0 0 0 0 0 0 2 3

GFSMA_con_mucape_123.txt.gz
CAPE
2594 2016 2280 1860 1809 1685 1542 1378 1482 1499 1259 1289 1381 857 1039 979 1135 958 1278 106 135 118 110 207 232 174 125 75 235 119 34 41 31 30 39 36 37 34 28 33 24 8 5
2706 2468 2078 1877 1811 1903 1706 1639 1371 1201 1226 1303 1221 1080 849 1066 1104 919 1044 322 4 57 349 438 201 167 51 18 102 49 39 49 48 34 42 35 44 33 29 26 27 2 22
2853 2840 2263 2203 1981 1848 1811 1653 1586 1207 1168 1037 1091 1082 947 1098 963 905 908 1002 151 16 66 238 255 162 94 5 10 32 38 46 50 52 46 40 43 34 30 20 26 26 8
2448 2837 2179 2029 2105 1686 1765 1696 1602 1277 1276 1173 1130 1033 1008 874 938 788 920 822 953 557 60 62 64 121 119 66 4 2 14 44 55 51 51 41 40 39 33 15 20 26 21
2267 2379 2018 2097 2419 1842 1921 1717 1623 1565 1190 1137 1021 1165 1189 916 876 470 570 757 897 728 738 60 26 13 16 101 84 17 5 26 28 39 56 45 43 39 33 28 29 27 9
2432 2253 1923 1844 2072 2011 1364 1692 1818 1586 1542 1125 786 883 1102 764 904 630 528 404 414 626 784 462 99 47 0 7 76 40 26 20 22 32 34 42 48 34 31 32 32 30 13
2613 2400 2124 1752 1880 1917 1431 1420 1612 1707 1424 1527 1105 916 765 721 611 735 624 562 423 535 435 818 337 206 4 0 10 59 55 70 32 30 56 51 51 39 31 32 34 29 8
1742 2051 1928 1872 1687 1862 1410 1445 1526 1422 1680 1649 1169 859 751 458 494 386 366 415 528 417 336 459 378 207 153 23 10 19 69 161 163 75 66 56 54 43 35 33 34 38 29
1579 2247 1937 1671 1691 1631 1400 1607 1391 1240 1420 1445 1332 733 369 304 181 688 338 448 346 633 350 324 293 311 195 69 1 1 1 52 119 156 125 60 46 46 36 35 37 38 40
1670 2432 1768 1670 1801 1677 1307 1647 1406 1305 1283 741 854 1024 1390 618 156 90 207 245 259 209 553 341 277 264 143 152 6 0 1 11 23 65 126 129 56 40 38 39 34 35 42
2087 1497 1812 1740 1492 1714 1382 1779 1296 1244 1398 933 547 754 987 1109 1038 429 151 288 99 75 287 608 351 342 193 196 41 19 0 1 5 13 55 133 113 63 33 36 37 34 39
1898 2313 1583 1735 1491 1461 1231 1851 1374 1234 1192 1135 808 959 1039 946 653 674 537 492 259 133 68 118 580 305 426 186 75 7 4 13 3 3 13 35 51 70 47 55 42 46 47
1467 2069 2322 2197 1477 1230 1130 1810 1816 1328 1237 837 838 999 1401 1062 865 591 447 574 165 169 403 111 120 461 314 365 217 10 11 6 7 9 1 3 28 22 44 57 46 51 54
1419 1594 1648 1868 1885 1448 1557 1464 1451 1343 1120 847 1041 1618 1518 1360 1301 883 514 309 182 540 274 123 98 184 236 187 106 18 25 20 8 15 0 0 4 18 9 14 27 36 30
1436 1780 1771 1468 1482 1309 1150 1522 1271 1634 1534 1505 1749 1744 1565 1411 1390 1084 834 616 695 279 429 108 3 91 60 6 1 3 11 28 23 3 2 1 0 0 0 6 8 9 17
1199 1366 1675 1667 1148 1371 1683 1621 1399 1158 1316 1135 1198 1396 1384 1509 1231 1263 1137 794 377 279 451 89 37 48 18 0 9 11 8 7 15 11 5 18 4 0 0 0 0 10 13
986 1200 1376 1158 1092 999 1227 1293 1309 1294 1115 868 684 694 763 1063 1036 697 531 725 329 208 207 314 24 25 45 34 2 2 3 6 5 16 9 4 13 0 0 0 0 0 0
537 703 792 1192 763 802 745 1063 933 1070 674 716 542 308 559 525 496 794 890 629 285 164 311 14 40 9 17 0 3 5 5 3 6 3 8 3 7 0 0 0 0 0 0
159 171 475 1001 698 535 422 496 394 363 349 472 468 518 458 525 648 658 614 504 201 104 130 36 19 30 15 1 0 9 5 5 10 3 3 2 4 2 0 6 1 0 8
208 138 68 167 353 477 626 476 429 397 311 299 176 366 329 404 564 491 577 279 140 131 164 69 48 7 0 2 6 13 0 2 1 1 4 4 12 27 38 46 30 26 27
11 70 193 132 109 13 1 10 147 152 74 137 209 190 157 306 321 223 272 155 91 21 95 66 45 8 2 1 4 13 9 5 2 0 0 3 14 36 45 62 69 69 75
12 7 8 28 10 4 0 11 68 32 64 39 24 120 253 139 191 87 69 49 9 23 0 0 2 4 27 39 15 12 6 9 11 3 0 1 9 0 30 38 71 84 60
8 8 17 12 16 13 9 8 9 6 56 15 21 41 71 50 84 55 55 23 19 0 0 6 2 5 67 14 39 18 0 3 1 3 0 0 19 13 6 17 40 50 69
0 2 10 18 15 20 13 5 3 0 2 17 16 11 54 64 74 70 32 24 7 5 3 24 29 15 21 57 17 15 1 4 5 1 1 1 0 0 0 1 15 46 47
0 0 0 0 0 0 0 0 0 1 5 0 3 0 2 26 25 27 27 18 3 9 7 25 31 20 52 53 74 16 18 1 7 6 2 3 1 0 0 1 0 24 33
0 0 0 0 0 0 0 0 0 0 0 0 0 0 0 0 5 1 0 0 0 0 1 5 12 26 36 77 57 29 5 6 10 12 1 0 0 0 0 0 0 0 0